Date StartTime U_cm/s V_cm/s W_cm/s Ustd_cm/s Vstd_cm/s Wstd_cm/s Uvar_(cm/s)^2 Vvar_(cm/s)^2 Wvar_(cm/s)^2 KE_(m/s)^2 TurbulentKE_(m/s)^2 HorizWindSpeed_cm/s FrictionSpeec_cm/s DragCoef SpeedOfSound_m/s SonicTemperature_C Pressure_mb 
06/26/2013  00:00:00      -88.656      -31.902        1.816       30.696       28.748       19.512      942.239      826.463      380.728        0.551        0.107       94.221       17.051        0.033      343.110       18.990      861.602
06/26/2013  00:01:00     -139.846      -82.945       -5.217       32.131       31.026       18.540     1032.402      962.597      343.720        1.440        0.117      162.594       11.683        0.005      343.185       19.118      861.617
06/26/2013  00:02:00     -125.900      -62.689       -1.179       52.999       34.400       24.274     2808.936     1183.370      589.203        1.218        0.229      140.645       23.370        0.028      343.133       19.030      861.638
06/26/2013  00:03:00      -57.555      -36.329        8.121       55.111       38.863       28.927     3037.265     1510.321      836.789        0.504        0.269       68.062       14.908        0.048      343.146       19.053      861.659
06/26/2013  00:04:00     -122.520      -77.899       -1.416       46.256       33.423       21.220     2139.573     1117.077      450.284        1.239        0.185      145.187       18.459        0.016      343.145       19.052      861.680
06/26/2013  00:05:00     -136.295      -37.443       -2.337       40.307       42.908       26.919     1624.623     1841.056      724.613        1.209        0.210      141.345       23.682        0.028      343.127       19.020      861.684
06/26/2013  00:06:00     -135.182      -15.053        0.124       57.309       42.589       31.992     3284.343     1813.814     1023.473        1.231        0.306      136.017       34.619        0.065      343.218       19.175      861.657
06/26/2013  00:07:00     -134.562      -17.765       -0.688       43.315       30.413       24.702     1876.175      924.967      610.198        1.092        0.171      135.730       24.499        0.033      343.234       19.203      861.622
06/26/2013  00:08:00     -141.476       14.337       -7.434       37.069       38.608       19.968     1374.087     1490.562      398.731        1.177        0.163      142.201       20.496        0.021      343.263       19.252      861.572
06/26/2013  00:09:00      -77.016      -25.665       -3.637       30.613       27.478       19.620      937.173      755.019      384.960        0.434        0.104       81.180       16.315        0.040      343.247       19.225      861.536
06/26/2013  00:10:00      -91.521      -73.165        2.386       49.515       26.284       27.029     2451.767      690.844      730.574        0.880        0.194      117.171       23.710        0.041      343.264       19.252      861.536
06/26/2013  00:11:00      -36.894      -23.978       13.232       46.709       27.685       22.038     2181.702      766.460      485.689        0.277        0.172       44.001       25.168        0.327      343.224       19.185      861.556
06/26/2013  00:12:00     -100.677      -42.415       -0.444       56.003       43.503       22.200     3136.367     1892.510      492.839        0.873        0.276      109.247       27.411        0.063      343.286       19.291      861.560
06/26/2013  00:13:00     -141.341      -67.313      -13.329       40.399       40.769       28.011     1632.116     1662.127      784.617        1.438        0.204      156.551       22.108        0.020      343.264       19.252      861.567
06/26/2013  00:14:00     -129.325      -41.250        7.607       53.407       48.105       27.192     2852.275     2314.095      739.410        1.219        0.295      135.744       25.444        0.035      343.265       19.253      861.580
06/26/2013  00:15:00     -138.738      -54.388        2.425       58.682       56.629       26.838     3443.624     3206.884      720.271        1.479        0.369      149.018       23.453        0.025      343.283       19.286      861.592
06/26/2013  00:16:00     -190.192      -34.326       -4.291       58.080       46.635       29.574     3373.263     2174.869      874.595        2.189        0.321      193.265       27.725        0.021      343.344       19.388      861.600
06/26/2013  00:17:00     -124.465       -3.048        1.798       65.529       44.514       32.282     4294.002     1981.523     1042.128        1.141        0.366      124.502       35.653        0.082      343.324       19.355      861.605
06/26/2013  00:18:00     -140.804      -44.992       -9.393       38.785       30.955       18.390     1504.266      958.226      338.200        1.237        0.140      147.818       16.464        0.012      343.355       19.408      861.613
06/26/2013  00:19:00     -103.861      -26.406        1.058       49.705       28.001       21.828     2470.597      784.050      476.447        0.761        0.187      107.165       22.793        0.045      343.326       19.360      861.616
06/26/2013  00:20:00     -117.061        4.950       -3.408       52.788       33.382       22.412     2786.626     1114.383      502.284        0.907        0.220      117.165       25.282        0.047      343.348       19.396      861.613
06/26/2013  00:21:00     -146.986      -32.680       -5.485       60.304       34.991       29.430     3636.591     1224.393      866.141        1.421        0.286      150.575       35.368        0.055      343.367       19.427      861.613
06/26/2013  00:22:00     -118.253      -65.206       -1.647       45.173       38.736       23.902     2040.594     1500.491      571.287        1.117        0.206      135.039       20.448        0.023      343.341       19.385      861.618
06/26/2013  00:23:00     -180.168      -67.492       -6.724       73.071       65.137       27.719     5339.411     4242.799      768.322        2.370        0.518      192.395       28.607        0.022      343.344       19.386      861.631
06/26/2013  00:24:00     -203.208       -4.442      -13.241       57.294       35.882       22.542     3282.593     1287.497      508.123        2.328        0.254      203.257       21.995        0.012      343.390       19.464      861.632
06/26/2013  00:25:00     -119.937      -31.207        0.093       72.412       51.118       24.123     5243.549     2613.095      581.943        1.190        0.422      123.930       30.773        0.062      343.310       19.329      861.605
06/26/2013  00:26:00     -181.805      -60.223      -17.542       51.517       45.006       23.217     2654.034     2025.575      539.034        2.110        0.261      191.520       19.781        0.011      343.329       19.363      861.575
06/26/2013  00:27:00      -64.688      -37.293        2.701       55.965       33.390       30.260     3132.129     1114.920      915.685        0.537        0.258       74.668       28.056        0.141      343.313       19.337      861.550
06/26/2013  00:28:00     -106.775      -30.136       -6.304       41.002       41.881       26.979     1681.133     1754.020      727.862        0.826        0.208      110.946       24.643        0.049      343.311       19.335      861.546
06/26/2013  00:29:00     -114.947      -35.947        0.886       33.125       29.454       17.961     1097.268      867.509      322.606        0.840        0.114      120.437       18.748        0.024      343.252       19.233      861.554
06/26/2013  00:30:00     -106.489      -16.903        5.291       37.930       43.157       23.011     1438.716     1862.569      529.483        0.774        0.192      107.822       20.784        0.037      343.264       19.252      861.554
06/26/2013  00:31:00      -84.176      -35.680        6.122       34.106       30.858       21.593     1163.193      952.198      466.267        0.549        0.129       91.426       20.097        0.048      343.303       19.319      861.557
06/26/2013  00:32:00     -127.419      -78.546        1.971       34.077       34.805       22.566     1161.260     1211.417      509.223        1.264        0.144      149.683       20.601        0.019      343.287       19.293      861.563
06/26/2013  00:33:00     -140.032      -45.536       -2.219       57.992       53.769       29.428     3363.022     2891.155      865.982        1.440        0.356      147.249       27.210        0.034      343.210       19.161      861.573
06/26/2013  00:34:00     -141.255      -32.066        1.836       39.346       46.435       27.540     1548.083     2156.238      758.435        1.272        0.223      144.849       18.701        0.017      343.183       19.115      861.581
06/26/2013  00:35:00      -95.637      -27.015        2.547       41.067       45.909       26.533     1686.463     2107.613      703.994        0.719        0.225       99.380       28.416        0.082      343.205       19.153      861.561
06/26/2013  00:36:00     -136.992       -3.533      -22.104       39.239       37.639       20.540     1539.700     1416.723      421.872        1.132        0.169      137.038       13.866        0.010      343.285       19.288      861.526
06/26/2013  00:37:00      -67.862      -30.118       -1.220       17.074       15.579       13.949      291.525      242.710      194.578        0.312        0.036       74.245        9.846        0.018      343.256       19.240      861.495
06/26/2013  00:38:00      -91.271      -29.093      -13.223       17.344       26.727       16.825      300.830      714.328      283.071        0.532        0.065       95.795       10.993        0.013      343.281       19.282      861.483
06/26/2013  00:39:00      -73.170      -33.427       -9.287       23.842       18.940        9.882      568.428      358.717       97.659        0.379        0.051       80.444        8.196        0.010      343.365       19.424      861.492
06/26/2013  00:40:00      -87.021      -51.847       -4.829       13.109       14.820        7.577      171.856      219.621       57.405        0.537        0.022      101.296        2.646        0.001      343.338       19.379      861.508
06/26/2013  00:41:00      -69.256      -68.850       -0.016       29.507       30.039       27.598      870.669      902.330      761.629        0.604        0.127       97.657       20.402        0.044      343.254       19.235      861.521
06/26/2013  00:42:00      -73.217      -66.676        3.734       46.040       37.327       25.942     2119.695     1393.293      673.008        0.700        0.209       99.027       29.247        0.087      343.193       19.133      861.537
06/26/2013  00:43:00      -69.186      -76.359        1.625       42.805       37.233       26.808     1832.301     1386.308      718.659        0.728        0.197      103.041       23.550        0.052      343.182       19.114      861.530
06/26/2013  00:44:00       -2.033      -75.845        4.014       29.432       20.327       12.503      866.215      413.169      156.335        0.360        0.072       75.872        9.321        0.015      343.206       19.154      861.503
06/26/2013  00:45:00        3.185      -40.335       -3.468       24.420       26.470       21.790      596.319      700.641      474.809        0.171        0.089       40.460       17.051        0.178      343.269       19.261      861.475
06/26/2013  00:46:00        3.687      -29.866       -0.163       11.544       15.317       11.492      133.274      234.608      132.060        0.070        0.025       30.093        9.396        0.097      343.196       19.136      861.471
06/26/2013  00:47:00      -15.239      -96.868        9.215       33.336       18.971       16.894     1111.265      359.890      285.415        0.573        0.088       98.059       17.553        0.032      343.353       19.405      861.477
06/26/2013  00:48:00      -37.676      -76.240        4.051       28.994       29.229       17.577      840.669      854.355      308.937        0.463        0.100       85.041       12.077        0.020      343.241       19.214      861.489
06/26/2013  00:49:00      -32.588      -27.592        6.738       40.614       29.497       20.581     1649.499      870.098      423.594        0.241        0.147       42.700       14.643        0.118      343.192       19.131      861.493
06/26/2013  00:50:00      -39.898      -11.290        5.834       35.507       16.397       13.622     1260.723      268.852      185.564        0.173        0.086       41.464       14.792        0.127      343.075       18.929      861.492
06/26/2013  00:51:00      -95.401      -24.402       -3.942       15.485       21.609       13.652      239.779      466.959      186.380        0.530        0.045       98.473        5.373        0.003      343.006       18.815      861.497
06/26/2013  00:52:00      -93.032      -32.631       -0.036       19.214       18.652       12.688      369.168      347.892      160.983        0.530        0.044       98.588       11.396        0.013      342.830       18.513      861.491
06/26/2013  00:53:00     -108.631      -36.746       -7.174       28.504       24.798       16.141      812.453      614.932      260.535        0.744        0.084      114.678       11.931        0.011      342.811       18.481      861.482
06/26/2013  00:54:00      -68.127      -38.830        1.494       21.739       20.754       14.223      472.571      430.721      202.297        0.363        0.055       78.416       12.986        0.027      342.818       18.494      861.473
06/26/2013  00:55:00      -59.121      -32.308        1.692       33.306       23.921       16.466     1109.315      572.229      271.126        0.325        0.098       67.373       16.721        0.062      342.783       18.432      861.466
06/26/2013  00:56:00     -109.170      -48.650       -1.126       25.131       21.290       16.400      631.580      453.253      268.976        0.782        0.068      119.519       12.670        0.011      342.848       18.543      861.470
06/26/2013  00:57:00     -102.772      -53.498        7.209       28.035       15.793       16.979      785.951      249.406      288.291        0.740        0.066      115.863       15.227        0.017      342.793       18.450      861.463
06/26/2013  00:58:00     -143.855      -61.300       -0.084       37.483       30.748       20.073     1405.004      945.457      402.908        1.360        0.138      156.372       17.979        0.013      342.779       18.426      861.457
06/26/2013  00:59:00      -87.467      -16.451       11.614       52.790       38.022       22.526     2786.788     1445.650      507.407        0.640        0.237       89.000       25.659        0.083      342.628       18.170      861.444
06/26/2013  01:00:00      -78.131      -69.181       -1.427       48.205       45.457       29.449     2323.736     2066.376      867.242        0.807        0.263      104.358       30.683        0.086      342.697       18.288      861.445
06/26/2013  01:01:00      -59.181      -90.160        4.639       60.326       34.861       28.316     3639.274     1215.266      801.781        0.865        0.283      107.848       32.352        0.090      342.690       18.277      861.451
06/26/2013  01:02:00      -81.799      -55.646       -5.254       41.499       34.688       23.163     1722.168     1203.259      536.512        0.664        0.173       98.932       18.751        0.036      342.650       18.208      861.453
06/26/2013  01:03:00      -74.660      -51.818        9.075       51.113       37.273       25.558     2612.492     1389.296      653.213        0.650        0.233       90.880       22.633        0.062      342.656       18.219      861.451
06/26/2013  01:04:00      -53.678      -23.009       12.419       30.187       25.260       15.664      911.260      638.077      245.370        0.268        0.090       58.401       16.619        0.081      342.600       18.122      861.439
06/26/2013  01:05:00      -86.089      -15.415       -7.049       25.161       26.684       15.128      633.060      712.052      228.864        0.464        0.079       87.458       13.536        0.024      342.588       18.102      861.430
06/26/2013  01:06:00      -94.540      -51.792       -1.703       26.437       35.957       14.445      698.938     1292.893      208.655        0.691        0.110      107.797       11.372        0.011      342.603       18.130      861.425
06/26/2013  01:07:00      -18.005      -50.769       -6.888       66.955       26.487       17.347     4483.005      701.568      300.932        0.422        0.274       53.867       14.951        0.077      342.800       18.463      861.412
06/26/2013  01:08:00        5.880      -24.148       -8.317       15.029       19.482       18.858      225.884      379.549      355.639        0.082        0.048       24.854       10.662        0.184      342.675       18.248      861.405
06/26/2013  01:09:00      -32.612      -10.686       -0.561       22.075       18.655       12.457      487.314      348.014      155.170        0.108        0.050       34.318        8.123        0.056      342.645       18.198      861.396
06/26/2013  01:10:00     -100.209      -64.893       -5.619       43.331       48.461       20.921     1877.588     2348.486      437.694        0.947        0.233      119.385       11.675        0.010      342.710       18.309      861.396
06/26/2013  01:11:00      -82.854      -36.624       -4.872       35.119       23.967       15.620     1233.349      574.413      243.974        0.514        0.103       90.588       19.360        0.046      342.739       18.360      861.387
06/26/2013  01:12:00     -112.121        8.903        0.555       54.062       33.994       12.529     2922.658     1155.581      156.985        0.844        0.212      112.473       15.204        0.018      343.007       18.815      861.373
06/26/2013  01:13:00     -174.850       24.994       -9.740       30.532       40.521       20.863      932.207     1641.950      435.246        1.715        0.150      176.627       19.419        0.012      343.075       18.932      861.386
06/26/2013  01:14:00     -133.318      -71.978       -4.401       42.972       28.560       22.059     1846.622      815.684      486.607        1.306        0.157      151.507       18.669        0.015      342.821       18.499      861.418
06/26/2013  01:15:00      -51.345      -42.929       14.596       90.465       35.566       27.912     8183.947     1264.968      779.096        0.746        0.511       66.927       37.863        0.320      342.888       18.614      861.421
06/26/2013  01:16:00      -36.236      -48.328       -1.762       49.636       31.071       22.494     2463.775      965.426      506.002        0.379        0.197       60.404       20.702        0.117      342.924       18.674      861.402
06/26/2013  01:17:00      -39.908      -68.904       -0.005       52.304       26.232       21.723     2735.709      688.121      471.904        0.512        0.195       79.626        9.884        0.015      343.024       18.842      861.386
06/26/2013  01:18:00       -5.595        0.389        9.034       28.402       18.486       11.632      806.654      341.730      135.314        0.070        0.064        5.609        8.848        2.489      342.891       18.619      861.341
06/26/2013  01:19:00      -62.019       39.624       -5.006       23.651       20.047       10.090      559.373      401.899      101.815        0.325        0.053       73.596        5.729        0.006      342.910       18.650      861.323
06/26/2013  01:20:00      -95.346        4.787       -6.312       32.457       46.309       12.853     1053.445     2144.500      165.197        0.626        0.168       95.466        5.510        0.003      342.846       18.541      861.329
06/26/2013  01:21:00      -80.159      -49.687        2.973       37.134       21.068       16.705     1378.959      443.847      279.044        0.550        0.105       94.310       10.848        0.013      342.863       18.571      861.345
06/26/2013  01:22:00     -107.090      -63.533        0.898       53.111       45.611       25.157     2820.829     2080.330      632.851        1.052        0.277      124.518       22.000        0.031      343.260       19.245      861.354
06/26/2013  01:23:00      -43.821      -86.646       -1.018       39.472       35.197       23.502     1558.043     1238.848      552.338        0.639        0.167       97.097       19.616        0.041      343.235       19.205      861.340
06/26/2013  01:24:00      -51.554      -34.651       -6.340       40.068       24.753       20.288     1605.422      612.705      411.609        0.326        0.131       62.117        6.424        0.011      343.121       19.010      861.290
06/26/2013  01:25:00      -37.045       17.680       -1.090       19.063       39.373       18.838      363.409     1550.236      354.877        0.198        0.113       41.047       16.325        0.158      343.068       18.920      861.242
06/26/2013  01:26:00      -30.287      -19.855       -0.931       22.275       53.904       14.456      496.161     2905.658      208.963        0.246        0.181       36.215       18.077        0.249      342.950       18.718      861.222
06/26/2013  01:27:00     -104.756      -18.496      -20.010       24.321       24.622       18.132      591.517      606.248      328.764        0.662        0.076      106.376       12.910        0.015      343.235       19.204      861.242
06/26/2013  01:28:00      -79.106      -38.829        8.296       44.797       41.397       26.419     2006.816     1713.746      697.940        0.613        0.221       88.122       21.536        0.060      343.027       18.849      861.230
06/26/2013  01:29:00      -64.923      -32.762       -2.742       37.443       21.601       12.715     1401.961      466.593      161.660        0.366        0.102       72.721        9.617        0.017      342.921       18.670      861.210
06/26/2013  01:30:00      -35.595      -27.620        3.410       18.673       27.066       19.103      348.686      732.567      364.910        0.174        0.072       45.054       10.719        0.057      343.134       19.032      861.200
06/26/2013  01:31:00      -88.284       88.829      -13.868       74.566       43.117       18.870     5560.019     1859.033      356.096        1.182        0.389      125.239       17.965        0.021      342.932       18.687      861.152
06/26/2013  01:32:00     -134.645      -15.577      -10.257       45.802       48.302       27.289     2097.862     2333.050      744.715        1.183        0.259      135.543       25.138        0.034      343.013       18.826      861.163
06/26/2013  01:33:00     -130.153       -6.579      -10.068       43.194       35.039       28.639     1865.724     1227.704      820.204        1.050        0.196      130.319       27.035        0.043      342.952       18.722      861.181
06/26/2013  01:34:00      -36.488       -8.997        7.646       47.522       20.006       14.230     2258.314      400.257      202.486        0.217        0.143       37.581       17.774        0.224      343.060       18.907      861.181
06/26/2013  01:35:00      -12.534       43.000      -17.580       30.567       38.861       21.942      934.325     1510.174      481.457        0.262        0.146       44.790        9.034        0.041      342.905       18.642      861.141
06/26/2013  01:36:00       -0.835       94.492       -5.811       64.539       50.138       41.610     4165.298     2513.781     1731.368        0.869        0.421       94.496       38.207        0.163      342.872       18.585      861.107
06/26/2013  01:37:00       -2.817       86.888       -1.556       40.413       53.701       36.175     1633.172     2883.781     1308.664        0.669        0.291       86.933       25.707        0.087      342.873       18.588      861.071
06/26/2013  01:38:00       20.009       54.586        7.787       48.286       55.165       41.988     2331.545     3043.144     1762.998        0.529        0.357       58.137       39.555        0.463      342.839       18.529      861.064
06/26/2013  01:39:00      -30.923       39.384        2.248       20.719       35.462       29.260      429.279     1257.540      856.162        0.253        0.127       50.074       17.099        0.117      342.710       18.309      861.091
06/26/2013  01:40:00      -70.546      -19.709       -6.199       19.820       17.108       11.768      392.826      292.678      138.486        0.311        0.041       73.247        1.851        0.001      342.817       18.492      861.095
06/26/2013  01:41:00       -5.081      -11.051       -5.276       25.790       18.648       16.472      665.117      347.734      271.314        0.073        0.064       12.163       18.448        2.300      342.892       18.619      861.080
06/26/2013  01:42:00       44.295       54.866        6.031       18.925       32.235       23.084      358.137     1039.119      532.870        0.347        0.097       70.515       20.247        0.082      342.722       18.331      861.042
06/26/2013  01:43:00       47.775       63.800       -4.824       38.308       44.755       16.903     1467.520     2003.012      285.699        0.507        0.188       79.705       15.611        0.038      342.738       18.357      861.010
06/26/2013  01:44:00       24.136      -17.440        7.148       29.802       22.555       19.973      888.186      508.724      398.933        0.137        0.090       29.778       12.899        0.188      342.544       18.028      861.010
06/26/2013  01:45:00        7.279       51.842       15.197       51.171       49.695       32.829     2618.517     2469.632     1077.713        0.457        0.308       52.351       36.373        0.483      342.591       18.108      861.022
06/26/2013  01:46:00       12.826       74.603        1.355       39.915       60.590       38.768     1593.208     3671.121     1502.948        0.625        0.338       75.698       38.556        0.259      342.738       18.357      861.002
06/26/2013  01:47:00       11.075       47.729        5.583       36.676       32.352       20.628     1345.099     1046.635      425.530        0.262        0.141       48.997       14.294        0.085      342.675       18.251      860.992
06/26/2013  01:48:00      -37.277      124.186      -12.891       47.978       56.897       32.270     2301.846     3237.307     1041.378        1.178        0.329      129.660       26.949        0.043      342.934       18.691      860.960
06/26/2013  01:49:00      -23.091      146.576       14.690       77.696       88.574       58.538     6036.694     7845.391     3426.650        1.977        0.865      148.384       54.139        0.133      342.972       18.755      860.925
06/26/2013  01:50:00      -72.287      180.585      -13.842       58.169       63.591       36.679     3383.587     4043.792     1345.365        2.340        0.439      194.516       33.066        0.029      342.953       18.721      860.908
06/26/2013  01:51:00     -156.277      242.135      -49.186       86.403       69.683       45.352     7465.446     4855.760     2056.763        4.992        0.719      288.187       38.330        0.018      343.076       18.927      860.903
06/26/2013  01:52:00      -96.003      104.402      -23.406       63.037       94.309       42.065     3973.675     8894.252     1769.423        1.765        0.732      141.832       20.063        0.020      343.024       18.843      860.897
06/26/2013  01:53:00      -57.496      -22.729       11.732      108.000       53.958       39.447    11663.903     2911.512     1556.027        1.004        0.807       61.826       45.939        0.552      342.921       18.668      860.940
06/26/2013  01:54:00      -99.362     -100.283        0.952       80.632       61.828       41.483     6501.479     3822.734     1720.803        1.599        0.602      141.172       40.691        0.083      342.758       18.390      860.996
06/26/2013  01:55:00      -88.260      -42.696        7.110       45.610       35.737       24.633     2080.274     1277.133      606.798        0.681        0.198       98.045       22.299        0.052      342.693       18.281      861.009
06/26/2013  01:56:00      -35.410      -15.319        4.835       43.941       32.786       14.132     1930.840     1074.935      199.714        0.236        0.160       38.582       22.993        0.355      342.758       18.392      860.991
06/26/2013  01:57:00       28.750       40.675       31.140       34.025       22.089       27.935     1157.711      487.914      780.373        0.294        0.121       49.810       25.860        0.270      342.655       18.217      860.966
06/26/2013  01:58:00        6.203       32.103       51.381       35.183       33.407       27.035     1237.873     1116.046      730.866        0.340        0.154       32.697       22.689        0.482      342.634       18.181      860.971
06/26/2013  01:59:00      130.467       54.290       62.550       96.880       53.229       48.247     9385.816     2833.366     2327.761        1.921        0.727      141.312       44.921        0.101      342.808       18.476      860.959
06/26/2013  02:00:00        8.215       76.247      109.923       54.092       65.408       52.273     2925.935     4278.239     2732.444        1.395        0.497       76.688       42.580        0.308      342.883       18.604      860.932
06/26/2013  02:01:00       30.143        9.113       20.877       56.807       44.973       43.315     3226.992     2022.597     1876.148        0.428        0.356       31.490       20.968        0.443      342.883       18.603      860.960
06/26/2013  02:02:00      -73.597       11.001       -7.491       64.599       81.813       39.412     4172.984     6693.410     1553.340        0.900        0.621       74.414       44.778        0.362      342.771       18.415      860.936
06/26/2013  02:03:00     -133.936       40.513      -23.110       62.817       97.095       37.955     3945.933     9427.357     1440.613        1.746        0.741      139.929       40.913        0.085      342.932       18.686      860.944
06/26/2013  02:04:00      -81.119       62.947      -16.544       34.530       51.066       26.243     1192.331     2607.711      688.680        0.765        0.224      102.677       19.490        0.036      343.309       19.328      860.996
06/26/2013  02:05:00      -57.708      -46.784       10.672       71.728       79.273       42.375     5144.964     6284.135     1795.680        0.943        0.661       74.289       31.926        0.185      342.824       18.505      861.039
06/26/2013  02:06:00     -113.785      -36.158        2.811       62.358       39.556       32.590     3888.528     1564.694     1062.134        1.039        0.326      119.392       32.537        0.074      342.275       17.571      861.061
06/26/2013  02:07:00      -41.901      -18.699       -5.586       37.304       48.628       23.449     1391.553     2364.726      549.835        0.322        0.215       45.884       18.734        0.167      342.187       17.420      861.096
06/26/2013  02:08:00      -91.069      -55.545       -7.519       43.194       48.446       28.093     1865.764     2346.978      789.212        0.822        0.250      106.672       21.717        0.041      342.136       17.333      861.115
06/26/2013  02:09:00      -49.881      -39.762        0.216       39.280       29.721       16.799     1542.943      883.335      282.206        0.339        0.135       63.790       15.538        0.059      342.141       17.342      861.131
06/26/2013  02:10:00      -29.517      -19.219       -2.043       22.499       23.792       15.221      506.202      566.039      231.682        0.127        0.065       35.223       14.876        0.178      342.203       17.447      861.141
06/26/2013  02:11:00      -15.831        5.022       -2.702       11.764       12.023        7.862      138.394      144.544       61.810        0.031        0.017       16.608        6.225        0.141      342.215       17.467      861.131
06/26/2013  02:12:00       34.420        8.090        2.382       27.448       20.074       20.730      753.404      402.973      429.731        0.142        0.079       35.358       16.592        0.220      342.399       17.781      861.119
06/26/2013  02:13:00       34.167        5.195       15.177       18.929       19.147       16.845      358.289      366.593      283.749        0.122        0.050       34.559       13.292        0.148      342.350       17.697      861.110
06/26/2013  02:14:00       48.459       21.660       35.963       26.061       23.100       19.113      679.157      533.600      365.299        0.284        0.079       53.079       16.733        0.099      342.489       17.934      861.107
06/26/2013  02:15:00       31.075       22.785       24.125       41.443       23.317       26.888     1717.503      543.666      722.953        0.252        0.149       38.534       21.703        0.317      342.610       18.139      861.121
06/26/2013  02:16:00     -136.492      -48.611      -11.073       33.003       27.446       18.566     1089.187      753.296      344.700        1.165        0.109      144.890        8.305        0.003      342.326       17.657      861.132
06/26/2013  02:17:00      -23.936      -22.025       11.617       46.274       21.708       21.810     2141.326      471.223      475.658        0.214        0.154       32.528       23.811        0.536      342.158       17.372      861.134
06/26/2013  02:18:00      -57.566        3.960       -7.647        9.483       14.816        9.830       89.921      219.521       96.622        0.190        0.020       57.702        5.503        0.009      342.097       17.267      861.120
06/26/2013  02:19:00      -91.594      -25.601       -2.340       31.973       36.803       21.395     1022.285     1354.462      457.763        0.594        0.142       95.105       17.972        0.036      342.240       17.510      861.122
06/26/2013  02:20:00     -126.543      -80.278       -0.561       45.302       42.850       26.952     2052.309     1836.129      726.407        1.354        0.231      149.859       23.700        0.025      342.316       17.640      861.143
06/26/2013  02:21:00     -107.042      -56.661        1.699       47.154       47.362       24.842     2223.519     2243.127      617.111        0.988        0.254      121.113       22.826        0.036      342.271       17.563      861.177
06/26/2013  02:22:00      -71.998      -63.988        1.408       43.183       38.206       24.781     1864.759     1459.735      614.122        0.661        0.197       96.323       22.765        0.056      342.318       17.645      861.194
06/26/2013  02:23:00     -110.658      -81.036       -7.714       36.865       25.491       23.342     1359.048      649.784      544.855        1.071        0.128      137.157       21.135        0.024      342.278       17.575      861.189
06/26/2013  02:24:00     -119.255      -64.697       -2.557       55.600       33.824       26.809     3091.341     1144.032      718.722        1.168        0.248      135.674       30.861        0.052      342.268       17.559      861.164
06/26/2013  02:25:00      -85.518      -54.691        5.243       46.655       31.372       24.980     2176.677      984.205      623.997        0.706        0.189      101.511       21.262        0.044      342.182       17.412      861.164
06/26/2013  02:26:00      -84.673      -69.353       -2.020       56.674       54.827       26.846     3211.903     3005.987      720.689        0.946        0.347      109.451       28.058        0.066      342.286       17.590      861.163
06/26/2013  02:27:00      -61.804      -21.063       -1.926       20.206       18.859       11.576      408.273      355.667      134.007        0.258        0.045       65.295        9.830        0.023      342.311       17.631      861.140
06/26/2013  02:28:00      -88.274      -51.828       -5.580       19.293       19.838       10.793      372.236      393.551      116.499        0.570        0.044      102.364        6.612        0.004      342.318       17.644      861.123
06/26/2013  02:29:00      -55.625      -54.046       -0.080       30.549       25.255       14.839      933.241      637.835      220.184        0.390        0.090       77.557       15.497        0.040      342.303       17.619      861.104
06/26/2013  02:30:00      -43.902      -83.514        8.049       30.630       46.525       18.608      938.185     2164.570      346.261        0.621        0.172       94.350       12.682        0.018      342.633       18.177      861.109
06/26/2013  02:31:00      -14.870      -98.620      -11.589       50.244       26.796       18.521     2524.435      718.029      343.045        0.683        0.179       99.735        5.831        0.003      342.626       18.167      861.139
06/26/2013  02:32:00        0.769       36.912       47.024       21.161       47.063       49.021      447.778     2214.969     2403.054        0.432        0.253       36.920       44.324        1.441      342.265       17.553      861.124
06/26/2013  02:33:00       17.325        9.197       60.909       33.071       54.932       41.042     1093.717     3017.500     1684.451        0.494        0.290       19.615       27.672        1.990      342.306       17.624      861.103
06/26/2013  02:34:00       18.263       50.972       82.316       34.594       49.443       34.226     1196.752     2444.594     1171.450        0.726        0.241       54.145       20.367        0.141      342.424       17.824      861.119
06/26/2013  02:35:00      -18.841      -55.122      -13.069       56.927       40.743       23.361     3240.671     1659.961      545.741        0.450        0.272       58.253       21.748        0.139      342.669       18.241      861.124
06/26/2013  02:36:00       -7.583      -23.637      -10.808       22.942       24.288       19.804      526.315      589.906      392.190        0.112        0.075       24.823       15.178        0.374      342.744       18.368      861.122
06/26/2013  02:37:00      -81.320      -29.998      -10.895       47.632       26.923       16.650     2268.764      724.829      277.236        0.545        0.164       86.676       15.356        0.031      342.647       18.203      861.152
06/26/2013  02:38:00      -94.917      -14.653       -4.301       33.008       36.981       16.703     1089.547     1367.579      278.997        0.599        0.137       96.042       15.540        0.026      342.674       18.249      861.122
06/26/2013  02:39:00     -201.048      -73.221       -2.634       66.989       56.418       34.063     4487.512     3182.983     1160.271        2.731        0.442      213.967       24.984        0.014      342.880       18.595      861.100
06/26/2013  02:40:00     -195.288      -54.050       10.690       82.738       92.303       53.854     6845.619     8519.879     2900.264        2.972        0.913      202.630       55.637        0.075      342.760       18.391      861.083
06/26/2013  02:41:00     -113.087      -36.323       10.518       97.339       60.843       36.223     9474.872     3701.902     1312.071        1.435        0.724      118.777       48.650        0.168      342.605       18.130      861.036
06/26/2013  02:42:00     -153.838      -57.692        9.454       94.815       65.077       48.789     8989.885     4235.048     2380.348        2.134        0.780      164.300       50.539        0.095      343.027       18.848      861.027
06/26/2013  02:43:00     -147.235      -41.320        6.198      101.896       58.178       36.700    10382.769     3384.685     1346.914        1.927        0.756      152.923       40.828        0.071      343.056       18.897      861.029
06/26/2013  02:44:00      -24.688      -66.362        6.943       63.615       63.229       32.969     4046.906     3997.929     1086.951        0.709        0.457       70.805       24.769        0.122      343.042       18.874      861.046
06/26/2013  02:45:00       37.228     -101.407      -11.950       72.324       68.506       39.128     5230.760     4693.015     1531.003        1.163        0.573      108.025       37.421        0.120      342.819       18.496      861.077
06/26/2013  02:46:00      -33.880      -50.797        1.922       67.102       43.223       33.321     4502.728     1868.269     1110.286        0.561        0.374       61.059       24.886        0.166      342.870       18.582      861.091
06/26/2013  02:47:00      -53.613      -87.909       -3.874       35.904       48.093       19.648     1289.101     2312.953      386.059        0.730        0.199      102.967       17.406        0.029      342.902       18.636      861.086
06/26/2013  02:48:00     -140.696      -96.584      -12.909       46.289       35.667       23.969     2142.654     1272.167      574.528        1.664        0.199      170.657       25.495        0.022      342.832       18.517      861.086
06/26/2013  02:49:00     -144.455      -79.069       -2.511       44.251       29.569       25.547     1958.175      874.346      652.669        1.530        0.174      164.679       20.075        0.015      342.734       18.348      861.087
06/26/2013  02:50:00     -149.634      -47.786       -3.575       33.867       33.238       19.528     1146.995     1104.763      381.351        1.366        0.132      157.079        8.010        0.003      342.705       18.301      861.090
06/26/2013  02:51:00     -102.104      -38.868       -7.325       57.682       30.631       25.603     3327.225      938.275      655.531        0.845        0.246      109.252       26.923        0.061      342.549       18.037      861.105
06/26/2013  02:52:00      -73.756      -22.672       -1.901       66.955       31.241       26.103     4482.964      975.987      681.389        0.605        0.307       77.162       32.450        0.177      342.446       17.861      861.105
06/26/2013  02:53:00      -29.780      -67.378        2.986       21.952       27.817       21.433      481.889      773.775      459.387        0.357        0.086       73.666       17.446        0.056      342.589       18.103      861.109
06/26/2013  02:54:00      -63.112      -60.616       -1.941       24.327       23.898       13.202      591.825      571.095      174.295        0.450        0.067       87.507       12.647        0.021      342.601       18.124      861.109
06/26/2013  02:55:00      -80.353      -86.679       -4.505       30.086       28.020       17.992      905.163      785.137      323.727        0.800        0.101      118.194       16.507        0.020      342.520       17.987      861.117
06/26/2013  02:56:00     -101.834      -66.390       -4.727       29.533       23.828       18.803      872.180      567.754      353.542        0.830        0.090      121.564       13.774        0.013      342.603       18.128      861.117
06/26/2013  02:57:00      -71.214      -45.033       -3.486       31.677       39.773       21.940     1003.447     1581.898      481.351        0.509        0.153       84.258       14.997        0.032      342.560       18.053      861.114
06/26/2013  02:58:00      -48.022      -49.415       -2.346       33.770       28.089       13.624     1140.422      789.016      185.612        0.343        0.106       68.905       11.717        0.029      342.562       18.057      861.100
06/26/2013  02:59:00       -0.831      -16.019        8.182       28.145       15.049       14.577      792.114      226.485      212.483        0.078        0.062       16.041        8.639        0.290      342.529       18.002      861.113
06/26/2013  03:00:00      -37.984      -24.464        0.370       33.373       18.018       18.126     1113.767      324.631      328.569        0.190        0.088       45.180       15.220        0.113      342.650       18.209      861.115
06/26/2013  03:01:00      -72.779      -17.185       -6.910       16.548       14.167        9.135      273.841      200.706       83.453        0.310        0.028       74.781        8.730        0.014      342.501       17.955      861.118
06/26/2013  03:02:00     -106.166      -32.812       -7.127       16.660       19.040       11.211      277.551      362.504      125.688        0.658        0.038      111.121        7.770        0.005      342.393       17.770      861.124
06/26/2013  03:03:00     -105.466      -20.802       -0.930       41.414       21.433       14.404     1715.085      459.357      207.476        0.697        0.119      107.498       13.753        0.016      342.329       17.662      861.140
06/26/2013  03:04:00      -94.136       15.611       -4.515       26.432       22.201       15.811      698.677      492.889      249.993        0.528        0.072       95.422       10.211        0.011      342.654       18.214      861.160
06/26/2013  03:05:00      -79.808       -9.480       -8.655       20.206       14.875        7.490      408.297      221.273       56.103        0.361        0.034       80.369        6.489        0.007      343.137       19.037      861.155
06/26/2013  03:06:00      -63.265       -4.578       -5.452       28.334       22.907       12.816      802.803      524.726      164.256        0.277        0.075       63.431       12.916        0.041      342.673       18.247      861.137
06/26/2013  03:07:00      -51.369       37.012        1.754       29.765       20.213       17.708      885.934      408.549      313.572        0.281        0.080       63.314       15.646        0.061      342.749       18.376      861.113
06/26/2013  03:08:00      -43.415       39.057       -3.576       22.380       25.225       17.233      500.852      636.305      296.992        0.243        0.072       58.398       12.245        0.044      342.878       18.596      861.098
06/26/2013  03:09:00      -34.368       -1.318        5.955       23.222       28.234       14.755      539.278      797.166      217.720        0.139        0.078       34.394       15.244        0.196      343.088       18.953      861.108
06/26/2013  03:10:00      -16.920      -35.532        3.066       14.326       19.912       11.730      205.235      396.476      137.595        0.115        0.037       39.355       11.406        0.084      342.731       18.345      861.131
06/26/2013  03:11:00      -22.865      -42.520       -4.579       17.988       10.871        6.087      323.559      118.174       37.056        0.142        0.024       48.278        5.305        0.012      342.241       17.513      861.151
06/26/2013  03:12:00      -58.058      -37.617       -4.796       20.080       15.316       13.506      403.211      234.567      182.414        0.281        0.041       69.179       10.255        0.022      342.311       17.632      861.161
06/26/2013  03:13:00      -29.331      -18.764        4.252       12.014       16.157       12.411      144.328      261.061      154.031        0.089        0.028       34.819        5.092        0.021      342.326       17.657      861.154
06/26/2013  03:14:00      -58.429       -5.975       -2.910       11.896        7.437        8.597      141.525       55.308       73.902        0.186        0.014       58.733        7.278        0.015      342.450       17.869      861.150
06/26/2013  03:15:00      -75.894      -19.081      -11.656        8.388       10.722        7.444       70.353      114.964       55.419        0.325        0.012       78.256        4.263        0.003      342.785       18.440      861.147
06/26/2013  03:16:00      -80.992      -28.649      -11.035        6.197        8.326        7.813       38.399       69.318       61.046        0.384        0.008       85.910        3.157        0.001      342.710       18.308      861.167
06/26/2013  03:17:00      -65.853      -31.004      -11.181        9.569        9.725        7.755       91.568       94.585       60.144        0.283        0.012       72.786        3.580        0.002      342.562       18.059      861.180
06/26/2013  03:18:00      -62.462      -33.129        1.037       17.384       12.109       10.678      302.217      146.617      114.017        0.278        0.028       70.703       10.353        0.021      342.383       17.753      861.198
06/26/2013  03:19:00      -32.344      -34.875       -2.579       19.631       14.881        9.790      385.381      221.453       95.842        0.149        0.035       47.565        6.005        0.016      342.250       17.528      861.200
06/26/2013  03:20:00      -41.561      -29.732        0.729       23.198       14.059        8.710      538.128      197.659       75.871        0.171        0.041       51.101       10.810        0.045      342.309       17.628      861.193
06/26/2013  03:21:00      -48.071       -7.051       -0.431       29.701        9.896       10.991      882.140       97.940      120.804        0.173        0.055       48.585       15.641        0.104      342.337       17.676      861.183
06/26/2013  03:22:00      -89.216      -40.180       -4.857       14.163       12.772        7.834      200.576      163.122       61.378        0.501        0.021       97.847        4.236        0.002      342.378       17.746      861.174
06/26/2013  03:23:00      -48.931      -23.313        4.787       35.908       35.354       17.116     1289.383     1249.935      292.958        0.290        0.142       54.201       12.726        0.055      342.206       17.453      861.159
06/26/2013  03:24:00       -7.146       22.803       11.591       25.308       27.207       10.453      640.470      740.232      109.256        0.110        0.074       23.897       10.719        0.201      342.251       17.530      861.145
06/26/2013  03:25:00       72.047       57.064      -10.957       24.083       26.609       19.292      580.006      708.043      372.192        0.511        0.083       91.908       14.132        0.024      341.834       16.822      861.130
06/26/2013  03:26:00      132.311       70.837        9.784       31.782       33.253       29.327     1010.111     1105.729      860.065        1.280        0.149      150.080       18.691        0.016      341.846       16.842      861.119
06/26/2013  03:27:00       51.872       59.050        1.391       44.087       25.965       19.413     1943.671      674.185      376.869        0.459        0.150       78.598       16.344        0.043      341.797       16.761      861.140
06/26/2013  03:28:00       69.074       -8.616       12.051       41.852       82.249       33.759     1751.610     6764.854     1139.670        0.732        0.483       69.609       28.545        0.168      342.172       17.395      861.169
06/26/2013  03:29:00      -19.321      -41.546        0.631       37.498       45.007       31.226     1406.094     2025.668      975.075        0.325        0.220       45.819       23.253        0.258      343.332       19.367      861.189
06/26/2013  03:30:00      -29.772        7.628       19.029       19.211       29.814       19.731      369.049      888.896      389.297        0.148        0.082       30.733       16.167        0.277      343.270       19.262      861.183
06/26/2013  03:31:00       36.516       39.855        4.421       34.313       18.234       15.629     1177.404      332.468      244.269        0.235        0.088       54.054       10.794        0.040      342.824       18.504      861.170
06/26/2013  03:32:00       25.584       -9.031       18.132       19.734       39.134       22.510      389.440     1531.474      506.693        0.175        0.121       27.131       21.403        0.622      342.293       17.602      861.155
06/26/2013  03:33:00       67.227       28.510       19.955       33.611       20.878       25.346     1129.697      435.899      642.418        0.397        0.110       73.023       18.783        0.066      342.078       17.237      861.136
06/26/2013  03:34:00       47.491        7.313       13.391       24.989       16.571       15.332      624.448      274.584      235.079        0.181        0.057       48.051       11.558        0.058      342.065       17.213      861.126
06/26/2013  03:35:00       59.410       18.573        9.323       26.627       20.165       18.127      708.981      406.630      328.596        0.270        0.072       62.245        7.693        0.015      341.915       16.958      861.127
06/26/2013  03:36:00        1.017       17.864       25.409       15.148       17.745       11.937      229.449      314.890      142.495        0.083        0.034       17.893        8.764        0.240      341.893       16.922      861.134
06/26/2013  03:37:00       -5.846       -2.959       10.129        7.137       11.921       12.605       50.930      142.109      158.887        0.025        0.018        6.552        7.661        1.367      341.913       16.955      861.144
06/26/2013  03:38:00       45.025       35.840       16.997       20.948       11.154       12.775      438.824      124.409      163.195        0.216        0.036       57.548       10.402        0.033      341.926       16.977      861.134
06/26/2013  03:39:00       37.741       25.815       19.788       31.056       22.701       21.827      964.460      515.328      476.439        0.222        0.098       45.725       13.070        0.082      341.935       16.993      861.122
06/26/2013  03:40:00        5.390       27.053       39.737       19.521       16.776       14.934      381.056      281.430      223.029        0.161        0.044       27.584       11.414        0.171      341.876       16.892      861.111
06/26/2013  03:41:00       13.901       29.871       24.056       15.925       19.361       17.101      253.593      374.854      292.429        0.129        0.046       32.947       13.018        0.156      341.893       16.922      861.122
06/26/2013  03:42:00      -11.660      -15.708        1.688       13.855       11.555        6.346      191.964      133.510       40.273        0.038        0.018       19.563        8.136        0.173      342.051       17.190      861.147
06/26/2013  03:43:00        5.176        7.031        1.473       12.886       15.675        6.824      166.055      245.714       46.568        0.027        0.023        8.731        8.412        0.928      342.168       17.390      861.168
06/26/2013  03:44:00       15.752       22.436       -0.214        8.786       13.495        6.039       77.195      182.107       36.471        0.052        0.015       27.413        5.413        0.039      342.308       17.626      861.180
06/26/2013  03:45:00       14.718       24.415       -1.665       16.602       16.403       10.015      275.633      269.057      100.298        0.073        0.032       28.509       12.341        0.187      342.389       17.766      861.203
06/26/2013  03:46:00       11.445       35.271       -8.287       15.064       11.472        7.806      226.923      131.610       60.934        0.093        0.021       37.081        2.709        0.005      342.674       18.248      861.228
06/26/2013  03:47:00      -36.832       44.978       -7.425       14.819       11.542        8.883      219.607      133.229       78.914        0.193        0.022       58.134        6.934        0.014      342.703       18.299      861.254
06/26/2013  03:48:00      -55.973       54.443      -15.919       11.501       13.446        5.985      132.266      180.798       35.823        0.335        0.017       78.084        2.992        0.001      342.753       18.383      861.266
06/26/2013  03:49:00      -63.313       56.047      -18.265       11.676        6.749        5.266      136.318       45.551       27.729        0.385        0.010       84.556        2.797        0.001      342.974       18.758      861.265
06/26/2013  03:50:00      -79.814       42.325      -14.873        8.560        7.509        7.211       73.279       56.388       52.005        0.428        0.009       90.342        3.197        0.001      342.961       18.736      861.278
06/26/2013  03:51:00      -77.647       22.012      -13.778       13.316       15.684       10.969      177.322      245.993      120.316        0.362        0.027       80.707        4.237        0.003      342.432       17.837      861.301
06/26/2013  03:52:00     -164.107       54.932       -9.193       31.195       17.357       11.649      973.124      301.277      135.690        1.572        0.071      173.056        4.131        0.001      343.113       18.996      861.319
06/26/2013  03:53:00     -127.117       65.069      -14.653       44.609       36.624       24.622     1989.921     1341.331      606.252        1.227        0.197      142.803       14.288        0.010      343.475       19.613      861.341
06/26/2013  03:54:00      -59.823       32.496      -13.147       25.662       44.372       14.240      658.553     1968.880      202.788        0.382        0.142       68.079       13.849        0.041      343.426       19.530      861.330
06/26/2013  03:55:00       37.015       48.678        4.717       34.459       22.751       17.036     1187.453      517.614      290.221        0.288        0.100       61.153       16.445        0.072      343.421       19.521      861.306
06/26/2013  03:56:00      -17.702       39.885       -5.621       25.127       17.386       17.751      631.364      302.290      315.110        0.159        0.062       43.637       10.171        0.054      343.349       19.397      861.298
06/26/2013  03:57:00       25.259        7.279       -6.235       25.153       21.300       15.884      632.654      453.670      252.313        0.103        0.067       26.287        9.953        0.143      343.380       19.452      861.297
06/26/2013  03:58:00        4.639       -8.126        7.964       11.306       11.000       10.489      127.830      120.999      110.029        0.025        0.018        9.357        5.418        0.335      343.276       19.273      861.313
06/26/2013  03:59:00        7.244       -2.749       11.642       22.093       18.038       15.142      488.099      325.371      229.281        0.062        0.052        7.748       15.123        3.810      343.183       19.115      861.318
06/26/2013  04:00:00      -15.722       37.093      -14.473       16.654       24.324        9.676      277.363      591.639       93.629        0.140        0.048       40.288        7.114        0.031      343.221       19.181      861.319
06/26/2013  04:01:00      -14.685       39.774       -4.911        9.198       17.025        6.695       84.610      289.842       44.817        0.112        0.021       42.399        5.610        0.018      343.368       19.432      861.327
06/26/2013  04:02:00       -7.464        8.125       -3.563        6.910        7.317        4.577       47.750       53.543       20.949        0.013        0.006       11.033        2.906        0.069      343.429       19.534      861.354
06/26/2013  04:03:00      -20.539      -16.972       -5.724        9.726       10.208        5.121       94.598      104.196       26.222        0.048        0.011       26.644        6.116        0.053      343.416       19.516      861.376
06/26/2013  04:04:00      -39.908      -43.425       -7.834       15.822       11.603        9.050      250.323      134.626       81.898        0.200        0.023       58.978        6.228        0.011      343.135       19.034      861.397
06/26/2013  04:05:00      -89.656      -71.098       -6.756       30.757       21.756       14.920      946.014      473.334      222.616        0.739        0.082      114.425       17.535        0.023      343.127       19.020      861.409
06/26/2013  04:06:00     -109.257      -57.449       -7.033       17.283       14.716        9.697      298.715      216.570       94.022        0.795        0.030      123.440        8.770        0.005      343.280       19.279      861.417
06/26/2013  04:07:00      -71.654      -50.558       -1.870       30.492       23.153       20.047      929.741      536.056      401.877        0.478        0.093       87.695       19.479        0.049      342.887       18.610      861.423
06/26/2013  04:08:00      -54.725      -41.079        0.887       34.190       22.347       14.891     1168.939      499.410      221.743        0.329        0.095       68.427       11.145        0.027      342.873       18.589      861.419
06/26/2013  04:09:00      -80.059      -52.160       -1.867       17.782       18.686       10.694      316.200      349.149      114.354        0.496        0.039       95.551        9.209        0.009      343.079       18.938      861.421
06/26/2013  04:10:00      -75.460      -45.311        8.542       51.074       33.060       21.301     2608.543     1092.975      453.750        0.599        0.208       88.018       24.382        0.077      342.882       18.603      861.430
06/26/2013  04:11:00     -118.281      -58.495        0.071       45.391       28.466       19.960     2060.340      810.322      398.410        1.034        0.163      131.955       19.165        0.021      343.000       18.804      861.442
06/26/2013  04:12:00      -34.520       -2.363        1.082       28.547       17.679       18.617      814.920      312.536      346.610        0.134        0.074       34.600       17.593        0.259      342.815       18.490      861.451
06/26/2013  04:13:00      -29.846      -10.530        2.509       17.021       22.260       11.593      289.728      495.526      134.392        0.096        0.046       31.649       10.947        0.120      342.866       18.575      861.451
06/26/2013  04:14:00      -30.583        1.207        1.218       12.949        8.773        6.202      167.673       76.958       38.468        0.061        0.014       30.607        3.820        0.016      343.069       18.922      861.448
06/26/2013  04:15:00      -34.161       -0.259        0.354       20.748        9.862        7.366      430.470       97.267       54.251        0.087        0.029       34.162        8.701        0.065      342.949       18.719      861.443
06/26/2013  04:16:00       -2.316       21.654        6.209       17.326       17.457        9.549      300.174      304.741       91.175        0.060        0.035       21.777       10.631        0.238      343.142       19.045      861.454
06/26/2013  04:17:00       41.480      -36.383      -11.756       17.266       41.383       17.501      298.132     1712.534      306.298        0.275        0.116       55.175       24.951        0.204      342.620       18.158      861.484
06/26/2013  04:18:00      -18.120      -17.870       -0.087       26.030       24.105       14.657      677.575      581.074      214.825        0.106        0.074       25.449       17.994        0.500      342.417       17.812      861.501
06/26/2013  04:19:00       19.078        3.281       17.023       11.632       10.097       14.607      135.305      101.946      213.370        0.056        0.023       19.358        9.122        0.222      342.273       17.568      861.480
06/26/2013  04:20:00       11.976        4.162       27.771       19.841       14.459       13.404      393.669      209.049      179.658        0.086        0.039       12.678       10.326        0.663      342.133       17.330      861.447
06/26/2013  04:21:00       31.019        7.679        2.617       13.317        6.770       13.765      177.334       45.839      189.487        0.072        0.021       31.956        7.547        0.056      342.649       18.206      861.444
06/26/2013  04:22:00       62.662       26.023        9.189       23.470       17.999       17.333      550.840      323.960      300.448        0.293        0.059       67.851       12.164        0.032      342.038       17.168      861.458
06/26/2013  04:23:00       64.507       79.865       84.320       55.628       41.331       44.838     3094.456     1708.258     2010.412        1.223        0.341      102.663       32.400        0.100      341.678       16.557      861.469
06/26/2013  04:24:00       19.673       82.308      103.877       39.433       55.394       35.882     1554.941     3068.457     1287.516        1.193        0.296       84.627       37.780        0.199      341.573       16.380      861.469
06/26/2013  04:25:00       12.811       -3.200       48.088       25.933       35.849       23.172      672.539     1285.183      536.953        0.249        0.125       13.205       20.092        2.315      341.550       16.339      861.467
06/26/2013  04:26:00       20.606      -17.073       39.916       21.409       42.381       17.159      458.338     1796.136      294.430        0.243        0.127       26.760       19.996        0.558      341.544       16.329      861.472
06/26/2013  04:27:00       19.759       34.458       50.666       35.044       33.999       29.026     1228.090     1155.930      842.485        0.369        0.161       39.721       29.386        0.547      341.627       16.470      861.485
06/26/2013  04:28:00       37.370       27.714       26.224       32.092       25.207       17.077     1029.925      635.370      291.616        0.240        0.098       46.525       10.379        0.050      341.562       16.361      861.489
06/26/2013  04:29:00       49.968       34.107       18.058       17.733       21.712       17.321      314.451      471.430      300.021        0.254        0.054       60.498       10.912        0.033      341.431       16.137      861.486
06/26/2013  04:30:00       35.262       15.527       -6.622       35.869       14.335       12.865     1286.616      205.493      165.503        0.159        0.083       38.529       15.075        0.153      341.540       16.324      861.462
06/26/2013  04:31:00      -24.334      -25.250        6.115       15.549       20.055       12.046      241.758      402.204      145.103        0.103        0.039       35.068        8.075        0.053      341.482       16.223      861.460
06/26/2013  04:32:00      -56.035      -11.537       -5.235       13.563       13.183        7.447      183.955      173.786       55.451        0.186        0.021       57.210        3.947        0.005      341.329       15.966      861.471
06/26/2013  04:33:00      -80.726      -29.315      -14.787       11.936        8.996        7.408      142.459       80.921       54.877        0.394        0.014       85.884        4.843        0.003      341.497       16.250      861.506
06/26/2013  04:34:00      -98.851      -44.556      -10.885       17.467       17.956       10.721      305.091      322.422      114.933        0.631        0.037      108.429        7.729        0.005      341.542       16.326      861.533
06/26/2013  04:35:00     -118.467      -50.309       -6.094       24.797       18.614       14.386      614.891      346.466      206.962        0.889        0.058      128.707        9.632        0.006      341.560       16.358      861.545
06/26/2013  04:36:00      -98.456      -47.390       -0.603       29.146       17.053       15.928      849.460      290.815      253.688        0.667        0.070      109.268       15.605        0.020      341.695       16.587      861.547
06/26/2013  04:37:00      -67.244      -22.386       -7.218       20.259       13.176        8.421      410.445      173.595       70.914        0.286        0.033       70.872        7.329        0.011      341.866       16.877      861.554
06/26/2013  04:38:00        4.537        2.165       -3.615       20.529       21.493       12.891      421.438      461.939      166.176        0.054        0.052        5.027        6.550        1.697      342.074       17.231      861.569
06/26/2013  04:39:00        2.996        6.098       12.036       18.246       28.015       17.283      332.919      784.834      298.692        0.080        0.071        6.794       16.654        6.009      341.979       17.068      861.576
06/26/2013  04:40:00       31.723       29.569       15.108       16.833       18.362       12.077      283.357      337.156      145.862        0.144        0.038       43.367        7.891        0.033      341.994       17.094      861.585
06/26/2013  04:41:00       80.448       44.534       24.306       30.511       19.926       18.100      930.902      397.040      327.613        0.535        0.083       91.951       13.541        0.022      342.145       17.349      861.587
06/26/2013  04:42:00       28.948       60.929       48.672       27.154       19.195       24.793      737.319      368.457      614.713        0.432        0.086       67.456       20.027        0.088      341.979       17.068      861.601
06/26/2013  04:43:00       22.959       55.613       57.102       20.919       20.198       16.079      437.590      407.966      258.545        0.399        0.055       60.166       12.863        0.046      341.840       16.831      861.618
06/26/2013  04:44:00       39.900       52.365       50.446       32.236       28.390       24.095     1039.177      805.991      580.560        0.465        0.121       65.834       16.757        0.065      341.976       17.062      861.623
06/26/2013  04:45:00       37.322       58.321       48.826       23.236       20.808       18.179      539.933      432.961      330.463        0.424        0.065       69.241       10.547        0.023      341.955       17.026      861.621
06/26/2013  04:46:00       36.094       43.061       25.519       22.965       17.004       18.805      527.407      289.145      353.640        0.249        0.059       56.188       17.205        0.094      342.011       17.121      861.622
06/26/2013  04:47:00       22.669       23.490       41.261       24.570       22.163       11.820      603.692      491.195      139.702        0.200        0.062       32.645       14.972        0.210      341.951       17.020      861.640
06/26/2013  04:48:00       45.320       24.693       23.803       18.884       13.218       15.178      356.587      174.711      230.373        0.200        0.038       51.611        9.867        0.037      341.932       16.988      861.646
06/26/2013  04:49:00       30.735       18.319       11.506       16.814       13.321       13.165      282.702      177.452      173.320        0.102        0.032       35.780       10.460        0.085      341.891       16.918      861.649
06/26/2013  04:50:00       29.072        8.620       18.443       13.933       13.500       10.944      194.137      182.247      119.769        0.088        0.025       30.323        8.058        0.071      341.903       16.939      861.662
06/26/2013  04:51:00        4.924        6.959        7.506        9.276        7.408        7.857       86.041       54.873       61.730        0.017        0.010        8.525        7.028        0.680      341.876       16.894      861.678
06/26/2013  04:52:00       -9.449      -15.233        0.695       10.054        7.335        6.875      101.088       53.804       47.262        0.026        0.010       17.926        5.520        0.095      341.868       16.879      861.679
06/26/2013  04:53:00      -76.396       -4.445       -9.012       23.510       16.351        7.438      552.741      267.353       55.323        0.341        0.044       76.525        7.028        0.008      341.559       16.355      861.686
06/26/2013  04:54:00     -140.445       10.168      -14.828       45.784       40.567       25.846     2096.179     1645.693      668.022        1.223        0.220      140.813       17.894        0.016      341.362       16.022      861.693
06/26/2013  04:55:00     -147.742      -13.268      -19.660       38.104       35.106       23.995     1451.880     1232.407      575.767        1.282        0.163      148.337       23.655        0.025      341.510       16.271      861.687
06/26/2013  04:56:00     -112.787       -3.827      -10.387       26.777       19.877       13.879      716.990      395.087      192.621        0.707        0.065      112.852       11.844        0.011      341.616       16.453      861.681
06/26/2013  04:57:00      -47.625      -32.251      -10.937       29.995       20.688       13.689      899.685      427.989      187.385        0.247        0.076       57.518       15.894        0.076      341.694       16.583      861.688
06/26/2013  04:58:00      -18.286      -41.678        0.495       18.966       26.206       17.538      359.726      686.772      307.570        0.171        0.068       45.513       14.912        0.107      341.676       16.553      861.687
06/26/2013  04:59:00      -67.994      -27.335       -3.331       27.587       21.940       14.556      761.055      481.363      211.886        0.342        0.073       73.283       11.846        0.026      341.728       16.641      861.704
06/26/2013  05:00:00      -63.035      -29.878       -9.543       10.271        8.698        6.270      105.489       75.647       39.310        0.259        0.011       69.758        5.772        0.007      341.721       16.631      861.712
06/26/2013  05:01:00      -71.862        0.164       -9.111        9.356       10.876        5.903       87.529      118.287       34.850        0.274        0.012       71.862        5.098        0.005      342.239       17.510      861.699
06/26/2013  05:02:00      -25.300       23.134       -7.975       18.557       21.174        7.952      344.368      448.321       63.238        0.105        0.043       34.282        5.180        0.023      342.858       18.563      861.695
06/26/2013  05:03:00       12.320       42.078       -2.127       12.207       12.850        7.796      149.006      165.119       60.781        0.115        0.019       43.844        5.338        0.015      342.872       18.585      861.687
06/26/2013  05:04:00        2.750        5.368        2.687        9.467       14.163        7.159       89.628      200.589       51.247        0.019        0.017        6.031        8.551        2.010      342.523       17.992      861.677
06/26/2013  05:05:00      -37.970      -26.515        0.578       18.506       13.428        8.288      342.481      180.309       68.696        0.137        0.030       46.312       10.145        0.048      341.766       16.706      861.682
06/26/2013  05:06:00      -58.624      -33.580       -9.965        8.598        5.588        5.562       73.920       31.221       30.937        0.240        0.007       67.560        1.352        0.000      341.555       16.348      861.695
06/26/2013  05:07:00      -51.747      -23.919      -10.554        9.069        7.258        6.109       82.256       52.680       37.316        0.177        0.009       57.008        2.626        0.002      341.546       16.333      861.709
06/26/2013  05:08:00      -24.101      -18.960       -4.868       11.980        9.392        3.494      143.521       88.217       12.207        0.060        0.012       30.665        3.175        0.011      341.995       17.094      861.711
06/26/2013  05:09:00       -1.806        5.717       -1.263        8.748        9.005        8.806       76.528       81.091       77.537        0.014        0.012        5.995        8.317        1.925      342.376       17.743      861.706
06/26/2013  05:10:00       12.189       10.876       -0.106        8.673       10.146        9.031       75.222      102.937       81.565        0.026        0.013       16.336        7.582        0.215      342.461       17.886      861.702
06/26/2013  05:11:00      -34.616       -8.116       -1.353       10.625        6.421        7.887      112.899       41.225       62.206        0.074        0.011       35.555        7.439        0.044      342.199       17.441      861.709
06/26/2013  05:12:00      -52.735      -16.805       -7.435        4.410        4.932        2.819       19.448       24.321        7.944        0.159        0.003       55.348        0.408        0.000      341.798       16.762      861.717
06/26/2013  05:13:00      -64.779       -8.760      -13.049        4.803        7.720        4.850       23.068       59.594       23.519        0.227        0.005       65.369        3.780        0.003      341.681       16.563      861.725
06/26/2013  05:14:00      -63.285       -0.454      -12.872       11.339        5.384        5.362      128.566       28.985       28.749        0.218        0.009       63.286        5.300        0.007      341.812       16.786      861.726
06/26/2013  05:15:00      -13.150       48.948       -9.825       15.433       28.994        8.088      238.174      840.650       65.421        0.190        0.057       50.683       11.797        0.054      342.189       17.425      861.726
06/26/2013  05:16:00      -13.185       87.731       -8.587       24.453       17.478        7.411      597.927      305.467       54.929        0.445        0.048       88.716        7.662        0.007      342.176       17.402      861.737
06/26/2013  05:17:00      -43.241       51.765       -7.866       17.840       30.302       12.922      318.268      918.198      166.982        0.301        0.070       67.449       16.017        0.056      341.870       16.883      861.736
06/26/2013  05:18:00       24.154       47.489       -8.566       25.250       26.384        9.834      637.575      696.099       96.702        0.217        0.072       53.279        8.593        0.026      341.602       16.429      861.734
06/26/2013  05:19:00       44.925       21.521        2.585       15.403       13.067       11.042      237.251      170.737      121.928        0.151        0.026       49.813        8.386        0.028      341.302       15.920      861.737
06/26/2013  05:20:00       52.688       34.296       -1.363       19.091       18.376       15.050      364.477      337.694      226.490        0.244        0.046       62.867       11.351        0.033      341.238       15.812      861.739
06/26/2013  05:21:00       61.195       33.868        5.458       24.779       18.930       15.257      613.992      358.348      232.765        0.306        0.060       69.942       13.109        0.035      341.200       15.747      861.740
06/26/2013  05:22:00      104.916       60.216        4.399       30.715       34.345       23.962      943.418     1179.605      574.174        0.867        0.135      120.968       17.036        0.020      341.433       16.142      861.739
06/26/2013  05:23:00      102.611       59.511       12.998       49.029       31.796       26.377     2403.825     1011.000      695.726        0.917        0.206      118.620       18.663        0.025      341.538       16.320      861.746
06/26/2013  05:24:00       60.726       26.183       10.150       37.052       30.360       20.079     1372.886      921.747      403.178        0.359        0.135       66.130       11.812        0.032      341.586       16.401      861.767
06/26/2013  05:25:00        8.934       -6.509       12.771       55.756       30.036       16.522     3108.725      902.163      272.970        0.228        0.214       11.053       21.742        3.869      341.693       16.583      861.778
06/26/2013  05:26:00      -41.719      -33.862        1.394       26.574       13.732       10.640      706.160      188.579      113.209        0.195        0.050       53.732        6.349        0.014      341.377       16.048      861.782
06/26/2013  05:27:00      -27.423      -45.919        1.448       40.389       26.573       20.089     1631.294      706.127      403.579        0.280        0.137       53.485       19.386        0.131      341.470       16.204      861.796
06/26/2013  05:28:00      -65.616      -66.465       -2.421       29.862       32.394       24.715      891.751     1049.376      610.812        0.564        0.128       93.397       21.774        0.054      341.636       16.486      861.824
06/26/2013  05:29:00      -43.077      -54.791        0.134       41.820       49.361       22.054     1748.888     2436.481      486.363        0.476        0.234       69.697       22.722        0.106      341.706       16.605      861.851
06/26/2013  05:30:00      -24.273      -76.077      -10.026       24.797       42.700       17.172      614.908     1823.289      294.885        0.460        0.137       79.855       13.488        0.029      341.758       16.694      861.883
06/26/2013  05:31:00      -13.308      -40.980        6.912       22.660       20.022       11.752      513.470      400.899      138.105        0.148        0.053       43.086        9.126        0.045      341.767       16.708      861.907
06/26/2013  05:32:00        2.180      -18.789       -3.992       12.400       12.658       11.059      153.749      160.225      122.292        0.040        0.022       18.915        9.811        0.269      341.858       16.863      861.918
06/26/2013  05:33:00        1.647      -28.486        0.316       12.633       16.360       13.945      159.582      267.637      194.450        0.072        0.031       28.534        6.791        0.057      341.907       16.946      861.917
06/26/2013  05:34:00       22.864       -3.027        4.994       10.521       12.891       14.803      110.701      166.174      219.137        0.053        0.025       23.063        9.596        0.173      341.720       16.629      861.919
06/26/2013  05:35:00        7.182        2.673       14.155       18.091       22.312       16.114      327.275      497.840      259.657        0.067        0.054        7.663       15.241        3.955      341.585       16.398      861.933
06/26/2013  05:36:00       14.642      -21.276        0.501       12.166       12.297        9.246      148.001      151.213       85.494        0.053        0.019       25.828        4.640        0.032      341.686       16.571      861.947
06/26/2013  05:37:00       24.084      -44.488       -0.949       13.964       12.808       12.139      194.997      164.040      147.362        0.153        0.025       50.589        7.820        0.024      341.727       16.641      861.953
06/26/2013  05:38:00       17.423      -39.108       -2.974       17.537       20.013       10.670      307.533      400.503      113.859        0.133        0.041       42.814        7.184        0.028      341.721       16.633      861.956
06/26/2013  05:39:00        4.350      -47.566       -6.894       12.193        9.445       11.345      148.662       89.206      128.703        0.135        0.018       47.764        6.402        0.018      341.949       17.016      861.947
06/26/2013  05:40:00       -3.006      -33.158       -0.488       13.347       11.819       11.176      178.133      139.695      124.900        0.078        0.022       33.294        5.205        0.024      341.935       16.993      861.938
06/26/2013  05:41:00      -25.322      -33.246       -1.081       13.083        7.862        7.427      171.166       61.817       55.161        0.102        0.014       41.791        4.187        0.010      341.852       16.853      861.938
06/26/2013  05:42:00       -6.431      -21.385       -0.360       14.893       10.989       11.959      221.803      120.759      143.012        0.049        0.024       22.331        6.585        0.087      341.751       16.681      861.943
06/26/2013  05:43:00      -27.616      -19.792       -8.463       11.163        9.968       10.250      124.623       99.370      105.058        0.078        0.016       33.976        6.133        0.033      341.776       16.723      861.953
06/26/2013  05:44:00      -13.426        4.818        1.755       10.978       15.897        8.078      120.527      252.727       65.246        0.032        0.022       14.264        6.027        0.179      341.692       16.580      861.954
06/26/2013  05:45:00       10.574       -5.255        1.566       12.004        8.004        6.924      144.090       64.066       47.938        0.020        0.013       11.807        4.000        0.115      341.614       16.450      861.965
06/26/2013  05:46:00       23.734      -54.276       -6.989       24.975       34.021       21.392      623.766     1157.424      457.636        0.290        0.112       59.239       14.489        0.060      341.427       16.131      861.981
06/26/2013  05:47:00       52.474      -79.174       -8.990       28.876       26.131       19.214      833.826      682.813      369.182        0.549        0.094       94.985       13.233        0.019      341.690       16.578      862.001
06/26/2013  05:48:00       -8.187      -64.847       -7.106       31.685       25.853       15.360     1003.964      668.370      235.943        0.312        0.095       65.362       10.815        0.027      341.752       16.682      862.035
06/26/2013  05:49:00       -8.274       -6.457       -5.266       32.382       29.616       27.392     1048.574      877.110      750.335        0.141        0.134       10.495       23.013        4.808      341.759       16.696      862.057
06/26/2013  05:50:00      -73.350      -11.223       -3.285       37.481       30.919       21.406     1404.790      956.007      458.215        0.417        0.141       74.203       20.806        0.079      341.768       16.713      862.086
06/26/2013  05:51:00      -51.988       24.376       -5.087       22.884       33.775       14.834      523.687     1140.719      220.034        0.260        0.094       57.419        9.604        0.028      341.732       16.648      862.092
06/26/2013  05:52:00      -32.547       13.137        1.232       16.773       32.413       12.586      281.350     1050.590      158.404        0.136        0.075       35.099        9.397        0.072      341.745       16.670      862.092
06/26/2013  05:53:00       -6.311      -54.164       -8.894       13.720       12.632       12.320      188.242      159.567      151.779        0.178        0.025       54.531        4.495        0.007      341.851       16.852      862.086
06/26/2013  05:54:00       12.195      -45.228        1.222       16.627       19.215       13.814      276.457      369.228      190.828        0.152        0.042       46.843        7.485        0.026      341.858       16.864      862.078
06/26/2013  05:55:00       12.934      -21.732        4.396       22.168       17.038       13.417      491.422      290.310      180.020        0.081        0.048       25.290       13.881        0.301      341.854       16.855      862.070
06/26/2013  05:56:00      -20.572      -23.047       -8.269       13.814        7.605        7.150      190.830       57.836       51.118        0.066        0.015       30.893        8.450        0.075      341.879       16.900      862.045
06/26/2013  05:57:00       -3.169      -31.992       -6.626       16.109        9.074        5.919      259.512       82.341       35.035        0.073        0.019       32.149        7.323        0.052      341.928       16.982      862.029
06/26/2013  05:58:00       19.181        4.867       17.856       24.186       17.866       13.905      584.964      319.181      193.350        0.090        0.055       19.789       12.509        0.400      341.903       16.938      862.036
06/26/2013  05:59:00       20.953       26.051        2.887       31.412       26.170       17.965      986.743      684.881      322.740        0.156        0.100       33.432       14.892        0.198      341.494       16.244      862.057
06/26/2013  06:00:00      -11.969      -18.227      -16.188       26.330       18.345       15.701      693.282      336.534      246.525        0.101        0.064       21.806        5.291        0.059      341.648       16.506      862.068
06/26/2013  06:01:00       -0.949      -26.243       -5.232       10.846       10.944       10.892      117.627      119.769      118.635        0.054        0.018       26.260        5.469        0.043      342.007       17.115      862.071
06/26/2013  06:02:00      -21.901       -6.123       -0.068       10.699       20.480       10.672      114.479      419.431      113.894        0.058        0.032       22.740        7.854        0.119      342.042       17.175      862.091
06/26/2013  06:03:00      -28.413       76.533       -5.148       17.933       30.913       24.806      321.603      955.607      615.354        0.429        0.095       81.637       20.826        0.065      341.890       16.917      862.131
06/26/2013  06:04:00      -50.774       39.289      -10.615       18.690       18.456       15.095      349.299      340.630      227.869        0.258        0.046       64.200        5.947        0.009      341.854       16.855      862.145
06/26/2013  06:05:00      -54.410       43.533      -11.711       17.258       30.425       17.823      297.827      925.674      317.666        0.327        0.077       69.682       13.341        0.037      341.782       16.734      862.169
06/26/2013  06:06:00      -51.385       26.391      -13.931       26.194       39.115       13.994      686.150     1529.979      195.836        0.297        0.121       57.766       21.448        0.138      341.852       16.852      862.186
06/26/2013  06:07:00       13.017       -1.109        3.505       16.725       16.222        6.129      279.722      263.158       37.563        0.038        0.029       13.064        5.411        0.172      341.937       16.998      862.180
06/26/2013  06:08:00      -55.973       31.709       -8.023       16.500       18.877       11.324      272.248      356.345      128.231        0.248        0.038       64.331       11.435        0.032      342.152       17.363      862.169
06/26/2013  06:09:00      -60.600       16.404      -12.156       26.610       23.569       21.041      708.070      555.502      442.741        0.290        0.085       62.781       19.340        0.095      342.177       17.403      862.151
06/26/2013  06:10:00      -49.265      -18.906       -6.014       16.562       25.346       15.390      274.291      642.433      236.867        0.199        0.058       52.768        6.641        0.016      341.870       16.884      862.148
06/26/2013  06:11:00      -34.142      -17.342       -6.034       24.825       12.249       19.739      616.295      150.050      389.636        0.133        0.058       38.294       18.479        0.233      342.116       17.301      862.156
06/26/2013  06:12:00      -65.728      -36.229       -7.391       26.036       11.402        9.229      677.894      129.997       85.172        0.329        0.045       75.051        7.950        0.011      341.647       16.503      862.164
06/26/2013  06:13:00     -139.906      -58.977       -9.530       21.704       17.635       13.215      471.044      311.003      174.627        1.205        0.048      151.829        9.133        0.004      341.573       16.379      862.181
06/26/2013  06:14:00     -129.665      -86.248       -3.444       38.749       24.547       16.421     1501.458      602.534      269.658        1.332        0.119      155.730       12.839        0.007      341.705       16.604      862.184
06/26/2013  06:15:00     -142.346      -40.667        1.634       46.306       47.815       26.698     2144.254     2286.284      712.783        1.353        0.257      148.041       24.082        0.026      341.838       16.828      862.190
06/26/2013  06:16:00     -157.710      -60.356       -4.712       59.738       35.675       27.068     3568.606     1272.680      732.655        1.705        0.279      168.864       29.644        0.031      341.868       16.880      862.200
06/26/2013  06:17:00     -119.712      -20.481       -2.625       46.194       28.115       21.269     2133.890      790.435      452.380        0.907        0.169      121.452       16.045        0.017      341.978       17.066      862.196
06/26/2013  06:18:00      -96.252       -9.695        2.442       50.269       33.698       30.828     2526.926     1135.532      950.343        0.699        0.231       96.739       31.182        0.104      342.160       17.376      862.201
06/26/2013  06:19:00      -50.637      -30.125       10.944       41.812       30.713       21.555     1748.245      943.274      464.636        0.337        0.158       58.921       25.497        0.187      342.164       17.384      862.199
06/26/2013  06:20:00      -47.347      -26.168        2.818       37.518       24.005       13.312     1407.635      576.217      177.202        0.255        0.108       54.097       16.223        0.090      342.114       17.297      862.214
06/26/2013  06:21:00      -90.676      -40.027       -4.775       20.675       21.275       14.079      427.473      452.639      198.225        0.546        0.054       99.117       10.720        0.012      342.132       17.328      862.225
06/26/2013  06:22:00      -71.367      -20.196       -4.998       38.303       16.821       15.749     1467.111      282.944      248.016        0.376        0.100       74.170       17.760        0.057      342.234       17.499      862.231
06/26/2013  06:23:00      -10.678      -12.248        0.027       15.051       18.603       10.902      226.522      346.075      118.861        0.048        0.035       16.249        6.275        0.149      342.228       17.491      862.222
06/26/2013  06:24:00      -18.178        3.787       -2.734       18.536       20.110       14.396      343.573      404.406      207.234        0.065        0.048       18.568       11.440        0.380      342.755       18.386      862.219
06/26/2013  06:25:00      -54.242       47.702      -13.012       18.111       14.138        9.039      328.021      199.871       81.710        0.300        0.030       72.234        5.669        0.006      342.756       18.387      862.217
06/26/2013  06:26:00      -29.996       49.969       -4.038       20.129       17.159       14.077      405.177      294.421      198.163        0.216        0.045       58.280        8.089        0.019      342.872       18.587      862.227
06/26/2013  06:27:00      -33.897       33.996        0.573       25.203       14.115       18.414      635.196      199.224      339.060        0.174        0.059       48.007       18.374        0.146      342.944       18.707      862.230
06/26/2013  06:28:00        2.136       37.326        1.235       33.411       19.223       18.060     1116.308      369.535      326.158        0.161        0.091       37.387       13.263        0.126      342.827       18.509      862.249
06/26/2013  06:29:00        5.620      -40.274       20.735       33.349       60.446       29.699     1112.189     3653.701      882.037        0.386        0.282       40.664       38.553        0.899      342.578       18.084      862.277
06/26/2013  06:30:00       33.407      -66.186      -12.639       35.651       38.510       32.009     1270.964     1483.007     1024.544        0.472        0.189       74.139       26.088        0.124      342.459       17.883      862.276
06/26/2013  06:31:00      -16.449       12.759       53.705       13.531       37.236       27.811      183.083     1386.497      773.474        0.283        0.117       20.818       25.893        1.547      342.616       18.149      862.289
06/26/2013  06:32:00        5.363       67.466       94.398       32.211       42.651       23.081     1037.550     1819.125      532.715        0.844        0.169       67.679       26.060        0.148      342.391       17.768      862.313
06/26/2013  06:33:00        4.112       43.077       72.457       26.288       36.147       22.741      691.067     1306.605      517.134        0.482        0.126       43.273       16.821        0.151      342.298       17.611      862.327
06/26/2013  06:34:00       10.903       76.429       86.735       31.510       40.090       25.920      992.909     1607.216      671.826        0.838        0.164       77.202       22.595        0.086      342.227       17.489      862.343
06/26/2013  06:35:00       40.447       48.695       47.707       37.614       23.223       25.049     1414.807      539.288      627.430        0.443        0.129       63.303       16.136        0.065      342.021       17.138      862.355
06/26/2013  06:36:00       23.421       -1.022       17.866       23.935       28.381       19.843      572.861      805.475      393.748        0.132        0.089       23.444       19.315        0.679      342.195       17.434      862.371
06/26/2013  06:37:00       11.809       26.289       43.513       22.713       21.911       18.984      515.874      480.084      360.384        0.204        0.068       28.819       12.219        0.180      342.314       17.637      862.382
06/26/2013  06:38:00       -4.974       14.766       52.822       20.857       31.241       20.755      435.017      975.987      430.767        0.244        0.092       15.582       20.986        1.814      342.335       17.672      862.392
06/26/2013  06:39:00        2.976       23.447       51.700       19.302       24.599       14.708      372.562      605.101      216.338        0.221        0.060       23.635       11.491        0.236      342.459       17.884      862.400
06/26/2013  06:40:00        8.655       -5.223       16.504       15.382       13.585       16.336      236.602      184.556      266.853        0.053        0.034       10.109       11.333        1.257      342.559       18.054      862.412
06/26/2013  06:41:00       31.155      -54.525        3.747       28.792       29.942       17.844      828.968      896.515      318.410        0.300        0.102       62.799       19.479        0.096      342.500       17.954      862.422
06/26/2013  06:42:00        8.485       25.244       53.198       18.295       49.834       30.966      334.700     2483.391      958.897        0.366        0.189       26.632       37.251        1.956      342.482       17.922      862.409
06/26/2013  06:43:00       -0.273       50.409       58.890       13.266       21.849       22.145      175.994      477.378      490.418        0.358        0.057       50.410       17.179        0.116      342.531       18.006      862.402
06/26/2013  06:44:00        0.954       51.644       79.916       18.342       40.091       20.032      336.442     1607.257      401.298        0.570        0.117       51.653       23.720        0.211      342.623       18.162      862.401
06/26/2013  06:45:00       19.955       20.230       56.791       31.781       32.086       27.746     1010.045     1029.488      769.833        0.342        0.140       28.416       15.937        0.315      342.715       18.319      862.418
06/26/2013  06:46:00        5.725       61.895       77.276       29.554       34.623       23.468      873.417     1198.778      550.744        0.623        0.131       62.159       21.077        0.115      342.619       18.156      862.425
06/26/2013  06:47:00       17.486       43.135       76.894       24.738       30.717       14.328      611.980      943.563      205.292        0.492        0.088       46.544       16.438        0.125      342.582       18.093      862.419
06/26/2013  06:48:00        0.956       56.071       87.675       22.119       37.845       23.178      489.250     1432.249      537.213        0.664        0.123       56.079       23.540        0.176      342.659       18.223      862.422
06/26/2013  06:49:00       13.680       53.240       65.908       39.474       35.255       23.150     1558.194     1242.924      535.910        0.535        0.167       54.970       15.160        0.076      342.679       18.258      862.414
06/26/2013  06:50:00       50.737       61.241       41.291       40.161       32.243       31.965     1612.877     1039.586     1021.752        0.585        0.184       79.528       27.168        0.117      342.472       17.905      862.410
06/26/2013  06:51:00       54.492       31.935       32.693       38.615       31.381       30.954     1491.112      984.768      958.169        0.425        0.172       63.160       20.122        0.102      342.532       18.009      862.403
06/26/2013  06:52:00       29.145       57.001       53.314       38.016       30.756       28.190     1445.241      945.901      794.691        0.506        0.159       64.020       22.007        0.118      342.596       18.116      862.418
06/26/2013  06:53:00        9.971       26.910       47.455       36.705       25.319       21.157     1347.283      641.046      447.638        0.276        0.122       28.698       21.765        0.575      342.833       18.519      862.411
06/26/2013  06:54:00       52.389       22.447       17.922       32.838       27.064       25.763     1078.364      732.445      663.756        0.302        0.124       56.995       14.943        0.069      342.680       18.260      862.405
06/26/2013  06:55:00       77.479       42.243        4.329       24.831       21.863       25.480      616.571      478.002      649.240        0.477        0.087       88.246       14.761        0.028      342.523       17.993      862.409
06/26/2013  06:56:00       95.975       45.562       11.816       19.769       26.886       33.113      390.813      722.879     1096.480        0.682        0.111      106.241       15.573        0.021      342.471       17.904      862.432
06/26/2013  06:57:00       77.614       47.028       20.422       33.749       39.735       32.822     1139.023     1578.836     1077.300        0.622        0.190       90.750       12.271        0.018      342.485       17.927      862.459
06/26/2013  06:58:00       51.833       37.437        8.508       35.920       25.417       14.219     1290.277      646.024      202.187        0.315        0.107       63.939        9.064        0.020      342.498       17.951      862.483
06/26/2013  06:59:00       43.181       31.457        3.930       26.931       23.774       20.400      725.274      565.198      416.149        0.229        0.085       53.424       14.700        0.076      342.548       18.033      862.485
06/26/2013  07:00:00       38.754       26.131       21.117       25.875       19.413       16.729      669.521      376.857      279.851        0.198        0.066       46.741       12.802        0.075      342.576       18.081      862.489
06/26/2013  07:01:00        2.882       34.396        1.588       14.931       18.503       13.207      222.929      342.377      174.435        0.097        0.037       34.517       12.138        0.124      342.647       18.204      862.485
06/26/2013  07:02:00        7.983       37.007       11.720       17.165       22.866       18.846      294.652      522.839      355.161        0.137        0.059       37.858       11.141        0.087      342.826       18.507      862.499
06/26/2013  07:03:00       -6.329      105.322      -10.146       17.803       18.920       13.241      316.933      357.985      175.315        0.604        0.043      105.512        7.322        0.005      342.492       17.939      862.512
06/26/2013  07:04:00      -12.155       88.926       -2.567       18.828       20.783       20.777      354.507      431.946      431.688        0.464        0.061       89.753       10.727        0.014      342.688       18.274      862.521
06/26/2013  07:05:00       -8.952       51.998        3.818       12.785       17.386       18.385      163.464      302.280      337.996        0.180        0.040       52.763        8.319        0.025      342.753       18.384      862.532
06/26/2013  07:06:00       13.497       32.143        5.753       15.571       28.070       17.454      242.471      787.910      304.653        0.129        0.067       34.861       13.031        0.140      342.995       18.797      862.545
06/26/2013  07:07:00       56.279       39.478        9.748       20.869       30.170       23.904      435.524      910.222      571.402        0.337        0.096       68.745       18.648        0.074      342.693       18.281      862.579
06/26/2013  07:08:00       30.209       16.774       27.105       31.096       26.121       15.137      966.984      682.295      229.137        0.190        0.094       34.554        8.032        0.054      343.115       19.000      862.599
06/26/2013  07:09:00       30.636       43.657       33.419       19.715       21.776       20.342      388.666      474.212      413.808        0.262        0.064       53.334       11.960        0.050      342.942       18.704      862.637
06/26/2013  07:10:00       62.531       36.548       24.716       31.466       25.270       22.570      990.126      638.569      509.388        0.400        0.107       72.429       19.905        0.076      342.859       18.564      862.659
06/26/2013  07:11:00       91.379       42.247        7.800       33.523       24.867       27.166     1123.801      618.391      738.006        0.634        0.124      100.672       12.764        0.016      342.879       18.599      862.684
06/26/2013  07:12:00      103.318       47.539       26.746       32.107       36.210       30.086     1030.883     1311.180      905.138        0.845        0.162      113.730       17.838        0.025      342.938       18.699      862.680
06/26/2013  07:13:00      114.667       89.912       29.546       39.203       33.128       32.590     1536.866     1097.493     1062.093        1.290        0.185      145.715       12.467        0.007      342.947       18.713      862.686
06/26/2013  07:14:00      128.371       85.546       23.132       24.243       28.035       25.043      587.731      785.936      627.162        1.317        0.100      154.263       15.642        0.010      342.947       18.714      862.681
06/26/2013  07:15:00      155.400       91.841       27.980       42.971       31.782       39.126     1846.530     1010.111     1530.847        1.888        0.219      180.510       22.901        0.016      343.010       18.820      862.697
06/26/2013  07:16:00      118.106      101.660       38.663       56.662       45.562       47.945     3210.565     2075.939     2298.737        1.668        0.379      155.833       37.863        0.059      343.130       19.023      862.721
06/26/2013  07:17:00      164.088      110.665       37.280       54.335       39.396       47.720     2952.299     1552.055     2277.230        2.367        0.339      197.919       32.823        0.028      343.050       18.885      862.734
06/26/2013  07:18:00      139.077       78.853       45.306       80.431       45.220       46.315     6469.155     2044.855     2145.042        1.913        0.533      159.876       43.234        0.073      343.215       19.168      862.755
06/26/2013  07:19:00      101.102       96.887       73.192       35.959       26.898       35.780     1293.031      723.522     1280.180        1.413        0.165      140.031       11.375        0.007      343.160       19.077      862.768
06/26/2013  07:20:00       87.510       90.813       58.372       53.611       38.294       35.200     2874.146     1466.428     1239.032        1.244        0.279      126.115       27.131        0.046      343.275       19.271      862.768
06/26/2013  07:21:00       81.091      106.068       56.333       71.493       48.340       40.670     5111.246     2336.760     1654.089        1.505        0.455      133.515       41.140        0.095      343.195       19.134      862.766
06/26/2013  07:22:00       82.270       74.944       45.614       52.880       68.902       32.278     2796.259     4747.487     1041.889        1.152        0.429      111.288       23.533        0.045      343.159       19.074      862.742
06/26/2013  07:23:00       75.218       67.392       74.524       49.270       65.025       43.815     2427.513     4228.307     1919.774        1.216        0.429      100.992       34.459        0.116      343.238       19.208      862.688
06/26/2013  07:24:00       97.261       78.212       37.291       74.948       54.376       45.613     5617.168     2956.802     2080.584        1.381        0.533      124.807       42.707        0.117      343.406       19.495      862.673
06/26/2013  07:25:00      227.305      123.200       28.354       82.927       58.780       50.940     6876.965     3455.041     2594.836        4.029        0.646      258.546       39.720        0.024      343.382       19.451      862.683
06/26/2013  07:26:00      104.335       76.164       39.319       64.805       46.311       45.122     4199.734     2144.720     2035.956        1.330        0.419      129.177       33.322        0.067      343.523       19.694      862.679
06/26/2013  07:27:00      183.860       95.548       32.914      103.857       84.629       53.404    10786.244     7162.016     2852.013        3.240        1.040      207.205       40.119        0.037      343.583       19.794      862.701
06/26/2013  07:28:00       67.100       52.906       16.624       85.629       58.994       42.507     7332.287     3480.291     1806.825        1.010        0.631       85.449       38.614        0.204      343.838       20.232      862.725
06/26/2013  07:29:00       70.566      216.297      -23.181       88.090       99.642       54.185     7759.784     9928.543     2936.043        3.646        1.031      227.517       52.164        0.053      343.690       19.975      862.760
06/26/2013  07:30:00       88.233       84.128        6.466       72.227       57.730       47.351     5216.753     3332.741     2242.089        1.285        0.540      121.912       35.238        0.084      343.717       20.024      862.766
06/26/2013  07:31:00      160.671       75.493       42.812       81.791       72.677       45.727     6689.776     5281.937     2090.959        2.370        0.703      177.523       39.698        0.050      343.781       20.134      862.770
06/26/2013  07:32:00      154.002       93.302       65.351      104.203       77.563       64.075    10858.227     6015.981     4105.558        2.883        1.049      180.061       54.978        0.093      343.717       20.022      862.775
06/26/2013  07:33:00      116.575       54.276       43.320      104.801       85.291       73.428    10983.165     7274.537     5391.709        2.103        1.182      128.591       60.071        0.218      343.728       20.043      862.777
06/26/2013  07:34:00       69.238       28.078       44.295       69.340       75.274       40.855     4807.999     5666.208     1669.145        0.984        0.607       74.714       33.684        0.203      343.861       20.271      862.791
06/26/2013  07:35:00       28.585       22.177       55.230       51.815       54.880       34.471     2684.762     3011.859     1188.242        0.562        0.344       36.179       25.861        0.511      343.979       20.472      862.817
06/26/2013  07:36:00       45.198       21.583       51.121       52.854       70.005       52.284     2793.523     4900.662     2733.654        0.777        0.521       50.087       46.217        0.851      343.978       20.471      862.844
06/26/2013  07:37:00      100.827       65.216       99.454       82.553       55.605       55.403     6815.052     3091.953     3069.485        1.864        0.649      120.080       50.028        0.174      343.764       20.104      862.886
06/26/2013  07:38:00       53.110       38.597       28.592       42.799       50.393       42.036     1831.740     2539.437     1767.059        0.563        0.307       65.653       34.026        0.269      343.851       20.255      862.920
06/26/2013  07:39:00       62.203       23.944       10.969       44.455       33.136       37.078     1976.206     1097.964     1374.808        0.451        0.222       66.652       33.133        0.247      343.943       20.412      862.948
06/26/2013  07:40:00      -11.309      -16.328       22.563       46.831       37.959       19.535     2193.117     1440.906      381.607        0.246        0.201       19.862       26.047        1.720      344.075       20.637      862.955
06/26/2013  07:41:00      -42.981      -14.059       13.047       35.990       30.839       26.375     1295.255      951.062      695.663        0.258        0.147       45.222       23.676        0.274      344.038       20.573      862.967
06/26/2013  07:42:00       -9.681      -37.791        4.199       27.669       33.280       24.693      765.596     1107.592      609.766        0.201        0.124       39.012       17.762        0.207      344.067       20.623      862.981
06/26/2013  07:43:00        6.614       19.774       14.644       25.703       29.431       25.987      660.636      866.185      675.331        0.143        0.110       20.851       15.724        0.569      344.222       20.888      863.017
06/26/2013  07:44:00      -12.534       20.382       13.852       32.589       27.029       25.368     1062.071      730.549      643.525        0.160        0.122       23.928       20.973        0.768      344.031       20.561      863.034
06/26/2013  07:45:00       27.539       76.415       29.966      101.869       57.071       74.825    10377.247     3257.051     5598.732        1.336        0.962       81.226       38.834        0.229      343.975       20.465      863.047
06/26/2013  07:46:00      193.906       68.312       31.691      103.655      117.525       67.055    10744.392    13812.018     4496.374        3.616        1.453      205.587       53.576        0.068      343.845       20.240      863.017
06/26/2013  07:47:00      100.481      109.419      100.310       85.863       65.200       54.530     7372.465     4251.015     2973.507        2.336        0.730      148.556       30.377        0.042      344.103       20.683      862.995
06/26/2013  07:48:00       84.394       31.633       78.732       81.876       91.888       72.365     6703.732     8443.379     5236.763        1.735        1.019       90.128       68.737        0.582      344.141       20.748      862.975
06/26/2013  07:49:00       42.208      -23.762       34.890       65.952       89.121       47.555     4349.655     7942.570     2261.503        0.906        0.728       48.437       30.508        0.397      344.234       20.908      862.948
06/26/2013  07:50:00       74.849       54.879       72.758       72.516       74.423       48.430     5258.567     5538.775     2345.494        1.352        0.657       92.812       47.632        0.263      344.334       21.080      862.952
06/26/2013  07:51:00      153.363       86.098       21.333       54.657       43.352       46.852     2987.344     1879.421     2195.140        1.922        0.353      175.878       36.085        0.042      344.185       20.824      862.996
06/26/2013  07:52:00      109.601      114.568        3.352       65.460       64.310       54.554     4284.973     4135.723     2976.137        1.827        0.570      158.551       40.353        0.065      344.160       20.780      863.038
06/26/2013  07:53:00      116.950      114.237       10.435       79.698       88.685       53.248     6351.797     7865.054     2835.305        2.194        0.853      163.486       44.585        0.074      344.287       20.997      863.074
06/26/2013  07:54:00       60.267      123.822      -16.060       68.876       83.280       43.209     4743.851     6935.589     1866.976        1.638        0.677      137.710       41.557        0.091      344.192       20.835      863.102
06/26/2013  07:55:00       36.044       85.321       11.561       46.672       79.170       41.329     2178.302     6267.930     1708.109        0.943        0.508       92.622       41.995        0.206      344.390       21.174      863.094
06/26/2013  07:56:00       45.997      103.057        3.448       45.542       69.769       42.996     2074.045     4867.739     1848.689        1.077        0.440      112.856       36.259        0.103      344.444       21.268      863.059
06/26/2013  07:57:00       61.227       63.588       23.767       78.045       59.685       41.405     6091.082     3562.271     1714.378        0.986        0.568       88.273       27.775        0.099      344.427       21.237      863.031
06/26/2013  07:58:00       70.439       76.872       23.561       80.671       57.486       49.538     6507.862     3304.691     2454.036        1.184        0.613      104.263       35.848        0.118      344.395       21.184      863.024
06/26/2013  07:59:00      138.445       81.219       11.785       62.423       40.588       37.917     3896.667     1647.400     1437.707        1.644        0.349      160.510       26.846        0.028      344.193       20.837      863.030
06/26/2013  08:00:00      179.907      100.004       19.797       60.238       46.859       39.732     3628.648     2195.745     1578.643        2.508        0.370      205.833       25.539        0.015      344.029       20.556      863.045
06/26/2013  08:01:00      205.862      109.836       36.991       67.648       65.586       54.278     4576.286     4301.504     2946.122        3.382        0.591      233.331       36.560        0.025      344.090       20.659      863.049
06/26/2013  08:02:00      139.846       70.632       38.726       80.895       52.527       39.395     6544.038     2759.130     1551.935        1.845        0.543      156.671       25.628        0.027      344.201       20.851      863.069
06/26/2013  08:03:00      105.572       63.583       31.447       68.690       54.657       51.832     4718.310     2987.358     2686.528        1.328        0.520      123.241       47.391        0.148      344.365       21.129      863.086
06/26/2013  08:04:00       16.829        7.340       55.655       35.089       57.483       25.629     1231.259     3304.305      656.834        0.431        0.260       18.360       27.434        2.233      344.701       21.708      863.118
06/26/2013  08:05:00       68.352       45.499       22.873       55.756       38.368       36.017     3108.724     1472.101     1297.201        0.657        0.294       82.111       19.061        0.054      344.436       21.256      863.122
06/26/2013  08:06:00       96.024       71.965       31.372       70.062       51.893       31.581     4908.708     2692.834      997.365        1.199        0.430      119.998       24.788        0.043      344.522       21.400      863.138
06/26/2013  08:07:00      125.083       77.284       14.168       60.704       40.047       46.639     3684.951     1603.760     2175.199        1.464        0.373      147.032       21.668        0.022      344.208       20.865      863.140
06/26/2013  08:08:00      161.697       78.367       18.453       72.737       63.935       43.886     5290.675     4087.638     1925.966        2.196        0.565      179.687       22.573        0.016      344.316       21.046      863.132
06/26/2013  08:09:00      194.571      122.209       13.175       83.340       66.784       44.100     6945.539     4460.169     1944.809        3.316        0.668      229.767       33.412        0.021      344.230       20.898      863.143
06/26/2013  08:10:00      201.304      110.905       16.266       62.236       57.545       44.172     3873.354     3311.469     1951.194        3.111        0.457      229.833       28.824        0.016      344.159       20.776      863.160
06/26/2013  08:11:00      209.403      117.850       33.173       62.516       48.350       45.806     3908.284     2337.709     2098.203        3.359        0.417      240.288       36.567        0.023      344.232       20.901      863.153
06/26/2013  08:12:00      186.645       96.688       47.163       93.333       57.387       66.274     8711.015     3293.256     4392.240        3.140        0.820      210.202       47.190        0.050      344.338       21.083      863.172
06/26/2013  08:13:00      140.894       89.940       27.521       86.084       61.980       48.859     7410.489     3841.512     2387.194        2.117        0.682      167.154       42.471        0.065      344.519       21.392      863.192
06/26/2013  08:14:00      113.870       58.228       24.768       76.523       55.111       47.955     5855.788     3037.211     2299.702        1.408        0.560      127.894       36.684        0.082      344.512       21.384      863.199
06/26/2013  08:15:00      166.675      109.550       22.817       63.875       66.808       48.265     4080.055     4463.324     2329.472        2.559        0.544      199.454       12.194        0.004      344.397       21.184      863.191
06/26/2013  08:16:00      247.363      137.625       20.857       64.113       52.923       50.496     4110.438     2800.817     2549.847        4.501        0.473      283.071       38.309        0.018      344.338       21.082      863.169
06/26/2013  08:17:00      170.604       97.539       29.975       91.518       74.943       64.722     8375.636     5616.440     4188.994        2.885        0.909      196.519       40.235        0.042      344.457       21.285      863.158
06/26/2013  08:18:00       72.526      136.779        1.982       76.389       73.418       51.235     5835.227     5390.165     2625.009        1.891        0.693      154.817       42.020        0.074      344.567       21.475      863.144
06/26/2013  08:19:00      102.135      110.502        5.491       83.590       43.800       42.075     6987.297     1918.471     1770.341        1.667        0.534      150.473       22.274        0.022      344.711       21.722      863.151
06/26/2013  08:20:00      135.880       59.784        0.270       49.511       45.540       37.475     2451.371     2073.873     1404.353        1.398        0.296      148.451       28.482        0.037      344.519       21.396      863.161
06/26/2013  08:21:00      138.247      152.319      105.581      121.196       82.174       92.240    14688.415     6752.491     8508.151        4.170        1.497      205.702       99.603        0.234      344.450       21.272      863.164
06/26/2013  08:22:00       11.490       84.462       95.855       47.056       71.729       53.623     2214.288     5145.061     2875.440        1.334        0.512       85.240       51.788        0.369      344.591       21.518      863.156
06/26/2013  08:23:00       81.210       73.597       42.482       82.489       61.063       56.905     6804.495     3728.680     3238.143        1.379        0.689      109.597       38.806        0.125      344.811       21.894      863.158
06/26/2013  08:24:00      113.202       83.038       54.279       77.687       67.834       47.534     6035.306     4601.416     2259.493        1.777        0.645      140.392       37.917        0.073      344.973       22.171      863.150
06/26/2013  08:25:00      163.609       99.733      107.577      119.523       80.256       65.541    14285.846     6441.045     4295.604        3.665        1.251      191.611       56.953        0.088      344.740       21.772      863.164
06/26/2013  08:26:00      135.283      100.477      131.714       81.032       74.307       57.876     6566.266     5521.461     3349.678        3.059        0.772      168.514       51.593        0.094      344.410       21.204      863.182
06/26/2013  08:27:00      134.300       99.452       79.170       73.789       74.319       74.741     5444.838     5523.306     5586.196        2.537        0.828      167.114       59.056        0.125      344.490       21.344      863.191
06/26/2013  08:28:00      173.109       58.848       46.198       85.792       58.951       62.530     7360.249     3475.193     3910.045        2.515        0.737      182.838       39.317        0.046      344.634       21.589      863.179
06/26/2013  08:29:00      141.602       65.675       24.784       80.442       62.363       65.243     6470.836     3889.087     4256.681        1.979        0.731      156.091       44.408        0.081      344.791       21.858      863.168
06/26/2013  08:30:00       57.910       -0.140       75.932       53.092       78.647       53.122     2818.713     6185.335     2821.951        1.047        0.591       57.910       40.842        0.497      345.033       22.274      863.160
06/26/2013  08:31:00       89.071     -135.629        1.719       91.153      130.154       57.217     8308.907    16940.073     3273.823        2.742        1.426      162.262       74.364        0.210      344.929       22.096      863.162
06/26/2013  08:32:00       65.338       47.578      105.340      107.509      135.906       82.029    11558.217    18470.565     6728.735        2.719        1.838       80.826      101.995        1.592      344.966       22.159      863.162
06/26/2013  08:33:00       92.338      108.648       82.973       84.703       49.108       54.451     7174.615     2411.635     2964.880        1.988        0.628      142.586       47.740        0.112      344.563       21.468      863.185
06/26/2013  08:34:00      106.963       82.229       68.151       76.508       53.172       55.540     5853.462     2827.289     3084.710        1.730        0.588      134.917       43.634        0.105      344.667       21.647      863.209
06/26/2013  08:35:00      127.055       95.333       28.020       66.374       46.924       41.321     4405.534     2201.897     1707.442        1.716        0.416      158.844       16.461        0.011      344.799       21.874      863.206
06/26/2013  08:36:00       89.059       91.929       94.292       91.305       74.382       59.622     8336.683     5532.641     3554.725        2.135        0.871      127.994       42.407        0.110      344.896       22.039      863.199
06/26/2013  08:37:00       57.304       80.882       90.682       93.429       90.307       66.934     8728.996     8155.343     4480.210        1.970        1.068       99.125       55.557        0.314      344.896       22.039      863.206
06/26/2013  08:38:00      152.526      -49.368       59.634      140.267      131.368       72.438    19674.726    17257.675     5247.259        3.571        2.109      160.317       88.085        0.302      344.964       22.155      863.207
06/26/2013  08:39:00       55.268       42.923       92.006       61.176       90.664       47.812     3742.513     8220.014     2286.026        1.380        0.712       69.978       26.398        0.142      345.067       22.333      863.207
06/26/2013  08:40:00       75.044      -69.567       19.245       68.502       65.161       47.489     4692.566     4245.966     2255.161        1.102        0.560      102.329       41.515        0.165      344.961       22.151      863.194
06/26/2013  08:41:00       65.713      -38.218       27.719       85.998       81.692       45.111     7395.639     6673.558     2034.967        1.132        0.805       76.019       45.159        0.353      345.039       22.285      863.186
06/26/2013  08:42:00      116.749      -62.103       26.752      100.287       98.926       70.267    10057.493     9786.289     4937.430        2.149        1.239      132.239       64.932        0.241      344.854       21.967      863.188
06/26/2013  08:43:00       76.947      -94.139       28.823       81.066       90.688       53.102     6571.752     8224.315     2819.776        1.661        0.881      121.585       61.335        0.254      344.947       22.127      863.196
06/26/2013  08:44:00       12.752        5.336       83.531       60.558       89.199       52.100     3667.288     7956.439     2714.378        1.075        0.717       13.823       45.897       11.024      345.035       22.278      863.194
06/26/2013  08:45:00       59.460       89.893       90.260       65.788       65.791       53.123     4328.085     4328.455     2822.082        1.562        0.574      107.779       39.928        0.137      345.021       22.253      863.184
06/26/2013  08:46:00      123.878      109.607       97.106      106.518       78.417       62.881    11346.004     6149.264     3953.958        2.911        1.072      165.407       36.108        0.048      344.859       21.975      863.186
06/26/2013  08:47:00       73.266       85.969       91.104       69.065       90.585       58.913     4770.039     8205.563     3470.733        1.875        0.822      112.954       42.459        0.141      344.828       21.922      863.201
06/26/2013  08:48:00       84.595       -8.813       33.144      108.072      101.096       63.032    11679.649    10220.359     3973.000        1.710        1.294       85.053       52.696        0.384      344.932       22.099      863.205
06/26/2013  08:49:00      149.976      103.599       99.074      112.049      106.846       90.483    12554.918    11416.126     8187.216        3.759        1.608      182.278       72.085        0.156      344.882       22.014      863.222
06/26/2013  08:50:00      233.856      133.819       41.998      116.789       75.227       88.794    13639.761     5659.170     7884.296        5.077        1.359      269.437       71.389        0.070      344.596       21.524      863.218
06/26/2013  08:51:00      165.983       63.219       90.666      130.713       90.045       68.870    17086.006     8108.015     4743.107        3.485        1.497      177.615       72.483        0.167      344.593       21.520      863.222
06/26/2013  08:52:00       96.966       62.616      106.240      102.935       85.311       53.825    10595.538     7277.942     2897.102        2.269        1.039      115.426       53.667        0.216      344.727       21.748      863.234
06/26/2013  08:53:00       47.618       62.346       95.292       81.755       86.411       60.658     6683.857     7466.827     3679.398        1.653        0.892       78.450       60.529        0.595      345.001       22.218      863.236
06/26/2013  08:54:00      112.795      108.861       85.406       86.069       66.601       66.894     7407.828     4435.742     4474.805        2.409        0.816      156.759       51.651        0.109      344.676       21.664      863.225
06/26/2013  08:55:00       51.474       93.549      107.180       89.472       82.962       63.592     8005.221     6882.662     4043.897        2.091        0.947      106.775       48.139        0.203      345.115       22.414      863.210
06/26/2013  08:56:00      156.773      111.674       71.330       70.485       83.467       78.521     4968.101     6966.723     6165.618        3.011        0.905      192.481       59.571        0.096      344.590       21.513      863.214
06/26/2013  08:57:00      142.392       80.879       41.737       83.803       68.826       45.406     7022.894     4737.054     2061.701        2.119        0.691      163.758       20.786        0.016      344.929       22.093      863.196
06/26/2013  08:58:00      159.306      116.528      103.744      112.643       94.354       85.344    12688.528     8902.619     7283.520        3.929        1.444      197.376       67.250        0.116      344.839       21.940      863.194
06/26/2013  08:59:00      108.249      100.510      102.526       82.714       66.747       56.201     6841.615     4455.133     3158.536        2.339        0.723      147.717       50.751        0.118      344.791       21.858      863.195
06/26/2013  09:00:00      113.814      117.791      102.402      109.457       70.499       75.709    11980.767     4970.171     5731.924        2.999        1.134      163.793       64.812        0.157      344.917       22.074      863.189
06/26/2013  09:01:00       53.856       39.905       80.800      108.361       58.477       46.506    11742.125     3419.525     2162.813        1.417        0.866       67.029       43.193        0.415      345.270       22.680      863.155
06/26/2013  09:02:00      110.036       48.671       72.311      104.790       86.627       64.337    10980.943     7504.284     4139.265        2.116        1.131      120.319       59.583        0.245      345.159       22.488      863.148
06/26/2013  09:03:00      140.941       88.404       84.044      119.502       85.709       69.892    14280.745     7346.112     4884.848        3.062        1.326      166.372       53.681        0.104      345.070       22.337      863.148
06/26/2013  09:04:00      156.533      122.578      101.683      100.040       72.403       72.510    10008.039     5242.254     5257.659        3.518        1.025      198.817       57.724        0.084      344.949       22.127      863.164
06/26/2013  09:05:00      128.020       81.563       74.297      115.345       82.292       47.690    13304.427     6771.999     2274.328        2.545        1.118      151.794       26.746        0.031      345.213       22.580      863.169
06/26/2013  09:06:00      126.637       57.812       61.773      135.796       68.618       66.265    18440.485     4708.389     4391.031        2.536        1.377      139.209       59.753        0.184      345.254       22.652      863.181
06/26/2013  09:07:00       45.325        7.117       48.870       80.844       99.572       54.335     6535.734     9914.587     2952.316        1.194        0.970       45.880       55.566        1.467      345.408       22.915      863.191
06/26/2013  09:08:00      119.711      -35.034       42.678      103.719      112.383       67.069    10757.610    12629.931     4498.297        2.263        1.394      124.732       71.462        0.328      345.126       22.432      863.160
06/26/2013  09:09:00       51.057      -69.781       21.492       64.557       80.331       56.633     4167.571     6453.050     3207.339        1.088        0.691       86.465       36.137        0.175      345.491       23.058      863.151
06/26/2013  09:10:00       45.643       10.534       29.766       51.099       59.727       37.606     2611.145     3567.330     1414.213        0.533        0.380       46.843       24.749        0.279      345.469       23.021      863.152
06/26/2013  09:11:00       82.932      -34.647       46.369       79.552       62.106       47.799     6328.599     3857.205     2284.766        1.135        0.624       89.878       41.872        0.217      345.429       22.952      863.140
06/26/2013  09:12:00      135.546       21.052       89.496      134.866       95.143       59.532    18188.827     9052.225     3544.074        2.880        1.539      137.171       64.858        0.224      345.359       22.831      863.138
06/26/2013  09:13:00       51.129      -15.628       52.427       55.101      101.138       60.505     3036.137    10228.939     3660.811        1.126        0.846       53.464       64.728        1.466      345.547       23.154      863.134
06/26/2013  09:14:00      140.023       43.388       38.986      144.796       76.380       69.029    20965.757     5833.859     4765.070        2.728        1.578      146.592       29.695        0.041      345.503       23.078      863.135
06/26/2013  09:15:00      259.278      128.280       55.437      117.343      107.271       78.856    13769.375    11507.108     6218.213        5.912        1.575      289.277       55.961        0.037      344.998       22.211      863.128
06/26/2013  09:16:00      150.219       62.516       37.312       70.431       65.149       60.868     4960.458     4244.329     3704.894        2.039        0.645      162.708       31.625        0.038      345.268       22.675      863.169
06/26/2013  09:17:00       70.120       -3.597       47.021       94.320       94.245       59.615     8896.173     8882.092     3553.960        1.423        1.067       70.212       49.678        0.501      345.411       22.922      863.163
06/26/2013  09:18:00        9.300       11.486       54.061       32.576       46.732       23.486     1061.202     2183.880      551.593        0.347        0.190       14.779       17.314        1.372      346.161       24.210      863.165
06/26/2013  09:19:00      142.291     -122.174       31.269      136.550      114.427       67.752    18645.986    13093.439     4590.388        3.623        1.816      187.545       78.976        0.177      345.506       23.084      863.162
06/26/2013  09:20:00       86.931       98.574      116.363       95.172       86.660       58.029     9057.652     7509.938     3367.412        2.537        0.997      131.430       54.529        0.172      345.445       22.978      863.177
06/26/2013  09:21:00       22.640       36.136       83.973       47.739       54.077       36.826     2279.030     2924.294     1356.139        0.771        0.328       42.642       30.220        0.502      345.879       23.724      863.201
06/26/2013  09:22:00       83.341       64.437       73.573      110.166       96.921       69.173    12136.651     9393.741     4784.884        2.141        1.316      105.346       63.130        0.359      345.441       22.972      863.191
06/26/2013  09:23:00      115.263      -50.738       29.739       86.327       72.846       69.385     7452.318     5306.548     4814.276        1.716        0.879      125.936       58.291        0.214      345.561       23.178      863.193
06/26/2013  09:24:00       85.134     -114.618       29.500       78.964      159.363       77.374     6235.330    25396.499     5986.698        2.943        1.881      142.777      102.760        0.518      345.398       22.898      863.184
06/26/2013  09:25:00      110.256      -11.870       26.135      112.394      100.670       65.346    12632.498    10134.528     4270.036        2.000        1.352      110.893       60.311        0.296      345.586       23.221      863.182
06/26/2013  09:26:00      122.966       14.688       69.366      168.452       99.418       82.934    28376.011     9883.842     6878.025        3.263        2.257      123.840       77.970        0.396      345.387       22.879      863.192
06/26/2013  09:27:00       90.175      -30.173       58.299      108.052      124.885       98.905    11675.239    15596.210     9782.157        2.474        1.853       95.090       97.600        1.054      345.422       22.940      863.209
06/26/2013  09:28:00      103.180       68.398      111.504       97.837      104.412       68.912     9572.168    10901.811     4748.799        2.649        1.261      123.792       77.029        0.387      345.158       22.488      863.213
06/26/2013  09:29:00      130.950       17.007       79.988       96.781      125.241       72.931     9366.592    15685.282     5318.985        2.710        1.519      132.050       73.732        0.312      345.151       22.474      863.179
06/26/2013  09:30:00      117.260       45.731      109.414       97.615      109.251       78.104     9528.607    11935.782     6100.246        2.768        1.378      125.862       76.186        0.366      345.279       22.693      863.169
06/26/2013  09:31:00      116.818      -56.228       49.945      129.497      152.700       93.355    16769.392    23317.285     8715.222        3.404        2.440      129.646      111.026        0.733      345.356       22.825      863.158
06/26/2013  09:32:00      178.367     -207.183      -23.563       81.112      102.848       53.988     6579.100    10577.795     2914.657        4.768        1.004      273.385       56.358        0.042      345.183       22.527      863.169
06/26/2013  09:33:00       48.215        6.425       94.157       86.490      121.211       86.236     7480.540    14692.213     7436.566        2.041        1.480       48.642       90.971        3.498      345.685       23.391      863.167
06/26/2013  09:34:00      123.840      -32.105       64.042      101.324       90.169       76.142    10266.538     8130.477     5797.595        2.233        1.210      127.934       70.087        0.300      345.379       22.865      863.174
06/26/2013  09:35:00      106.102      -38.435       39.696       82.976       78.956       58.163     6884.960     6234.050     3382.880        1.540        0.825      112.849       65.009        0.332      345.233       22.615      863.170
06/26/2013  09:36:00       30.356       27.958       86.833       56.349       86.826       47.663     3175.197     7538.695     2271.775        1.111        0.649       41.269       53.044        1.652      345.652       23.336      863.160
06/26/2013  09:37:00       98.318       21.027       89.651       84.897       77.026       47.587     7207.575     5932.973     2264.523        1.677        0.770      100.541       53.412        0.282      345.395       22.895      863.170
06/26/2013  09:38:00       29.285       30.358       76.921       55.352       81.140       51.350     3063.873     6583.772     2636.856        0.999        0.614       42.180       46.551        1.218      345.782       23.558      863.143
06/26/2013  09:39:00       18.431       19.346       67.624       51.386       71.693       40.702     2640.478     5139.956     1656.669        0.736        0.472       26.721       37.386        1.958      345.900       23.762      863.137
06/26/2013  09:40:00       62.440       75.705       76.952       71.313       46.395       40.870     5085.583     2152.482     1670.360        1.223        0.445       98.133       32.310        0.108      345.457       23.000      863.145
06/26/2013  09:41:00        5.314      -59.947       33.847       38.724       57.954       47.249     1499.566     3358.651     2232.472        0.593        0.355       60.182       27.634        0.211      345.819       23.621      863.133
06/26/2013  09:42:00       57.244      -96.129       20.685       85.305       97.448       57.658     7276.962     9496.170     3324.453        1.652        1.005      111.882       54.913        0.241      345.764       23.527      863.122
06/26/2013  09:43:00       21.283       20.133       69.545       66.871       53.279       50.520     4471.744     2838.688     2552.230        0.778        0.493       29.297       45.394        2.401      345.958       23.861      863.103
06/26/2013  09:44:00       -9.206      -33.631       42.108       32.539       51.912       38.171     1058.792     2694.905     1457.001        0.410        0.261       34.869       37.244        1.141      345.864       23.700      863.122
06/26/2013  09:45:00       87.122     -140.495       19.734      133.112      180.918       89.716    17718.867    32731.147     8049.041        4.310        2.925      165.315      125.445        0.576      345.760       23.520      863.116
06/26/2013  09:46:00       95.366     -214.339      -18.776       90.141      138.354       79.323     8125.441    19141.762     6292.148        4.447        1.678      234.598       75.488        0.104      345.593       23.233      863.097
06/26/2013  09:47:00      140.112     -102.315       31.375      125.668      130.635       68.355    15792.561    17065.512     4672.406        3.430        1.877      173.493       73.160        0.178      345.707       23.429      863.108
06/26/2013  09:48:00       78.899       71.365      122.221      100.701       94.616       78.761    10140.735     8952.108     6203.325        2.577        1.265      106.386       79.034        0.552      345.529       23.122      863.109
06/26/2013  09:49:00       70.321       79.062       82.116       62.049       42.978       39.299     3850.051     1847.140     1544.425        1.259        0.362      105.810       25.905        0.060      345.409       22.918      863.103
06/26/2013  09:50:00       52.434       32.543       44.834       60.929       73.333       55.540     3712.387     5377.767     3084.640        0.899        0.609       61.712       48.866        0.627      345.721       23.455      863.079
06/26/2013  09:51:00      190.129       98.947      103.064      104.586       86.780       84.072    10938.253     7530.753     7068.158        4.104        1.277      214.335       64.061        0.089      345.528       23.119      863.084
06/26/2013  09:52:00      155.590       80.847       75.616       91.226       79.223       64.875     8322.263     6276.282     4208.730        2.763        0.940      175.342       43.563        0.062      345.636       23.305      863.089
06/26/2013  09:53:00      133.969       67.762       79.774       93.676       88.205       77.285     8775.198     7780.062     5973.032        2.571        1.126      150.131       65.738        0.192      345.750       23.502      863.097
06/26/2013  09:54:00       84.467       82.142       93.349      102.618       76.814       73.027    10530.371     5900.405     5333.014        2.218        1.088      117.822       43.570        0.137      345.900       23.760      863.097
06/26/2013  09:55:00       32.913      117.724      164.415       79.715       97.693       62.784     6354.489     9543.918     3941.860        3.090        0.992      122.238       54.735        0.201      345.860       23.690      863.119
06/26/2013  09:56:00      135.985       97.698      100.478      101.426      107.834       92.077    10287.281    11628.213     8478.260        3.426        1.520      167.442       73.239        0.191      345.521       23.109      863.112
06/26/2013  09:57:00       53.814      -64.704       -0.200       76.492      104.609       63.577     5850.959    10942.983     4041.998        1.396        1.042       84.158       66.720        0.629      345.941       23.830      863.121
06/26/2013  09:58:00      -25.682     -112.562       -9.409      107.097      105.830       46.713    11469.812    11200.014     2182.089        1.913        1.243      115.454       43.587        0.143      345.725       23.461      863.157
06/26/2013  09:59:00     -133.266      -29.180       -0.596      103.329       41.273       37.659    10676.888     1703.483     1418.220        1.620        0.690      136.424       35.102        0.066      345.258       22.657      863.154
06/26/2013  10:00:00       10.620       25.489       30.972       32.927       30.775       25.573     1084.204      947.079      653.961        0.220        0.134       27.613       24.918        0.814      346.038       23.999      863.163
06/26/2013  10:01:00        5.341      -39.198       29.029       38.698       44.670       25.969     1497.541     1995.376      674.402        0.329        0.208       39.560       25.199        0.406      345.935       23.822      863.149
06/26/2013  10:02:00       98.309       68.967       35.577       83.570       63.817       52.550     6983.935     4072.594     2761.536        1.475        0.691      120.088       31.535        0.069      345.492       23.060      863.141
06/26/2013  10:03:00       34.806       21.376       23.706       27.801       21.322       18.997      772.872      454.629      360.904        0.191        0.079       40.846        9.240        0.051      345.826       23.634      863.126
06/26/2013  10:04:00      103.886      124.306       87.501      102.726       92.624       87.637    10552.719     8579.182     7680.262        3.035        1.341      162.000       70.236        0.188      345.846       23.668      863.105
06/26/2013  10:05:00      152.530       96.414       42.375       88.925       62.784       57.787     7907.683     3941.822     3339.284        2.477        0.759      180.447       49.706        0.076      345.573       23.198      863.099
06/26/2013  10:06:00      126.356      105.080       84.053       75.047       57.138       56.381     5632.008     3264.698     3178.780        2.307        0.604      164.340       38.076        0.054      345.684       23.389      863.083
06/26/2013  10:07:00      140.898      -35.480       27.019       82.056       94.923       47.323     6733.135     9010.363     2239.475        1.991        0.899      145.297       51.253        0.124      345.706       23.428      863.061
06/26/2013  10:08:00      109.218     -136.096        4.082       95.833      108.651       74.442     9183.989    11805.005     5541.593        2.849        1.327      174.501       79.240        0.206      345.941       23.828      863.046
06/26/2013  10:09:00      109.848       57.959       77.102       95.359       75.151       62.820     9093.357     5647.704     3946.332        2.003        0.934      124.201       53.105        0.183      345.959       23.861      863.068
06/26/2013  10:10:00      171.650      121.769       34.988       42.508       34.021       44.298     1806.933     1157.451     1962.296        2.522        0.246      210.455       16.737        0.006      345.358       22.829      863.066
06/26/2013  10:11:00       39.590       72.886      -16.710       63.290       20.951       16.834     4005.666      438.963      283.399        0.594        0.236       82.944       17.670        0.045      345.461       23.007      863.066
06/26/2013  10:12:00       59.875       66.269        4.994       55.786       43.739       32.946     3112.073     1913.081     1085.465        0.705        0.306       89.312       21.336        0.057      346.049       24.019      863.042
06/26/2013  10:13:00       22.278      147.586      -12.537       74.990       73.659       44.185     5623.542     5425.630     1952.291        1.772        0.650      149.258       46.364        0.096      345.780       23.553      863.038
06/26/2013  10:14:00      -14.133       91.307       18.170       53.436       76.579       42.254     2855.433     5864.366     1785.418        0.968        0.525       92.394       47.881        0.269      346.477       24.754      863.018
06/26/2013  10:15:00       42.877       31.934       21.184       36.901       34.611       35.982     1361.677     1197.943     1294.669        0.358        0.193       53.462       24.900        0.217      346.189       24.258      863.014
06/26/2013  10:16:00       44.776       28.661       63.168       91.152       75.603       51.160     8308.697     5715.818     2617.383        1.173        0.832       53.163       48.232        0.823      346.393       24.608      863.006
06/26/2013  10:17:00       22.546      109.689      167.640       66.927      115.768       50.621     4479.236    13402.237     2562.499        3.054        1.022      111.982       57.615        0.265      346.206       24.284      863.027
06/26/2013  10:18:00      109.829      -11.786       65.432       91.437      131.833       83.968     8360.745    17379.851     7050.648        2.463        1.640      110.459       91.540        0.687      346.103       24.109      863.049
06/26/2013  10:19:00      121.823       50.726       85.740      103.215      114.863       68.804    10653.385    13193.429     4734.039        2.667        1.429      131.962       57.624        0.191      346.055       24.025      863.060
06/26/2013  10:20:00      182.214      106.413       43.899       77.258       51.957       47.490     5968.846     2699.552     2255.312        2.869        0.546      211.011       32.517        0.024      345.790       23.569      863.068
06/26/2013  10:21:00      105.835       61.371       20.014       76.481       44.872       41.354     5849.314     2013.529     1710.183        1.247        0.479      122.342       31.337        0.066      346.068       24.051      863.060
06/26/2013  10:22:00       72.577       54.143       23.161       56.158       44.261       40.510     3153.734     1959.017     1641.092        0.774        0.338       90.548       31.613        0.122      346.508       24.807      863.049
06/26/2013  10:23:00       55.382       54.337       16.978       69.313       61.953       52.055     4804.319     3838.177     2709.710        0.883        0.568       77.587       39.392        0.258      346.398       24.618      863.037
06/26/2013  10:24:00       97.650       80.111       14.288       69.757       38.224       41.674     4865.997     1461.112     1736.749        1.211        0.403      126.307       31.245        0.061      345.945       23.837      863.026
06/26/2013  10:25:00      100.646      -89.329       15.048      104.177      134.295       70.204    10852.799    18035.035     4928.611        2.607        1.691      134.571       88.149        0.429      346.269       24.393      863.000
06/26/2013  10:26:00      150.137     -114.634       13.844      110.203      136.531       86.232    12144.681    18640.696     7435.972        3.704        1.911      188.897       94.081        0.248      346.207       24.287      862.977
06/26/2013  10:27:00      105.036       91.376      134.843      126.274      155.416       90.770    15945.235    24154.233     8239.281        4.294        2.417      139.220       97.763        0.493      346.169       24.221      862.990
06/26/2013  10:28:00      169.422      -88.492       41.550       90.051      111.933       65.469     8109.263    12529.050     4286.136        3.159        1.246      191.140       76.908        0.162      345.958       23.858      863.036
06/26/2013  10:29:00      109.159        5.970       73.706       94.511      105.544       79.425     8932.404    11139.611     6308.348        2.188        1.319      109.322       80.788        0.546      346.010       23.948      863.045
06/26/2013  10:30:00        3.762       26.102       35.776       46.595       52.654       39.289     2171.130     2772.479     1543.663        0.423        0.324       26.372       27.062        1.053      346.224       24.319      863.048
06/26/2013  10:31:00       -8.048       49.900       45.782       39.971       61.346       66.155     1597.677     3763.357     4376.431        0.719        0.487       50.545       45.977        0.827      346.397       24.617      863.046
06/26/2013  10:32:00       74.275       66.091      116.623       85.984      136.473       79.976     7393.220    18624.945     6396.167        2.794        1.621       99.422       75.270        0.573      346.222       24.312      863.051
06/26/2013  10:33:00      137.862       51.523       56.492       64.141      121.850       64.272     4114.088    14847.345     4130.894        2.397        1.155      147.175       69.556        0.223      346.090       24.085      863.075
06/26/2013  10:34:00      173.041       78.303       20.697       94.244       67.684       60.674     8881.891     4581.189     3681.343        2.682        0.857      189.933       40.944        0.046      345.863       23.693      863.083
06/26/2013  10:35:00      166.442      123.341       12.853       68.992       52.079       53.304     4759.964     2712.181     2841.311        2.670        0.516      207.161       36.362        0.031      345.959       23.859      863.081
06/26/2013  10:36:00       70.165      -25.831       10.476       63.337      109.887       38.929     4011.599    12075.237     1515.482        1.165        0.880       74.769       33.634        0.202      346.111       24.125      863.100
06/26/2013  10:37:00       44.547      -47.810       29.027       44.314      112.348       48.441     1963.716    12622.070     2346.546        1.102        0.847       65.347       63.744        0.952      346.308       24.463      863.091
06/26/2013  10:38:00       58.262       67.366       97.689      103.871       82.000       65.623    10789.097     6723.952     4306.362        1.964        1.091       89.065       62.225        0.488      346.480       24.756      863.096
06/26/2013  10:39:00      125.759      -30.208       41.357      110.094      126.066       97.729    12120.752    15892.724     9551.044        2.799        1.878      129.336      105.429        0.664      346.230       24.325      863.119
06/26/2013  10:40:00       13.348       -2.727       49.568       38.924       49.275       44.382     1515.046     2428.015     1969.774        0.428        0.296       13.624       30.202        4.914      346.736       25.198      863.103
06/26/2013  10:41:00       87.355       77.817       73.071       81.453      106.050       61.895     6634.518    11246.679     3831.001        2.036        1.086      116.989       48.914        0.175      346.477       24.750      863.103
06/26/2013  10:42:00      169.603      112.517       58.106       97.883       58.744       57.294     9581.135     3450.801     3282.642        3.055        0.816      203.532       46.590        0.052      346.246       24.354      863.095
06/26/2013  10:43:00      194.466      109.668       47.742       85.332       65.580       54.480     7281.524     4300.742     2968.032        3.333        0.728      223.258       39.120        0.031      346.122       24.141      863.085
06/26/2013  10:44:00       99.727       78.568       62.139       91.256       73.020       56.013     8327.621     5331.911     3137.506        1.839        0.840      126.959       43.290        0.116      346.262       24.382      863.073
06/26/2013  10:45:00      189.860      113.852       50.471      104.771       92.057       80.220    10977.064     8474.403     6435.292        3.872        1.294      221.380       54.000        0.060      346.165       24.213      863.066
06/26/2013  10:46:00      108.919      181.257      162.359      100.172      115.888      104.194    10034.482    13429.965    10856.313        5.269        1.716      211.465       91.627        0.188      346.294       24.434      863.049
06/26/2013  10:47:00       92.034       43.532      119.449       88.294      169.330      112.506     7795.913    28672.627    12657.560        3.687        2.456      101.810      128.228        1.586      346.445       24.695      863.062
06/26/2013  10:48:00      133.946      110.418      100.445      107.869      117.746       74.938    11635.618    13864.099     5615.639        3.566        1.556      173.591       68.197        0.154      346.326       24.491      863.074
06/26/2013  10:49:00      142.409      155.896      113.617       88.209       78.650       80.801     7780.888     6185.822     6528.748        3.899        1.025      211.149       58.707        0.077      346.192       24.258      863.086
06/26/2013  10:50:00       50.403       49.247       64.078       71.536       58.684       53.299     5117.398     3443.854     2840.771        1.023        0.570       70.468       50.765        0.519      346.297       24.442      863.082
06/26/2013  10:51:00      138.159      102.894       34.996       52.322       39.852       43.184     2737.624     1588.177     1864.818        1.854        0.310      172.264       20.309        0.014      346.303       24.452      863.072
06/26/2013  10:52:00      119.053      129.475       87.806      120.605       80.935       78.353    14545.584     6550.487     6139.199        3.294        1.362      175.890       65.495        0.139      346.613       24.984      863.080
06/26/2013  10:53:00      123.046       84.074       17.242       67.708       51.642       43.642     4584.421     2666.888     1904.616        1.583        0.458      149.027       29.297        0.039      346.478       24.754      863.101
06/26/2013  10:54:00       54.080       23.527       22.124       49.946       44.474       36.071     2494.628     1977.934     1301.100        0.487        0.289       58.976       29.803        0.255      346.650       25.050      863.092
06/26/2013  10:55:00       99.678       77.943       20.067       77.967       52.658       44.165     6078.792     2772.908     1950.528        1.361        0.540      126.534       27.711        0.048      346.466       24.733      863.083
06/26/2013  10:56:00      146.134       98.153       50.939       69.440       53.420       57.265     4821.856     2853.722     3279.317        2.227        0.548      176.037       30.274        0.030      346.602       24.966      863.076
06/26/2013  10:57:00       49.749      116.704      125.625       78.743       74.715       65.100     6200.442     5582.398     4237.987        2.395        0.801      126.865       65.578        0.267      346.681       25.101      863.067
06/26/2013  10:58:00       36.491       95.310      119.652       75.095       66.539       50.935     5639.270     4427.463     2594.330        1.869        0.633      102.057       32.608        0.102      346.833       25.364      863.077
06/26/2013  10:59:00       80.313      115.948      127.389       70.013       90.566       72.355     4901.774     8202.196     5235.284        2.723        0.917      141.046       65.969        0.219      346.353       24.538      863.098
06/26/2013  11:00:00       36.158      -42.904       40.570       81.731       94.499       53.500     6679.983     8930.031     2862.258        1.163        0.924       56.108       43.929        0.613      346.708       25.151      863.089
06/26/2013  11:01:00       94.350     -169.796        2.469       61.285       79.348       52.924     3755.893     6296.147     2800.934        2.529        0.643      194.248       45.299        0.054      346.319       24.479      863.075
06/26/2013  11:02:00       52.279      -63.845       17.339       40.070       67.693       39.075     1605.589     4582.336     1526.887        0.741        0.386       82.518       42.414        0.264      346.509       24.809      863.066
06/26/2013  11:03:00       23.769       23.118       18.691       44.667       24.376       36.366     1995.111      594.208     1322.497        0.268        0.196       33.158       17.706        0.285      346.554       24.886      863.055
06/26/2013  11:04:00       76.056       29.669       19.527       69.334       54.638       42.111     4807.234     2985.273     1773.360        0.830        0.478       81.638       34.478        0.178      347.049       25.736      863.047
06/26/2013  11:05:00      126.427       76.127       20.299       80.111       60.849       46.189     6417.768     3702.550     2133.418        1.722        0.613      147.578       38.008        0.066      346.709       25.151      863.064
06/26/2013  11:06:00       96.004       29.414       29.537       81.649       81.220       42.103     6666.594     6596.753     1772.645        1.299        0.752      100.409       36.441        0.132      346.477       24.752      863.084
06/26/2013  11:07:00      108.798       69.218       68.600      105.590       84.175       51.106    11149.314     7085.510     2611.806        2.109        1.042      128.950       32.139        0.062      346.651       25.050      863.079
06/26/2013  11:08:00      113.908       -8.254       57.972      125.110       66.908       58.467    15652.397     4476.704     3418.433        1.997        1.177      114.206       49.813        0.190      346.750       25.221      863.073
06/26/2013  11:09:00       72.305      -16.885       55.006       74.010       85.517       51.291     5477.447     7313.173     2630.726        1.198        0.771       74.250       57.093        0.591      346.980       25.618      863.062
06/26/2013  11:10:00      109.207      -20.240       42.958       84.407       65.076       48.173     7124.534     4234.921     2320.651        1.393        0.684      111.067       52.839        0.226      346.681       25.103      863.088
06/26/2013  11:11:00       22.810       39.657       80.511       46.930       68.483       37.467     2202.392     4689.955     1403.765        0.843        0.415       45.749       40.640        0.789      346.781       25.275      863.088
06/26/2013  11:12:00      100.093     -149.760       -4.141       75.154       99.081       45.427     5648.136     9816.958     2063.571        2.499        0.876      180.129       56.110        0.097      346.479       24.753      863.089
06/26/2013  11:13:00       42.840       -2.443       10.710       75.981       55.638       34.904     5773.062     3095.543     1218.267        0.602        0.504       42.910       26.096        0.370      346.597       24.959      863.109
06/26/2013  11:14:00       -9.135       -8.252       16.243       12.154       19.852       16.933      147.722      394.114      286.723        0.062        0.041       12.310       10.471        0.724      347.238       26.063      863.105
06/26/2013  11:15:00       39.335      -24.834       30.106       37.417       52.559       45.081     1400.019     2762.416     2032.267        0.463        0.310       46.519       35.255        0.574      346.910       25.499      863.104
06/26/2013  11:16:00       28.742      -29.458       34.176       39.213       66.442       39.892     1537.656     4414.509     1591.362        0.520        0.377       41.157       33.580        0.666      347.013       25.675      863.086
06/26/2013  11:17:00        7.539      -29.037        4.555       27.450       37.439       32.432      753.481     1401.646     1051.851        0.206        0.160       30.000       14.472        0.233      346.662       25.072      863.087
06/26/2013  11:18:00       -2.046       -6.910       16.554       21.060       20.474       21.591      443.535      419.190      466.170        0.083        0.066        7.206       12.998        3.253      346.991       25.639      863.075
06/26/2013  11:19:00       37.244      -28.791        0.698       35.941       34.689       30.954     1291.767     1203.304      958.143        0.283        0.173       47.075       23.799        0.256      346.473       24.746      863.053
06/26/2013  11:20:00       34.863       60.258       68.704       46.127       42.267       26.545     2127.691     1786.478      704.626        0.709        0.231       69.616       20.011        0.083      346.845       25.386      863.051
06/26/2013  11:21:00       28.613     -101.790       -5.087       41.126       74.637       40.456     1691.372     5570.686     1636.663        1.005        0.445      105.735       36.023        0.116      346.744       25.212      863.053
06/26/2013  11:22:00       14.688       -5.693       31.221       35.001       48.871       27.914     1225.039     2388.350      779.201        0.281        0.220       15.752       28.237        3.213      347.153       25.917      863.049
06/26/2013  11:23:00      161.856      101.127       18.803       82.958       62.284       42.591     6882.045     3879.270     1813.969        2.467        0.629      190.851       34.087        0.032      346.757       25.232      863.047
06/26/2013  11:24:00      191.454      106.447       16.252       49.693       52.381       52.110     2469.352     2743.802     2715.430        2.809        0.396      219.056       19.064        0.008      346.638       25.027      863.034
06/26/2013  11:25:00      250.922      161.860       60.004      111.600       83.881       79.369    12454.667     7036.013     6299.389        5.927        1.290      298.598       68.098        0.052      346.490       24.771      863.007
06/26/2013  11:26:00      193.659       98.248       50.605      141.228       81.264       64.675    19945.237     6603.918     4182.847        4.022        1.537      217.155       39.415        0.033      346.551       24.877      862.996
06/26/2013  11:27:00      179.057      111.355       15.905       78.149       59.482       52.169     6107.330     3538.135     2721.592        2.854        0.618      210.859       26.148        0.015      346.468       24.733      862.997
06/26/2013  11:28:00      104.193       88.373       15.370       85.574       60.926       38.521     7322.945     3711.996     1483.894        1.571        0.626      136.623       28.054        0.042      346.479       24.756      862.983
06/26/2013  11:29:00       59.301      119.487        2.550       70.018       77.040       42.936     4902.473     5935.161     1843.521        1.524        0.634      133.393       43.708        0.107      346.542       24.863      862.988
06/26/2013  11:30:00       12.617      103.378        4.414       52.124       80.596       44.882     2716.883     6495.691     2014.415        1.104        0.561      104.145       35.253        0.115      346.633       25.021      863.001
06/26/2013  11:31:00       40.957       58.438        6.382       56.398       38.251       30.833     3180.740     1463.124      950.650        0.536        0.280       71.361       20.180        0.080      346.669       25.084      863.021
06/26/2013  11:32:00       63.194       85.719        3.972       59.203       70.092       48.304     3505.052     4912.843     2333.304        1.105        0.538      106.495       40.889        0.147      346.636       25.027      863.016
06/26/2013  11:33:00      126.018      100.826       21.661       76.172       56.384       46.132     5802.224     3179.138     2128.156        1.881        0.555      161.389       40.671        0.064      346.553       24.881      863.011
06/26/2013  11:34:00       76.388       45.913       20.821       36.556       27.504       25.010     1336.336      756.479      625.498        0.555        0.136       89.124       14.049        0.025      346.733       25.194      863.038
06/26/2013  11:35:00       13.928      -47.924       12.825       43.487       52.297       32.643     1891.109     2735.002     1065.558        0.417        0.285       49.907       25.712        0.265      346.574       24.920      863.047
06/26/2013  11:36:00       11.588       -7.474       31.306       27.288       37.599       24.962      744.614     1413.671      623.107        0.198        0.139       13.789       18.004        1.705      347.007       25.664      863.046
06/26/2013  11:37:00       61.532       66.652       10.625       41.573       60.535       44.338     1728.330     3664.477     1965.825        0.785        0.368       90.712       41.268        0.207      346.750       25.223      863.043
06/26/2013  11:38:00       27.444      123.181      -11.025       41.846       50.193       32.590     1751.118     2519.357     1062.130        1.069        0.267      126.202       22.621        0.032      346.675       25.092      863.017
06/26/2013  11:39:00      127.460       68.380       36.900       75.477       53.716       40.095     5696.767     2885.385     1607.600        1.623        0.509      144.644       42.863        0.088      346.875       25.436      862.989
06/26/2013  11:40:00      134.340      112.014       47.833       39.111       38.050       37.764     1529.682     1447.797     1426.152        1.864        0.220      174.912       27.596        0.025      346.857       25.406      862.974
06/26/2013  11:41:00       30.679      -36.788       26.098       39.213       54.961       27.636     1537.620     3020.762      763.747        0.415        0.266       47.902       23.207        0.235      346.935       25.541      862.975
06/26/2013  11:42:00       59.592      -38.253       12.079       42.215       83.198       35.686     1782.124     6921.825     1273.470        0.757        0.499       70.813       33.956        0.230      346.593       24.952      862.968
06/26/2013  11:43:00       47.520     -116.287       -3.272       57.830       34.393       23.470     3344.332     1182.865      550.857        1.043        0.254      125.622       19.065        0.023      346.323       24.488      862.979
06/26/2013  11:44:00      -31.170      -13.728       18.904       39.691       48.445       24.552     1575.394     2346.921      602.821        0.302        0.226       34.059       29.287        0.739      346.895       25.471      863.005
06/26/2013  11:45:00      -30.382      -60.347        1.599       29.858       35.384       16.330      891.477     1252.032      266.679        0.349        0.121       67.564       12.804        0.036      346.844       25.384      863.018
06/26/2013  11:46:00      -29.371      -62.943        9.647       35.315       53.053       18.808     1247.156     2814.590      353.757        0.467        0.221       69.458        9.775        0.020      346.959       25.582      863.021
06/26/2013  11:47:00     -105.225     -124.853       15.856      115.760      152.451       57.483    13400.357    23241.355     3304.271        3.342        1.997      163.281       51.456        0.099      347.123       25.860      863.015
06/26/2013  11:48:00     -216.676       27.708      -24.384      137.967       99.100       53.573    19034.935     9820.775     2870.015        4.001        1.586      218.441       65.017        0.089      346.772       25.258      863.031
06/26/2013  11:49:00     -401.009     -115.116      -15.148      146.033      121.299       56.492    21325.592    14713.352     3191.309       10.675        1.962      417.205       42.755        0.011      346.622       24.999      862.943
06/26/2013  11:50:00     -188.567       37.922      -25.887      136.641      111.510       48.070    18670.883    12434.472     2310.772        3.553        1.671      192.342       50.076        0.068      346.842       25.378      862.917
06/26/2013  11:51:00     -178.896      251.453      -37.883       93.466      109.649       56.554     8735.944    12022.962     3198.334        6.031        1.198      308.598       57.435        0.035      346.864       25.415      862.897
06/26/2013  11:52:00     -120.173       80.784      -25.973      107.832      119.257       42.228    11627.837    14222.120     1783.167        2.463        1.382      144.802       34.276        0.056      347.081       25.789      862.904
06/26/2013  11:53:00     -207.676      -44.656      -17.466      133.117       97.127       57.609    17720.023     9433.585     3318.823        3.794        1.524      212.423       63.432        0.089      347.160       25.925      862.950
06/26/2013  11:54:00     -443.439     -313.831       -7.151      244.280      223.842      103.400    59672.526    50105.297    10691.514       20.780        6.023      543.257      120.841        0.049      347.156       25.918      862.841
06/26/2013  11:55:00     -289.106     -160.633       -2.428      199.638      173.425       96.514    39855.378    30076.095     9315.048        9.430        3.962      330.734      100.023        0.091      347.390       26.321      862.859
06/26/2013  11:56:00     -313.033      103.803      -14.503      143.751       79.385       49.218    20664.357     6301.941     2422.390        6.918        1.469      329.795       50.546        0.023      347.569       26.631      862.888
06/26/2013  11:57:00        7.771      -33.096       26.287       80.437       61.206       46.669     6470.072     3746.122     2177.979        0.712        0.620       33.996       41.633        1.500      347.673       26.814      862.844
06/26/2013  11:58:00      -87.271     -156.542       11.993      146.008      160.180       66.449    21318.442    25657.603     4415.472        4.182        2.570      179.225       67.615        0.142      347.628       26.733      862.870
06/26/2013  11:59:00     -260.485     -116.399       11.762      192.008      204.013      100.441    36867.111    41621.320    10088.367        8.504        4.429      285.309      102.295        0.129      347.415       26.365      862.851
06/26/2013  12:00:00     -444.811       89.364      -28.305      166.996      133.921       82.292    27887.556    17934.840     6771.974       12.961        2.630      453.699       71.761        0.025      347.147       25.903      862.883
06/26/2013  12:01:00     -240.649       31.769       -2.538      160.501       92.281       68.914    25760.593     8515.770     4749.116        4.897        1.951      242.737       85.610        0.124      347.437       26.402      862.866
06/26/2013  12:02:00     -147.504      -54.203       12.886      125.884       75.696       54.441    15846.679     5729.905     2963.871        2.470        1.227      157.148       63.960        0.166      347.601       26.687      862.859
06/26/2013  12:03:00     -111.053     -113.970       14.206      124.872       85.570       66.418    15593.030     7322.258     4411.299        2.642        1.366      159.129       64.911        0.166      347.353       26.259      862.922
06/26/2013  12:04:00      -42.654      -67.190       25.094       53.777       63.624       37.741     2891.945     4048.017     1424.355        0.766        0.418       79.585       39.228        0.243      347.285       26.144      862.961
06/26/2013  12:05:00       53.023     -100.035       16.679       81.463       94.898       49.782     6636.225     9005.544     2478.212        1.560        0.906      113.219       39.125        0.119      347.159       25.925      862.989
06/26/2013  12:06:00       11.201      -43.167       20.644       30.635       79.310       41.930      938.507     6290.051     1758.097        0.570        0.449       44.597       51.523        1.335      347.225       26.038      862.958
06/26/2013  12:07:00       87.663     -149.784        8.115       56.638       72.200       35.936     3207.825     5212.803     1291.398        1.995        0.486      173.551       26.864        0.024      346.852       25.396      862.955
06/26/2013  12:08:00      -74.690     -126.380       -9.355       62.280       80.513       26.064     3878.801     6482.288      679.348        1.634        0.552      146.801       27.842        0.036      346.828       25.354      862.961
06/26/2013  12:09:00      -24.764      -81.902        7.559       52.937       84.574       36.608     2802.337     7152.761     1340.136        0.933        0.565       85.564       42.468        0.246      347.147       25.905      862.990
06/26/2013  12:10:00     -121.893      -77.156       -7.872       48.284       57.477       24.935     2331.346     3303.578      621.757        1.356        0.313      144.260       25.730        0.032      346.873       25.434      863.037
06/26/2013  12:11:00      -96.786      -62.979        0.349       67.990       86.771       38.683     4622.664     7529.231     1496.348        1.349        0.682      115.473       39.124        0.115      347.022       25.690      863.063
06/26/2013  12:12:00      -39.014      -48.628       -1.422       67.020       77.455       38.994     4491.703     5999.264     1520.505        0.795        0.601       62.344       27.162        0.190      346.973       25.605      863.054
06/26/2013  12:13:00      -90.169     -157.205      -15.404       83.231       69.695       36.907     6927.402     4857.458     1362.153        2.311        0.657      181.228       32.497        0.032      347.006       25.661      863.050
06/26/2013  12:14:00     -203.451      -41.247       14.277      156.933      118.082       84.308    24627.964    13943.245     7107.883        4.448        2.284      207.590       82.868        0.159      346.976       25.608      863.053
06/26/2013  12:15:00     -274.490      -31.122      -11.702      176.508      168.641       64.857    31155.113    28439.850     4206.432        7.011        3.190      276.249       65.678        0.057      346.958       25.578      862.966
06/26/2013  12:16:00     -393.144     -105.161      -23.126      172.020      153.235       62.945    29591.044    23481.004     3962.080       11.158        2.852      406.966       61.492        0.023      347.230       26.045      862.906
06/26/2013  12:17:00     -459.976     -129.550       -7.767      220.232      159.847       96.788    48502.170    25551.182     9367.996       15.590        4.171      477.871      109.739        0.053      347.281       26.133      862.841
06/26/2013  12:18:00     -366.547      -97.267       -7.490      168.579      149.313       92.119    28418.816    22294.386     8485.888       10.152        2.960      379.233       98.569        0.068      347.407       26.350      862.898
06/26/2013  12:19:00     -220.552     -129.046        8.422      216.173      167.665      100.343    46730.913    28111.635    10068.743        7.512        4.246      255.531      108.544        0.180      347.454       26.432      862.945
06/26/2013  12:20:00      -48.320     -106.030       -0.702      142.930       99.093       62.821    20428.847     9819.410     3946.492        2.388        1.710      116.522       53.177        0.208      347.451       26.426      862.992
06/26/2013  12:21:00      -64.125     -109.527        6.350      136.700       95.047       52.539    18687.014     9033.966     2760.302        2.331        1.524      126.918       54.385        0.184      347.467       26.456      863.024
06/26/2013  12:22:00     -252.920     -263.761      -13.921      165.182      128.504       70.715    27285.229    16513.240     5000.547        9.126        2.440      365.429       81.396        0.050      347.203       26.000      863.112
06/26/2013  12:23:00     -108.041      -36.908       21.157      126.961       87.313       62.199    16119.083     7623.606     3868.722        2.054        1.381      114.171       75.971        0.443      346.996       25.645      863.106
06/26/2013  12:24:00     -162.051     -110.760       -2.653      148.449       81.900       50.188    22037.031     6707.590     2518.804        3.489        1.563      196.287       47.473        0.058      347.151       25.912      863.111
06/26/2013  12:25:00     -220.367     -153.095      -11.516      121.143      114.989       52.538    14675.709    13222.445     2760.213        5.139        1.533      268.328       48.684        0.033      347.111       25.841      863.154
06/26/2013  12:26:00     -150.866     -189.798       11.058      112.089      118.730       63.501    12563.985    14096.852     4032.319        4.479        1.535      242.453       64.177        0.070      347.129       25.871      863.115
06/26/2013  12:27:00      -71.780     -121.283       20.557       71.761       46.086       37.356     5149.610     2123.964     1395.447        1.448        0.433      140.933       31.216        0.049      347.226       26.041      863.084
06/26/2013  12:28:00     -447.989     -214.429       -8.244      291.678      168.593       95.202    85076.055    28423.522     9063.469       18.463        6.128      496.663      115.885        0.054      347.190       25.978      863.065
06/26/2013  12:29:00     -405.677     -240.652        2.146      223.920      176.472       96.791    50140.041    31142.256     9368.493       15.655        4.533      471.685      105.281        0.050      347.158       25.921      863.064
06/26/2013  12:30:00     -132.303      -62.768       30.263      137.617      116.625       79.680    18938.372    13601.495     6348.850        3.062        1.944      146.437       73.168        0.250      347.625       26.728      863.057
06/26/2013  12:31:00     -155.069     -120.551        9.371      133.494       97.089       51.654    17820.696     9426.194     2668.110        3.428        1.496      196.415       70.491        0.129      347.681       26.823      863.040
06/26/2013  12:32:00     -231.932     -133.602       12.041      199.421      153.458       84.602    39768.661    23549.419     7157.453        7.112        3.524      267.660      109.367        0.167      347.800       27.029      863.025
06/26/2013  12:33:00     -287.355     -258.659       11.554      204.088      155.302       91.514    41651.936    24118.858     8374.797       11.186        3.707      386.623       92.592        0.057      347.389       26.319      863.013
06/26/2013  12:34:00     -327.974     -148.791       -9.214      154.245       96.506       59.821    23791.629     9313.403     3578.516        8.323        1.834      360.147       56.542        0.025      347.047       25.730      862.992
06/26/2013  12:35:00     -203.693     -136.207        5.998      144.167       92.560       67.743    20784.263     8567.320     4589.171        4.700        1.697      245.037       64.448        0.069      347.232       26.050      862.937
06/26/2013  12:36:00     -336.921      -35.450      -21.721      217.566      130.763       72.374    47335.059    17098.834     5237.993        9.244        3.484      338.781       90.834        0.072      347.535       26.570      862.941
06/26/2013  12:37:00     -360.778      -58.861      -13.457      204.660      108.049       78.584    41885.513    11674.677     6175.400        9.676        2.987      365.548       98.953        0.073      347.730       26.908      862.960
06/26/2013  12:38:00     -287.578     -243.537        1.188      192.492      171.156       88.591    37053.061    29294.530     7848.358       10.809        3.710      376.844       96.327        0.065      347.633       26.741      862.973
06/26/2013  12:39:00     -112.317      -93.962       32.385      130.660      140.324       88.392    17072.140    19690.882     7813.068        3.353        2.229      146.438       98.327        0.451      348.039       27.442      862.985
06/26/2013  12:40:00     -198.616       -5.769       -3.183      211.520       95.125       60.226    44740.862     9048.827     3627.171        4.844        2.871      198.700       70.898        0.127      347.849       27.114      862.985
06/26/2013  12:41:00      -69.585      -73.851       13.150       92.140      127.788       55.993     8489.837    16329.745     3135.219        1.921        1.398      101.469       58.043        0.327      347.844       27.107      862.962
06/26/2013  12:42:00      -52.478      -37.404       33.372      117.626      122.841       48.121    13835.969    15089.851     2315.608        1.825        1.562       64.444       66.553        1.067      348.314       27.918      862.980
06/26/2013  12:43:00     -211.407     -108.793       -0.574      134.648      104.942       59.067    18130.060    11012.852     3488.877        4.457        1.632      237.758       66.047        0.077      347.751       26.944      862.979
06/26/2013  12:44:00     -348.021     -247.041        9.827      209.442      153.817       90.871    43866.050    23659.643     8257.577       12.900        3.789      426.788      100.264        0.055      347.743       26.931      862.944
06/26/2013  12:45:00     -246.664     -150.439        4.749      167.999      159.337       85.170    28223.558    25388.326     7254.012        7.217        3.043      288.920       67.820        0.055      347.727       26.902      862.952
06/26/2013  12:46:00     -358.777     -141.672      -11.149      198.473      202.810       93.829    39391.360    41131.904     8803.841       11.910        4.466      385.736       97.015        0.063      347.489       26.492      862.989
06/26/2013  12:47:00     -324.856      -92.240       10.025      258.188      253.427      109.463    66661.254    64225.005    11982.203       12.848        7.143      337.698      112.306        0.111      347.478       26.472      862.971
06/26/2013  12:48:00     -324.302       24.927      -13.914      178.753      152.587       93.296    31952.575    23282.938     8704.092        8.495        3.197      325.259       99.417        0.093      347.621       26.722      863.001
06/26/2013  12:49:00     -559.011     -155.536      -36.611      169.552      132.757       84.817    28747.878    17624.526     7193.841       19.579        2.678      580.246       80.594        0.019      347.470       26.460      862.993
06/26/2013  12:50:00     -523.523     -188.565       -3.030      181.293      190.037       89.433    32867.279    36113.875     7998.235       19.330        3.849      556.447      102.598        0.034      347.269       26.112      863.023
06/26/2013  12:51:00     -420.037      -86.244      -24.624      174.014      121.313       76.426    30280.987    14716.963     5840.942       11.765        2.542      428.799       89.389        0.043      347.389       26.320      863.008
06/26/2013  12:52:00     -472.833      -71.802      -25.665      178.605      123.827       83.999    31899.850    15333.033     7055.860       14.183        2.714      478.254       91.362        0.036      347.529       26.562      862.998
06/26/2013  12:53:00     -378.894     -329.304      -18.328      229.144      184.514       90.833    52507.049    34045.325     8250.592       17.355        4.740      501.998       79.596        0.025      347.224       26.036      862.990
06/26/2013  12:54:00     -225.930     -223.357       -0.827      217.699      163.596       94.094    47392.848    26763.787     8853.686        9.196        4.151      317.699      105.582        0.110      347.312       26.188      862.952
06/26/2013  12:55:00     -318.992      -99.475        1.944      225.964      142.385       82.291    51059.782    20273.501     6771.871        9.486        3.905      334.143       84.662        0.064      347.514       26.537      862.961
06/26/2013  12:56:00     -498.451     -230.479      -10.348      293.229      219.447      118.866    85983.449    48157.085    14129.224       22.495        7.413      549.157      140.641        0.066      347.333       26.222      862.965
06/26/2013  12:57:00     -372.050      -42.150       -0.026      229.104      242.516       83.985    52488.793    58813.918     7053.483       12.925        5.918      374.430       93.728        0.063      347.357       26.263      863.003
06/26/2013  12:58:00     -268.052      -59.500      -17.915      145.999      121.943       74.902    21315.721    14870.042     5610.250        5.875        2.090      274.577       81.115        0.087      347.454       26.430      862.999
06/26/2013  12:59:00     -136.104      -47.918       20.257      150.334      137.830       78.966    22600.283    18997.086     6235.569        3.452        2.392      144.292       82.464        0.327      347.803       27.034      862.984
06/26/2013  13:00:00     -331.363     -227.343      -35.544      227.854      159.406      107.125    51917.451    25410.406    11475.800       12.576        4.440      401.853       96.677        0.058      347.572       26.636      862.959
06/26/2013  13:01:00     -496.544     -118.868      -22.603      229.595      204.534       91.371    52713.676    41834.125     8348.665       18.203        5.145      510.574       95.970        0.035      347.427       26.387      862.971
06/26/2013  13:02:00     -450.512     -127.405      -14.274      212.508      181.576      102.370    45159.545    32969.746    10479.670       15.399        4.430      468.181      109.184        0.054      347.579       26.645      862.978
06/26/2013  13:03:00     -262.492     -153.771       -8.469      238.309      204.104       87.407    56791.123    41658.311     7639.976        9.933        5.304      304.217      119.740        0.155      347.769       26.976      863.002
06/26/2013  13:04:00     -572.751      -96.590      -35.363      282.824      174.440       90.769    79989.654    30429.347     8238.925       22.862        5.933      580.838      112.759        0.038      347.676       26.814      863.027
06/26/2013  13:05:00     -393.259     -100.276      -10.875      227.029      174.706       85.356    51542.153    30522.186     7285.726       12.707        4.468      405.842       94.444        0.054      347.620       26.717      863.037
06/26/2013  13:06:00     -538.019      -82.380      -13.226      311.131      182.936       95.296    96802.357    33465.449     9081.399       21.786        6.967      544.289      120.661        0.049      347.523       26.550      863.021
06/26/2013  13:07:00     -609.784      -92.460      -21.682      277.213      215.250      107.320    76847.175    46332.394    11517.684       25.775        6.735      616.754      124.692        0.041      347.460       26.442      863.015
06/26/2013  13:08:00     -291.195      -40.493       16.666      302.016      159.064       91.711    91213.548    25301.348     8410.977       10.579        6.246      293.997      126.813        0.186      347.845       27.108      863.005
06/26/2013  13:09:00     -173.177     -151.924       17.716      170.196      151.312       80.322    28966.628    22895.268     6451.690        5.584        2.916      230.372       96.016        0.174      347.884       27.175      862.996
06/26/2013  13:10:00     -379.467      -73.473        8.178      250.193      172.701       91.579    62596.657    29825.596     8386.648       12.511        5.040      386.515       92.482        0.057      347.860       27.131      862.922
06/26/2013  13:11:00     -283.796     -213.387       10.549      179.051      126.771       82.025    32059.086    16070.905     6728.169        9.051        2.743      355.069       83.582        0.055      347.664       26.794      862.970
06/26/2013  13:12:00     -447.236     -195.992        1.499      319.276      192.227      115.182   101936.862    36951.267    13266.874       19.526        7.608      488.296      144.887        0.088      347.639       26.749      862.954
06/26/2013  13:13:00     -251.565     -156.393       25.485      287.492      187.870      110.698    82651.383    35295.301    12254.126       10.927        6.510      296.216      139.390        0.221      347.852       27.119      863.013
06/26/2013  13:14:00     -479.047     -122.377      -40.945      271.777      204.064      109.622    73862.849    41642.165    12016.991       18.680        6.376      494.431      124.666        0.064      347.549       26.596      863.028
06/26/2013  13:15:00     -331.489     -268.524        1.839      210.133      184.222       98.331    44155.898    33937.789     9668.958       13.486        4.388      426.603      100.679        0.056      347.666       26.798      862.977
06/26/2013  13:16:00     -330.384       75.518       -3.442      239.150      159.179      103.598    57192.800    25338.107    10732.481       10.405        4.663      338.905      118.811        0.123      348.029       27.424      863.007
06/26/2013  13:17:00     -211.234     -107.064       12.215      191.918      133.265       87.519    36832.333    17759.655     7659.660        5.923        3.113      236.817       76.556        0.105      348.236       27.781      863.008
06/26/2013  13:18:00     -441.266     -382.875      -13.496      275.286      194.781      143.287    75782.450    37939.544    20531.219       23.785        6.713      584.217      155.648        0.071      347.723       26.896      863.038
06/26/2013  13:19:00     -426.841       11.023      -16.869      263.857      176.336       88.892    69620.518    31094.479     7901.859       14.559        5.431      426.983       89.770        0.044      347.804       27.034      863.056
06/26/2013  13:20:00     -625.299     -103.929      -12.794      215.818      155.804      105.582    46577.198    24274.979    11147.586       24.197        4.100      633.877      114.544        0.033      347.557       26.609      863.043
06/26/2013  13:21:00     -423.202     -124.353      -27.156      225.690      147.627       91.711    50936.003    21793.584     8410.863       13.820        4.057      441.094       97.498        0.049      347.727       26.902      863.026
06/26/2013  13:22:00     -327.801      -51.841       -9.030      224.029      143.967       86.006    50189.167    20726.483     7397.036        9.425        3.916      331.875      114.552        0.119      348.016       27.400      863.027
06/26/2013  13:23:00     -250.755      -69.169       10.419      199.283      169.132       84.612    39713.654    28605.742     7159.206        7.161        3.774      260.120       91.801        0.125      348.178       27.682      863.032
06/26/2013  13:24:00     -301.306      -46.827       -4.313      230.751      193.435       94.802    53246.111    37416.967     8987.442        9.630        4.983      304.923       97.282        0.102      347.992       27.360      863.046
06/26/2013  13:25:00     -502.907       -8.609      -31.196      178.490      173.479       89.178    31858.650    30094.907     7952.727       16.192        3.495      502.980       75.049        0.022      347.736       26.919      863.073
06/26/2013  13:26:00     -175.962        1.059       -3.622      129.392      124.233       60.220    16742.256    15433.833     3626.407        3.338        1.790      175.965       58.626        0.111      348.041       27.445      863.075
06/26/2013  13:27:00     -208.328     -111.465      -10.384      136.471      137.053       53.991    18624.213    18783.550     2915.071        4.812        2.016      236.274       57.254        0.059      348.030       27.426      863.052
06/26/2013  13:28:00     -409.802      -63.922      -10.911      269.503      173.380       93.383    72631.895    30060.561     8720.310       14.176        5.571      414.758      112.006        0.073      347.880       27.167      863.037
06/26/2013  13:29:00     -554.565     -153.134      -14.841      210.389      170.649       96.835    44263.631    29121.170     9376.922       20.697        4.138      575.319      101.879        0.031      347.768       26.973      863.009
06/26/2013  13:30:00     -476.956      -60.366        0.554      208.642      155.652       95.947    43531.575    24227.459     9205.875       15.403        3.848      480.761       99.275        0.043      347.876       27.160      863.027
06/26/2013  13:31:00     -315.579     -214.960        0.633      250.257      160.002       92.070    62628.328    25600.696     8476.846       12.123        4.835      381.835      102.555        0.072      347.620       26.718      863.067
06/26/2013  13:32:00     -388.482     -231.013       -8.798      207.173      168.036      100.096    42920.778    28236.261    10019.185       14.275        4.059      451.979      109.733        0.059      347.738       26.922      863.076
06/26/2013  13:33:00     -409.363     -268.209      -18.101      235.012      184.107      107.020    55230.734    33895.389    11453.231       17.019        5.029      489.402      108.935        0.050      347.701       26.857      863.081
06/26/2013  13:34:00     -384.699     -187.652        3.022      266.457      142.657      107.246    70999.289    20350.904    11501.686       14.301        5.143      428.026      129.895        0.092      347.685       26.829      863.051
06/26/2013  13:35:00     -383.016      -69.662      -19.081      260.327      179.422       91.103    67770.147    32192.339     8299.721       13.007        5.413      389.299       94.687        0.059      347.900       27.200      863.026
06/26/2013  13:36:00     -298.266     -110.314      -15.083      166.817      161.882       71.478    27828.070    26205.681     5109.134        8.024        2.957      318.012       77.553        0.059      348.234       27.777      863.053
06/26/2013  13:37:00     -427.920      -76.146       -9.352      252.664      153.959       91.183    63839.228    23703.381     8314.358       14.241        4.793      434.642      117.314        0.073      348.023       27.415      863.081
06/26/2013  13:38:00     -499.371     -123.107      -16.591      270.580      192.996      101.665    73213.523    37247.556    10335.678       19.278        6.040      514.322      104.847        0.042      347.737       26.920      863.092
06/26/2013  13:39:00     -304.035       41.333        0.254      230.110      142.022       87.072    52950.748    20170.133     7581.495        8.741        4.035      306.832       95.903        0.098      347.924       27.242      863.105
06/26/2013  13:40:00     -559.905      -77.015      -28.218      222.853      155.527       79.534    49663.512    24188.726     6325.644       20.018        4.009      565.177       79.143        0.020      347.716       26.882      863.092
06/26/2013  13:41:00     -328.596       -7.409       15.107      283.755      197.063       95.827    80517.094    38833.719     9182.893       11.837        6.427      328.679      103.019        0.098      347.960       27.303      863.075
06/26/2013  13:42:00     -624.120      -34.147      -18.977      259.275      200.314       94.790    67223.494    40125.689     8985.137       25.367        5.817      625.054      100.473        0.026      347.741       26.925      863.097
06/26/2013  13:43:00     -434.990     -141.269        9.145      218.360      151.322       98.057    47681.260    22898.473     9615.087       14.471        4.010      457.355      106.658        0.054      347.860       27.131      863.092
06/26/2013  13:44:00     -250.878     -120.549       16.922      205.951      148.742       79.581    42415.778    22124.287     6333.098        7.430        3.544      278.337       98.417        0.125      348.109       27.563      863.085
06/26/2013  13:45:00     -319.915     -198.760        1.111      166.470      175.491       94.468    27712.335    30796.966     8924.213       10.463        3.372      376.631       91.339        0.059      347.864       27.138      863.089
06/26/2013  13:46:00     -437.321     -150.735      -21.752      205.649      212.819       95.055    42291.492    45291.808     9035.476       15.551        4.831      462.570       97.779        0.045      347.819       27.061      863.026
06/26/2013  13:47:00     -171.374     -100.412        8.022      179.508      141.761       90.269    32223.243    20096.172     8148.565        4.998        3.023      198.625       86.990        0.192      348.253       27.813      863.000
06/26/2013  13:48:00     -574.706     -174.356      -23.754      310.404      222.994       90.721    96350.932    49726.302     8230.293       25.775        7.715      600.572       96.872        0.026      347.798       27.023      862.943
06/26/2013  13:49:00     -470.169     -172.100       -1.867      251.056      220.123      105.091    63029.170    48454.300    11044.081       18.658        6.126      500.677      114.651        0.052      347.856       27.125      863.001
06/26/2013  13:50:00     -390.896      -62.323       -4.537      192.116      166.187       97.287    36908.535    27618.238     9464.688       11.533        3.700      395.833       97.007        0.060      348.064       27.484      863.061
06/26/2013  13:51:00     -393.204      -31.871      -39.434      190.667      152.839       75.154    36354.040    23359.825     5648.049       11.126        3.268      394.494       63.625        0.026      347.840       27.098      863.036
06/26/2013  13:52:00     -411.933      -77.660      -13.778      176.543      181.711       71.678    31167.457    33018.720     5137.737       12.260        3.466      419.190       81.405        0.038      347.976       27.332      863.007
06/26/2013  13:53:00     -416.270      -57.585        9.495      302.173      151.805      102.079    91308.516    23044.754    10420.037       15.070        6.239      420.234      137.705        0.107      348.015       27.400      862.991
06/26/2013  13:54:00     -378.479     -124.827       -7.563      256.390      187.023       93.863    65735.697    34977.549     8810.294       13.418        5.476      398.533      113.598        0.081      348.132       27.603      862.985
06/26/2013  13:55:00     -562.315      -82.198      -49.615      227.932      173.868       89.408    51953.197    30230.134     7993.814       20.778        4.509      568.291       76.599        0.018      347.782       26.998      862.988
06/26/2013  13:56:00     -312.394     -249.650       10.267      214.854      194.996       99.949    46162.042    38023.267     9989.850       12.708        4.709      399.894      119.026        0.089      347.917       27.231      862.990
06/26/2013  13:57:00     -295.993      -42.352       -5.956      317.240      156.400       93.550   100641.201    24461.100     8751.683       11.162        6.693      299.007      131.607        0.194      348.064       27.484      862.997
06/26/2013  13:58:00     -609.672     -134.055      -37.999      163.810      175.278       75.628    26833.776    30722.447     5719.570       22.718        3.164      624.236       62.142        0.010      347.707       26.868      862.984
06/26/2013  13:59:00     -377.793      -94.026      -11.664      262.132      143.399       77.253    68713.074    20563.387     5968.028       12.346        4.762      389.318       98.619        0.064      348.223       27.758      862.993
06/26/2013  14:00:00     -535.924     -119.666      -27.675      200.985      151.131       87.119    40394.958    22840.644     7589.736       18.655        3.541      549.122       94.174        0.029      347.761       26.960      863.053
06/26/2013  14:01:00     -370.707      -60.142      -12.392      145.531      140.755       70.420    21179.180    19811.832     4959.024        9.356        2.298      375.554       69.017        0.034      347.835       27.088      863.015
06/26/2013  14:02:00     -344.220      -46.546      -19.584      151.680      119.945       68.579    23006.684    14386.789     4703.075        8.156        2.105      347.352       75.216        0.047      348.071       27.496      863.010
06/26/2013  14:03:00     -314.154      -69.206       -8.620      215.948      130.910       79.948    46633.400    17137.319     6391.753        8.685        3.508      321.687       90.834        0.080      348.165       27.657      863.003
06/26/2013  14:04:00     -436.886      -17.977      -14.969      238.192      256.269      113.534    56735.272    65673.860    12889.918       16.333        6.765      437.255      121.666        0.077      347.966       27.317      862.919
06/26/2013  14:05:00     -378.533     -130.634        6.876      252.662      218.763       95.139    63838.174    47857.327     9051.412       14.055        6.037      400.440      113.725        0.081      348.274       27.848      862.912
06/26/2013  14:06:00     -398.099     -156.658      -18.535      236.306      179.934      109.338    55840.355    32376.396    11954.722       14.175        5.009      427.814      118.018        0.076      347.950       27.289      862.968
06/26/2013  14:07:00     -624.079     -198.482      -15.300      287.718      202.026       90.696    82781.808    40814.612     8225.760       28.044        6.591      654.882      107.663        0.027      347.807       27.040      862.922
06/26/2013  14:08:00     -622.074      -21.849      -31.948      214.567      225.349       94.514    46038.824    50781.952     8932.939       24.709        5.288      622.457       81.620        0.017      347.783       26.998      862.938
06/26/2013  14:09:00     -375.992     -183.842       -3.433      240.975      164.151       91.475    58069.083    26945.388     8367.750       13.426        4.669      418.531      107.189        0.066      347.853       27.119      862.948
06/26/2013  14:10:00     -506.579     -121.206      -17.511      277.927      230.860       98.894    77243.586    53296.397     9780.034       20.594        7.016      520.877      113.550        0.048      347.925       27.244      862.973
06/26/2013  14:11:00     -353.934      -97.007        3.757      205.722      163.441       98.996    42321.380    26713.061     9800.201       10.675        3.942      366.987       86.691        0.056      348.192       27.706      862.991
06/26/2013  14:12:00     -199.163      -24.226       16.093      147.461       96.202       66.177    21744.677     9254.730     4379.344        3.794        1.769      200.631       70.063        0.122      348.257       27.820      863.019
06/26/2013  14:13:00     -333.052      -52.399      -20.964      172.348      138.688       81.606    29703.920    19234.269     6659.617        8.484        2.780      337.149       90.106        0.071      347.868       27.146      863.004
06/26/2013  14:14:00     -511.656     -225.673      -15.192      255.895      213.536      106.730    65482.075    45597.627    11391.392       21.769        6.124      559.214      122.876        0.048      347.718       26.886      862.946
06/26/2013  14:15:00     -519.458     -307.695      -13.534      248.005      231.614      102.441    61506.358    53645.192    10494.081       24.515        6.282      603.749      107.635        0.032      347.760       26.958      862.939
06/26/2013  14:16:00     -234.315     -213.609       -1.724      181.103      161.533       94.207    32798.256    26092.992     8875.037        8.414        3.388      317.068       99.208        0.098      348.034       27.433      862.961
06/26/2013  14:17:00     -330.374     -202.366        4.414      210.394      171.688       89.230    44265.818    29476.887     7961.971       11.590        4.085      387.426       96.673        0.062      347.955       27.297      862.973
06/26/2013  14:18:00     -291.799     -224.633        5.843      194.049      174.236       84.409    37654.823    30358.293     7124.866       10.537        3.757      368.248       95.876        0.068      347.795       27.020      862.962
06/26/2013  14:19:00     -596.384      -65.866      -45.341      241.527      170.369       86.499    58335.374    29025.486     7482.158       22.844        4.742      600.010       87.361        0.021      347.847       27.109      862.910
06/26/2013  14:20:00     -458.073     -149.564      -21.147      317.894      232.952      116.218   101056.838    54266.582    13506.736       20.070        8.442      481.872      119.699        0.062      348.040       27.444      862.869
06/26/2013  14:21:00     -441.528      -81.118       -3.193      232.169      182.555      101.309    53902.553    33326.274    10263.553       14.950        4.875      448.918      117.626        0.069      348.048       27.456      862.947
06/26/2013  14:22:00     -362.142     -275.601       -0.756      257.197      196.414      113.073    66150.342    38578.301    12785.400       16.229        5.876      455.085      121.295        0.071      347.926       27.246      862.920
06/26/2013  14:23:00     -114.247      -32.440       21.697      159.201      129.311       63.295    25345.048    16721.396     4006.268        3.031        2.304      118.763       72.819        0.376      348.451       28.155      862.936
06/26/2013  14:24:00     -432.299     -142.198      -21.391      258.148      161.915      111.307    66640.646    26216.533    12389.192       15.638        5.262      455.086       93.194        0.042      347.908       27.214      862.922
06/26/2013  14:25:00     -546.030     -161.565       -1.872      210.607      144.104       80.326    44355.514    20765.857     6452.217       19.790        3.579      569.431       90.385        0.025      347.951       27.290      862.865
06/26/2013  14:26:00     -302.182     -117.345        6.648      162.819      132.499       68.602    26509.979    17555.943     4706.271        7.694        2.439      324.166       75.696        0.055      348.353       27.984      862.900
06/26/2013  14:27:00     -513.390     -212.878       -1.746      310.508      199.623      115.309    96415.228    39849.325    13296.192       22.920        7.478      555.776      141.654        0.065      347.999       27.371      862.904
06/26/2013  14:28:00     -443.858     -176.713       -5.401      256.006      189.781       99.368    65539.273    36016.734     9874.049       16.983        5.572      477.742      106.953        0.050      347.872       27.151      862.919
06/26/2013  14:29:00     -260.867       38.546      -14.582      173.872      134.657       65.939    30231.319    18132.598     4347.968        6.122        2.636      263.700       69.760        0.070      348.172       27.670      862.903
06/26/2013  14:30:00     -377.003      -23.991      -20.519      216.528      181.722       79.465    46884.383    33022.742     6314.645       11.466        4.311      377.766       74.497        0.039      348.315       27.918      862.911
06/26/2013  14:31:00     -295.743      -50.184        0.671      147.191      150.818       78.709    21665.277    22746.024     6195.054        7.028        2.530      299.971       83.676        0.078      348.122       27.584      862.932
06/26/2013  14:32:00     -281.131      -56.122      -13.850      152.440      144.852       73.915    23238.000    20982.240     5463.385        6.602        2.484      286.678       80.224        0.078      348.157       27.646      862.932
06/26/2013  14:33:00     -499.589      -85.023      -40.429      208.232      154.403       89.004    43360.413    23840.434     7921.728       16.677        3.756      506.772       93.907        0.034      348.014       27.398      862.925
06/26/2013  14:34:00     -558.591      -77.767      -11.477      293.506      228.243      100.666    86145.909    52094.850    10133.636       23.326        7.419      563.978      108.424        0.037      347.949       27.285      862.838
06/26/2013  14:35:00     -352.736      -90.628      -21.265      201.938      119.548       84.320    40778.939    14291.841     7109.800        9.762        3.109      364.193       70.478        0.037      348.251       27.807      862.877
06/26/2013  14:36:00     -368.472      -66.911       -5.475      179.257      167.942       83.227    32133.079    28204.533     6926.681       10.376        3.363      374.498       85.553        0.052      348.232       27.774      862.881
06/26/2013  14:37:00     -526.445     -131.551      -14.196      309.111      197.259      111.857    95549.870    38911.066    12512.098       22.078        7.349      542.633      120.967        0.050      348.035       27.432      862.838
06/26/2013  14:38:00     -535.788     -142.578      -17.963      211.764      175.070       87.210    44844.103    30649.587     7605.608       19.539        4.155      554.435       97.175        0.031      348.153       27.638      862.837
06/26/2013  14:39:00     -559.036      -86.634      -18.832      232.177      164.304       93.856    53906.137    26995.860     8808.972       20.503        4.486      565.709      105.068        0.034      348.197       27.713      862.823
06/26/2013  14:40:00     -503.972     -116.897       -9.200      218.192      167.844       89.644    47607.856    28171.761     8036.016       17.576        4.191      517.351       90.900        0.031      348.134       27.603      862.795
06/26/2013  14:41:00     -429.291     -189.148       -0.618      337.617      182.500      122.987   113985.190    33306.377    15125.908       19.121        8.121      469.114      151.325        0.104      348.013       27.396      862.789
06/26/2013  14:42:00     -394.687     -118.451      -10.313      197.733      132.666       78.408    39098.162    17600.288     6147.847       11.637        3.142      412.078       90.300        0.048      348.169       27.665      862.834
06/26/2013  14:43:00     -285.965     -138.778        8.155      181.254      146.975       70.730    32853.094    21601.737     5002.662        8.027        2.973      317.860       77.998        0.060      348.401       28.068      862.769
06/26/2013  14:44:00     -344.757     -123.590      -10.767      231.564      167.156       84.864    53621.936    27941.125     7201.861       11.149        4.438      366.240       97.140        0.070      348.564       28.351      862.791
06/26/2013  14:45:00     -540.700      -77.621        0.033      241.489      201.816      116.044    58316.962    40729.808    13466.116       20.542        5.626      546.243      129.932        0.057      348.143       27.620      862.759
06/26/2013  14:46:00     -458.689     -279.739      -26.267      255.933      242.530      112.416    65501.822    58820.892    12637.415       21.312        6.848      537.261      114.231        0.045      348.157       27.644      862.730
06/26/2013  14:47:00     -210.252     -143.225        9.174      207.908      167.078      109.739    43225.624    27914.901    12042.576        7.398        4.159      254.400      113.723        0.200      348.503       28.242      862.805
06/26/2013  14:48:00     -357.076      -84.409       -5.787      254.363      153.050       88.647    64700.729    23424.285     7858.347       11.530        4.799      366.917      114.965        0.098      348.302       27.896      862.849
06/26/2013  14:49:00     -430.881      -50.095      -23.901      152.280      188.744       84.101    23189.135    35624.464     7072.950       12.730        3.294      433.784       59.565        0.019      348.353       27.982      862.832
06/26/2013  14:50:00     -316.897      -36.763      -19.300      180.927      130.890       84.125    32734.456    17132.168     7077.020        7.953        2.847      319.022       77.297        0.059      348.481       28.206      862.789
06/26/2013  14:51:00     -509.246     -157.836      -21.807      295.495      182.798       95.010    87317.554    33415.159     9026.832       20.721        6.488      533.145      118.643        0.050      348.475       28.195      862.777
06/26/2013  14:52:00     -331.271     -286.536       10.530      267.206      214.543      120.871    71398.801    46028.689    14609.709       16.197        6.602      437.999      146.006        0.111      348.280       27.857      862.782
06/26/2013  14:53:00     -382.240     -279.879       -8.160      245.403      161.841      101.238    60222.762    26192.573    10249.107       16.057        4.833      473.750      121.040        0.065      348.287       27.869      862.780
06/26/2013  14:54:00     -159.643      -72.993       15.682      209.385      137.537       91.335    43842.262    18916.401     8341.996        5.107        3.555      175.538      100.838        0.330      348.668       28.531      862.828
06/26/2013  14:55:00     -564.397     -192.450       -7.392      236.769      223.595      116.032    56059.566    49994.665    13463.316       23.755        5.976      596.306      111.143        0.035      348.039       27.440      862.850
06/26/2013  14:56:00     -204.225      -93.916        7.188      195.367      151.285       93.439    38168.292    22887.083     8730.866        6.017        3.489      224.785      105.185        0.219      348.416       28.095      862.818
06/26/2013  14:57:00     -324.824     -249.441       -2.770      173.389      214.904       98.209    30063.578    46183.575     9645.012       12.680        4.295      409.550       93.876        0.053      348.399       28.062      862.809
06/26/2013  14:58:00     -447.807      -83.709      -30.434      221.979      184.154       92.461    49274.712    33912.748     8549.045       15.008        4.587      455.563      100.286        0.048      348.549       28.324      862.842
06/26/2013  14:59:00     -415.024     -105.356      -23.399      174.088      156.513       78.559    30306.493    24496.244     6171.461       12.242        3.049      428.188       85.009        0.039      348.486       28.212      862.849
06/26/2013  15:00:00     -459.793      -71.869      -14.877      245.959      225.206       94.653    60495.672    50717.925     8959.265       16.846        6.009      465.376       92.458        0.039      348.494       28.227      862.857
06/26/2013  15:01:00     -578.863      -70.143      -41.620      244.134      161.625       98.087    59601.410    26122.578     9621.113       21.852        4.767      583.098      107.031        0.034      348.208       27.731      862.862
06/26/2013  15:02:00     -620.546     -169.044      -19.832      205.824      156.265       79.618    42363.416    24418.606     6339.018       24.357        3.656      643.159       87.506        0.019      347.981       27.340      862.847
06/26/2013  15:03:00     -544.811     -175.344      -35.076      247.550      144.573       88.759    61280.870    20901.469     7878.224       20.941        4.503      572.333       71.117        0.015      348.204       27.727      862.864
06/26/2013  15:04:00     -460.452     -188.555      -18.344      284.408      161.113       97.950    80888.164    25957.312     9594.239       18.215        5.822      497.563      130.856        0.069      348.188       27.698      862.882
06/26/2013  15:05:00     -274.795      -36.343      -13.678      195.042      137.208       72.395    38041.308    18825.989     5241.037        6.955        3.105      277.188       80.244        0.084      348.425       28.108      862.880
06/26/2013  15:06:00     -507.820      -94.886      -22.725      317.692      202.599      100.737   100928.050    41046.335    10147.957       20.973        7.606      516.608      127.004        0.060      348.301       27.893      862.875
06/26/2013  15:07:00     -445.379     -138.915       -7.907      266.759      183.778       81.480    71160.463    33774.481     6638.929       16.463        5.579      466.540      108.736        0.054      348.252       27.811      862.884
06/26/2013  15:08:00     -339.949      -14.548      -20.307      157.639      115.122       70.854    24849.905    13253.116     5020.258        7.965        2.156      340.260       80.586        0.056      348.600       28.411      862.898
06/26/2013  15:09:00     -161.372     -153.139       17.244      155.115      120.347       71.721    24060.816    14483.465     5143.836        4.673        2.184      222.469       91.649        0.170      348.545       28.317      862.874
06/26/2013  15:10:00     -205.684     -206.427       31.259      266.693      177.866      107.548    71125.339    31636.364    11566.482       10.009        5.716      291.406      127.211        0.191      348.527       28.285      862.870
06/26/2013  15:11:00     -352.195     -330.893       -0.914      274.027      202.477      136.617    75090.541    40996.962    18664.088       18.412        6.738      483.251      166.152        0.118      348.195       27.710      862.821
06/26/2013  15:12:00     -317.297     -192.548        1.307      175.170      157.453       92.392    30684.464    24791.319     8536.346       10.087        3.201      371.150       96.292        0.067      348.372       28.016      862.836
06/26/2013  15:13:00     -262.197     -116.505        6.611      188.810      147.461       84.832    35649.111    21744.605     7196.492        7.346        3.230      286.916       80.924        0.080      348.530       28.290      862.826
06/26/2013  15:14:00     -537.331     -177.599      -27.166      210.638      201.834      120.285    44368.200    40736.795    14468.429       21.027        4.979      565.920       98.812        0.030      348.143       27.621      862.805
06/26/2013  15:15:00     -503.908     -163.713       -7.062      193.386      130.722       71.416    37398.177    17088.181     5100.185       17.017        2.979      529.836       86.997        0.027      347.942       27.273      862.861
06/26/2013  15:16:00     -299.933     -101.500      -15.073      174.797      117.546       69.012    30553.978    13817.177     4762.617        7.480        2.457      316.642       71.756        0.051      348.360       27.995      862.844
06/26/2013  15:17:00     -437.476     -224.308        5.645      298.207      210.426      127.299    88927.681    44279.070    16204.940       19.554        7.471      491.629      152.073        0.096      348.465       28.178      862.793
06/26/2013  15:18:00     -294.315     -159.327       10.206      243.175      167.918       90.408    59134.139    28196.358     8173.685       10.379        4.775      334.674      103.549        0.096      348.502       28.242      862.851
06/26/2013  15:19:00     -250.412      -38.882      -19.287      217.983      119.616       56.718    47516.734    14308.092     3216.933        6.480        3.252      253.413       59.898        0.056      348.717       28.614      862.821
06/26/2013  15:20:00     -345.806     -138.588      -15.723      154.905      124.559       84.577    23995.708    15515.066     7153.292        9.284        2.333      372.543       65.400        0.031      348.705       28.591      862.786
06/26/2013  15:21:00     -268.409     -182.496        1.051      225.300      158.211       87.868    50760.020    25030.795     7720.767        9.441        4.176      324.574       90.737        0.078      348.623       28.451      862.806
06/26/2013  15:22:00     -354.736      -89.002      -16.846      210.704      159.504       67.432    44396.058    25441.428     4547.114       10.420        3.719      365.730       75.873        0.043      348.556       28.334      862.801
06/26/2013  15:23:00     -385.070     -128.128        3.667      257.083      148.765       85.431    66091.554    22130.993     7298.513       13.010        4.776      405.828       93.484        0.053      348.482       28.207      862.802
06/26/2013  15:24:00     -341.290     -149.758       -5.218      188.586      121.360       78.806    35564.614    14728.345     6210.320        9.771        2.825      372.702       96.279        0.067      348.524       28.281      862.806
06/26/2013  15:25:00     -362.553     -146.385       -9.188      233.929      150.903       79.250    54722.943    22771.681     6280.629       11.835        4.189      390.990      104.853        0.072      348.580       28.376      862.782
06/26/2013  15:26:00     -518.149     -120.444      -40.219      222.404      219.653       97.799    49463.549    48247.544     9564.706       19.592        5.364      531.963      119.972        0.051      348.383       28.034      862.763
06/26/2013  15:27:00     -363.479     -123.732       -0.200      222.234      198.038      105.917    49387.752    39219.196    11218.377       12.361        4.991      383.962      108.565        0.080      348.452       28.154      862.762
06/26/2013  15:28:00     -306.445     -196.953       17.620      263.899      215.011      104.992    69642.910    46229.609    11023.254       12.993        6.345      364.279      129.340        0.126      348.429       28.115      862.733
06/26/2013  15:29:00     -437.878     -290.140       16.614      250.796      190.461      109.483    62898.869    36275.505    11986.442       19.366        5.558      525.279      124.033        0.056      348.411       28.083      862.703
06/26/2013  15:30:00     -594.871     -424.797      -12.646      245.063      210.017      114.195    60055.924    44106.995    13040.424       32.582        5.860      730.975      123.060        0.028      348.042       27.446      862.722
06/26/2013  15:31:00     -476.654     -223.768      -22.124      222.372      168.986       91.955    49449.122    28556.133     8455.721       18.209        4.323      526.565      102.926        0.038      348.320       27.927      862.747
06/26/2013  15:32:00     -384.494       26.155      -11.350      241.637      148.906       95.036    58388.456    22173.105     9031.807       11.910        4.480      385.382      102.418        0.071      348.610       28.430      862.772
06/26/2013  15:33:00     -386.208       -8.409       -1.024      248.299      173.259       87.036    61652.636    30018.764     7575.331       12.422        4.962      386.300       96.768        0.063      348.612       28.432      862.805
06/26/2013  15:34:00     -263.314     -171.700        4.898      264.175      206.760      104.378    69788.221    42749.501    10894.725       11.111        6.172      314.348      127.802        0.165      348.225       27.763      862.812
06/26/2013  15:35:00     -360.440      -37.160      -16.259      224.829      154.803       84.348    50548.221    23964.018     7114.642       10.658        4.081      362.351       98.352        0.074      348.217       27.748      862.828
06/26/2013  15:36:00     -223.805     -207.413       24.303      227.084      181.431      120.355    51567.166    32917.089    14485.291        9.631        4.948      305.137      114.024        0.140      348.365       28.004      862.827
06/26/2013  15:37:00     -385.211     -168.106       23.562      372.189      222.803      145.453   138524.503    49641.240    21156.571       19.322       10.466      420.294      179.781        0.183      348.197       27.715      862.790
06/26/2013  15:38:00     -366.339      -75.883      -15.857      217.128      155.580       89.252    47144.740    24205.173     7965.833       10.975        3.966      374.116       75.216        0.040      348.162       27.654      862.871
06/26/2013  15:39:00     -404.899     -158.780      -26.769      251.166      209.832      106.211    63084.261    44029.600    11280.856       15.411        5.920      434.919      142.064        0.107      348.334       27.950      862.858
06/26/2013  15:40:00     -381.156     -187.597        7.219      209.981      150.956       78.908    44092.060    22787.778     6226.408       12.680        3.655      424.820       99.019        0.054      348.247       27.800      862.865
06/26/2013  15:41:00     -335.944      -14.260       -0.345      205.025      135.360       95.567    42035.389    18322.364     9133.044        9.126        3.475      336.246      104.719        0.097      348.512       28.260      862.847
06/26/2013  15:42:00     -242.052      -69.560       -3.186      192.232      111.835       63.686    36953.016    12507.066     4055.850        5.847        2.676      251.849       63.208        0.063      348.617       28.442      862.826
06/26/2013  15:43:00     -392.377     -120.204      -30.662      140.355      138.407       72.413    19699.650    19156.618     5243.599       10.672        2.205      410.377       54.512        0.018      348.484       28.210      862.795
06/26/2013  15:44:00     -580.167     -221.088      -18.498      303.212      216.123      128.124    91937.263    46708.957    16415.686       27.041        7.753      620.865      142.022        0.052      348.312       27.914      862.735
06/26/2013  15:45:00     -573.331     -318.618       -7.761      304.978      233.003      115.532    93011.601    54290.500    13347.556       29.544        8.032      655.916      136.071        0.043      348.074       27.501      862.781
06/26/2013  15:46:00     -319.259      -82.766       19.433      252.803      254.481      107.230    63909.226    64760.669    11498.170       12.463        7.008      329.813      112.761        0.117      348.393       28.053      862.790
06/26/2013  15:47:00     -494.859     -108.272      -17.254      301.895      171.002      112.240    91140.648    29241.760    12597.898       19.492        6.649      506.566      139.506        0.076      348.219       27.750      862.816
06/26/2013  15:48:00     -507.327     -183.344      -28.561      235.466      219.796      115.900    55444.429    48310.438    13432.850       20.448        5.859      539.440      124.573        0.053      348.124       27.587      862.816
06/26/2013  15:49:00     -310.285     -234.643      -13.342      242.349      216.373      107.255    58732.925    46817.376    11503.720       13.426        5.853      389.017      111.680        0.082      348.144       27.622      862.824
06/26/2013  15:50:00     -233.638     -143.507      -11.470      217.652      153.194       87.295    47372.297    23468.551     7620.391        7.687        3.923      274.192       94.928        0.120      348.438       28.131      862.817
06/26/2013  15:51:00     -339.031      -39.908      -12.410      146.351      111.336       67.104    21418.711    12395.782     4502.959        7.750        1.916      341.372       68.467        0.040      348.363       28.001      862.841
06/26/2013  15:52:00     -235.931      -75.397        4.957      219.170      121.803       71.662    48035.566    14836.030     5135.421        6.468        3.400      247.685       94.614        0.146      348.286       27.868      862.794
06/26/2013  15:53:00     -351.822     -128.691       -4.563      205.679      147.062       64.437    42303.950    21627.305     4152.181       10.421        3.404      374.620       71.106        0.036      348.474       28.193      862.779
06/26/2013  15:54:00     -326.033      -96.479        1.223      239.224      200.198       97.545    57228.360    40079.289     9515.098       11.119        5.341      340.008      115.184        0.115      348.469       28.183      862.746
06/26/2013  15:55:00     -492.030       28.229      -29.406      264.224      165.076       89.986    69814.324    27249.950     8097.508       17.444        5.258      492.839      100.993        0.042      348.513       28.261      862.748
06/26/2013  15:56:00     -566.627       -1.398      -42.673      270.223      214.069       96.895    73020.603    45825.594     9388.586       22.554        6.412      566.628      116.472        0.042      348.391       28.048      862.748
06/26/2013  15:57:00     -448.621     -159.235      -13.923      296.064      170.878      104.810    87653.666    29199.168    10985.124       17.730        6.392      476.042      134.205        0.079      348.370       28.013      862.733
06/26/2013  15:58:00     -455.011     -139.035      -26.075      230.343      164.292       84.883    53058.063    26991.954     7205.069       15.713        4.363      475.779       89.784        0.036      348.378       28.027      862.731
06/26/2013  15:59:00     -332.689      -56.673       -6.368      150.102      195.657       86.451    22530.651    38281.785     7473.721        9.110        3.414      337.481       82.191        0.059      348.498       28.235      862.751
06/26/2013  16:00:00     -337.342     -109.864        8.982      222.435      195.216       92.765    49477.150    38109.304     8605.290       11.105        4.810      354.781      108.337        0.093      348.502       28.241      862.719
06/26/2013  16:01:00     -634.673     -187.655      -15.233      270.328      237.357      112.593    73077.214    56338.132    12677.262       29.015        7.105      661.834      121.935        0.034      348.227       27.765      862.747
06/26/2013  16:02:00     -491.573      -90.035      -18.469      218.636      168.984       91.301    47801.630    28555.711     8335.907       16.738        4.235      499.751      108.930        0.048      348.229       27.770      862.784
06/26/2013  16:03:00     -595.848     -127.625      -47.157      231.316      203.357       98.210    53507.224    41354.217     9645.297       23.901        5.225      609.363      112.587        0.034      348.186       27.696      862.698
06/26/2013  16:04:00     -471.781     -129.589       -5.041      191.475      163.802       94.149    36662.766    26831.080     8864.073       15.586        3.618      489.255       95.276        0.038      348.438       28.130      862.689
06/26/2013  16:05:00     -443.310      -64.188      -37.041      205.138      156.014       90.334    42081.553    24340.300     8160.159       13.828        3.729      447.932       83.802        0.035      348.561       28.344      862.713
06/26/2013  16:06:00     -224.244      -73.443       11.196      237.365      148.206       86.444    56342.369    21964.990     7472.608        7.078        4.289      235.965      116.636        0.244      348.573       28.365      862.775
06/26/2013  16:07:00     -353.038     -199.821       -7.668      148.922      121.174       86.080    22177.710    14683.086     7409.756       10.444        2.214      405.665       77.125        0.036      348.353       27.983      862.760
06/26/2013  16:08:00     -409.801      -75.500      -21.637      235.908      183.468       94.260    55652.376    33660.611     8884.963       13.613        4.910      416.698      112.003        0.072      348.427       28.111      862.742
06/26/2013  16:09:00     -395.356     -133.961       -9.647      220.088      162.455       91.617    48438.837    26391.475     8393.728       12.877        4.161      417.435      108.915        0.068      348.489       28.219      862.749
06/26/2013  16:10:00     -504.743      -97.727      -14.069      247.933      147.808      101.267    61470.865    21847.255    10254.914       17.902        4.679      514.117      123.134        0.057      348.378       28.028      862.696
06/26/2013  16:11:00     -532.442     -215.462       -1.145      257.403      195.270      104.821    66256.394    38130.253    10987.402       22.262        5.769      574.385      130.530        0.052      348.384       28.038      862.655
06/26/2013  16:12:00     -540.439     -114.058      -10.922      270.098      200.794       96.368    72952.946    40318.093     9286.855       21.386        6.128      552.344      114.931        0.043      348.346       27.971      862.679
06/26/2013  16:13:00     -499.793     -161.692      -15.968      197.010      152.252       79.427    38813.022    23180.789     6308.586       17.223        3.415      525.297       88.830        0.029      348.312       27.912      862.672
06/26/2013  16:14:00     -433.606      -95.707      -18.330      206.500      180.834       92.011    42642.051    32700.797     8465.942       14.064        4.190      444.043       95.958        0.047      348.526       28.283      862.692
06/26/2013  16:15:00     -582.817       -4.986      -24.765      253.155      157.026      110.347    64087.310    24657.015    12176.441       22.060        5.046      582.839      104.370        0.032      348.373       28.018      862.682
06/26/2013  16:16:00     -517.800      -66.034      -30.887      211.013      198.964       88.152    44526.496    39586.824     7770.791       18.264        4.594      521.993      102.207        0.038      348.335       27.953      862.702
06/26/2013  16:17:00     -535.263       67.098      -42.359      203.515      181.125       86.486    41418.200    32806.318     7479.899       18.724        4.085      539.453       87.487        0.026      348.346       27.970      862.683
06/26/2013  16:18:00     -542.134      -48.020      -25.422      300.031      159.786       98.807    90018.375    25531.535     9762.875       21.106        6.266      544.257      128.446        0.056      348.403       28.070      862.639
06/26/2013  16:19:00     -744.186     -203.000      -30.717      308.514      188.211      101.314    95181.002    35423.563    10264.553       36.839        7.043      771.377      104.809        0.018      348.258       27.820      862.585
06/26/2013  16:20:00     -652.323      -20.754      -34.551      285.816      216.549      101.221    81691.031    46893.621    10245.730       28.296        6.942      652.653      114.094        0.031      348.326       27.937      862.642
06/26/2013  16:21:00     -622.046     -148.329      -36.817      302.495      206.238      111.373    91503.377    42534.286    12403.907       27.834        7.322      639.487      135.523        0.045      348.318       27.923      862.602
06/26/2013  16:22:00     -477.526     -142.612        2.735      251.582      157.460       91.661    63293.324    24793.786     8401.668       17.241        4.824      498.366      114.891        0.053      348.434       28.123      862.626
06/26/2013  16:23:00     -717.663     -249.687       -6.140      244.356      204.577      111.965    59710.050    41851.802    12536.272       34.574        5.705      759.858      114.430        0.023      348.227       27.765      862.604
06/26/2013  16:24:00     -618.501      -95.302      -22.630      270.827      191.250      106.898    73347.482    36576.542    11427.109       25.672        6.068      625.800      115.465        0.034      348.162       27.653      862.600
06/26/2013  16:25:00     -344.624     -119.305       -1.231      248.810      179.416      115.413    61906.207    32190.219    13320.175       12.019        5.371      364.691      121.515        0.111      348.275       27.848      862.598
06/26/2013  16:26:00     -229.028     -159.131       14.737      247.689      218.248      103.304    61349.752    47632.131    10671.789        9.880        5.983      278.884      106.777        0.147      348.509       28.254      862.596
06/26/2013  16:27:00     -618.500     -133.791      -15.573      233.946      155.680       98.586    54730.646    24236.350     9719.197       24.467        4.434      632.805      100.169        0.025      348.289       27.873      862.612
06/26/2013  16:28:00     -265.065      -33.362        4.981      204.211      113.996       78.309    41701.929    12995.107     6132.228        6.610        3.041      267.156       87.116        0.106      348.602       28.415      862.631
06/26/2013  16:29:00     -265.891      -39.843        6.227      186.097      105.679       77.201    34632.201    11168.148     5959.974        6.203        2.588      268.859       78.538        0.085      348.686       28.561      862.619
06/26/2013  16:30:00     -232.232      -69.386        6.655      147.910      137.802       73.505    21877.294    18989.396     5403.058        5.252        2.313      242.376       74.121        0.094      348.756       28.681      862.616
06/26/2013  16:31:00     -389.012     -124.882      -14.657      156.568      162.979       88.146    24513.461    26562.161     7769.695       11.298        2.942      408.566       86.723        0.045      348.635       28.473      862.583
06/26/2013  16:32:00     -470.553      -85.932      -17.288      206.693      186.382       98.187    42721.944    34738.096     9640.631       15.808        4.355      478.335       97.812        0.042      348.598       28.408      862.555
06/26/2013  16:33:00     -320.584      -35.895        6.120      191.864      183.219       97.269    36811.603    33569.221     9461.167        9.196        3.992      322.588       91.714        0.081      348.801       28.759      862.599
06/26/2013  16:34:00     -272.521      -90.437       13.874      283.297      177.828       91.343    80256.912    31622.892     8343.558       10.141        6.011      287.135      117.275        0.167      348.503       28.245      862.658
06/26/2013  16:35:00     -344.703     -289.674        7.790      217.845      163.179      106.529    47456.628    26627.547    11348.337       14.410        4.272      450.257      121.556        0.073      348.274       27.848      862.672
06/26/2013  16:36:00     -326.257     -266.977       -6.391      233.138      175.043       97.437    54353.183    30639.926     9493.932       13.611        4.724      421.569      110.644        0.069      348.358       27.992      862.678
06/26/2013  16:37:00     -325.278     -183.876        5.416      193.711      141.412       89.243    37524.062    19997.456     7964.229       10.255        3.274      373.652       91.949        0.061      348.321       27.929      862.662
06/26/2013  16:38:00     -287.700       -0.123      -24.322      135.287      135.129       66.426    18302.687    18259.780     4412.360        6.216        2.049      287.700       53.861        0.035      348.611       28.429      862.646
06/26/2013  16:39:00     -580.983     -122.114      -15.083      305.119      166.842       86.989    93097.417    27836.172     7567.015       24.057        6.425      593.678       94.383        0.025      348.540       28.306      862.632
06/26/2013  16:40:00     -489.350     -154.807      -17.490      225.404      136.653       70.720    50807.136    18673.948     5001.298       16.909        3.724      513.253       80.750        0.025      348.587       28.389      862.614
06/26/2013  16:41:00     -351.878     -158.135      -10.956      217.956      175.735      100.158    47504.985    30882.738    10031.708       11.866        4.421      385.778      110.887        0.083      348.616       28.438      862.625
06/26/2013  16:42:00     -248.389     -138.548      -33.827      144.820      175.473       79.383    20972.812    30790.696     6301.657        7.004        2.903      284.416       88.229        0.096      348.717       28.614      862.584
06/26/2013  16:43:00     -265.839       50.120       -8.461      209.658      144.772       86.375    43956.685    20958.788     7460.591        7.280        3.619      270.523      103.241        0.146      348.912       28.952      862.617
06/26/2013  16:44:00     -425.766      -76.710      -21.788      167.544      159.082       72.897    28071.007    25306.935     5313.958       12.315        2.935      432.621       84.021        0.038      348.761       28.689      862.645
06/26/2013  16:45:00     -378.916       46.159      -17.105      171.886      136.312       71.157    29544.917    18580.877     5063.370        9.958        2.659      381.717       79.990        0.044      348.635       28.472      862.648
06/26/2013  16:46:00     -305.210     -155.877      -10.703      176.766      148.590       82.021    31246.362    22078.858     6727.438        8.880        3.003      342.711       79.760        0.054      348.750       28.671      862.612
06/26/2013  16:47:00     -343.750      -69.933      -12.463      143.637      131.461       68.156    20631.650    17282.001     4645.197        8.288        2.128      350.791       68.805        0.038      348.769       28.704      862.642
06/26/2013  16:48:00     -175.367      -68.308       22.005      149.978      142.195       76.181    22493.270    20219.391     5803.548        4.220        2.426      188.201       83.660        0.198      348.965       29.044      862.649
06/26/2013  16:49:00     -394.175        9.280      -28.524      218.929      152.056       95.088    47930.118    23120.878     9041.676       11.817        4.005      394.284      102.942        0.068      348.658       28.512      862.632
06/26/2013  16:50:00     -345.568      -58.025       -5.423      234.833      169.412       82.740    55146.547    28700.417     6845.985       10.674        4.535      350.405       96.823        0.076      348.651       28.500      862.615
06/26/2013  16:51:00     -256.004     -203.953       18.896      221.841      209.914      104.434    49213.337    44063.811    10906.438       10.582        5.209      327.315       97.470        0.089      348.707       28.595      862.647
06/26/2013  16:52:00     -334.415     -161.919       -1.660      186.480      186.852       80.436    34774.685    34913.852     6470.009       10.709        3.808      371.553       86.637        0.054      348.472       28.190      862.592
06/26/2013  16:53:00     -466.080     -167.619      -21.155      310.692      160.850       85.944    96529.554    25872.796     7386.333       18.776        6.489      495.305      101.747        0.042      348.552       28.327      862.601
06/26/2013  16:54:00     -386.736     -249.480       -9.291      244.422      197.764      111.869    59742.037    39110.695    12514.721       16.161        5.568      460.223       94.708        0.042      348.518       28.268      862.584
06/26/2013  16:55:00     -314.874      -79.040       -9.386      183.455      129.268       87.539    33655.840    16710.168     7663.071        8.174        2.901      324.643      101.621        0.098      348.839       28.825      862.601
06/26/2013  16:56:00     -445.203      -65.019      -19.335      320.535      202.642      118.332   102742.656    41063.884    14002.565       18.028        7.890      449.925      151.402        0.113      348.617       28.441      862.613
06/26/2013  16:57:00     -308.036      -41.154      -16.697      205.095      139.046       82.727    42064.036    19333.824     6843.756        8.254        3.412      310.773      108.048        0.121      348.761       28.690      862.621
06/26/2013  16:58:00     -523.277      -93.191      -12.741      199.723      172.101       89.257    39889.375    29618.775     7966.730       18.005        3.874      531.510      102.376        0.037      348.633       28.469      862.605
06/26/2013  16:59:00     -484.838       26.279      -21.598      262.115      188.050       96.540    68704.216    35362.970     9320.028       17.478        5.669      485.550      112.884        0.054      348.650       28.498      862.605
06/26/2013  17:00:00     -707.295       50.880      -57.797      207.932      165.922       92.115    43235.610    27530.178     8485.158       29.271        3.963      709.123      104.383        0.022      348.384       28.036      862.562
06/26/2013  17:01:00     -451.973      -93.336      -25.044      154.790      147.078       76.979    23960.052    21631.946     5925.815       13.256        2.576      461.510       73.037        0.025      348.681       28.552      862.565
06/26/2013  17:02:00     -502.815     -198.610       -7.997      208.949      165.347       96.627    43659.798    27339.516     9336.691       18.632        4.017      540.618      105.163        0.038      348.658       28.511      862.607
06/26/2013  17:03:00     -462.769     -124.216      -15.905      212.379      146.361       75.273    45104.998    21421.417     5666.040       15.100        3.610      479.150       84.235        0.031      348.529       28.289      862.611
06/26/2013  17:04:00     -235.389      -74.288        4.572      174.059      106.063       80.122    30296.607    11249.390     6419.595        5.445        2.398      246.833       93.491        0.143      348.720       28.619      862.627
06/26/2013  17:05:00     -279.845     -115.389        0.705      148.464      156.986       75.372    22041.517    24644.523     5680.944        7.199        2.618      302.701       74.587        0.061      348.885       28.903      862.608
06/26/2013  17:06:00     -361.051     -114.004      -12.963      185.378      150.712       83.075    34364.866    22714.006     6901.507       10.374        3.199      378.623       64.975        0.029      348.921       28.967      862.612
06/26/2013  17:07:00     -182.636      -89.285        5.513      153.369      106.376       62.094    23521.978    11315.913     3855.705        4.002        1.935      203.292       69.488        0.117      349.098       29.271      862.652
06/26/2013  17:08:00     -450.210     -137.517      -20.238      241.227      182.461       94.315    58190.288    33292.164     8895.364       16.117        5.019      470.744      107.936        0.053      348.615       28.439      862.650
06/26/2013  17:09:00     -386.754     -156.127        0.152      250.657      217.956      117.373    62829.063    47504.871    13776.538       14.901        6.206      417.078      135.941        0.106      348.480       28.203      862.634
06/26/2013  17:10:00     -314.722      -28.306        7.963      234.512      164.848       96.999    54995.874    27175.007     9408.727        9.573        4.579      315.993      110.707        0.123      348.583       28.383      862.602
06/26/2013  17:11:00     -501.207     -139.543      -30.398      238.132      181.617      103.308    56706.770    32984.578    10672.447       18.596        5.018      520.270       90.024        0.030      348.581       28.378      862.583
06/26/2013  17:12:00     -536.126      -90.449      -29.017      206.749      212.386       99.238    42745.023    45107.796     9848.258       19.706        4.885      543.702       99.266        0.033      348.469       28.184      862.589
06/26/2013  17:13:00     -527.035     -109.033      -27.535      157.336      200.230       92.923    24754.483    40092.149     8634.638       18.193        3.674      538.196       92.843        0.030      348.409       28.079      862.595
06/26/2013  17:14:00     -399.253      -73.646      -31.866      171.597      126.927       81.084    29445.563    16110.484     6574.661       10.898        2.607      405.989       77.489        0.036      348.629       28.462      862.611
06/26/2013  17:15:00     -514.244      -12.850      -25.241      215.414      159.623       91.804    46403.340    25479.452     8427.992       17.276        4.016      514.404       99.812        0.038      348.480       28.203      862.605
06/26/2013  17:16:00     -482.810     -138.695      -21.008      212.331      162.339       98.630    45084.308    26353.924     9727.924       16.696        4.058      502.336      115.859        0.053      348.520       28.273      862.584
06/26/2013  17:17:00     -509.644     -119.719      -19.561      297.244      242.112      104.441    88354.286    58618.293    10907.942       21.613        7.894      523.517      130.540        0.062      348.467       28.181      862.587
06/26/2013  17:18:00     -477.801     -168.880        5.899      228.381      198.923       97.929    52158.096    39570.257     9590.042       17.906        5.066      506.768      114.386        0.051      348.490       28.220      862.568
06/26/2013  17:19:00     -330.162      -91.072       12.880      213.143      173.217       89.249    45429.941    30004.026     7965.333       10.042        4.170      342.492       90.394        0.070      348.542       28.311      862.608
06/26/2013  17:20:00     -403.898     -265.893      -12.597      200.434      176.186       97.831    40173.701    31041.678     9570.825       15.737        4.039      483.563       98.344        0.041      348.263       27.829      862.608
06/26/2013  17:21:00     -423.878     -204.011      -17.187      235.826      193.622      106.987    55614.037    37489.338    11446.293       16.305        5.227      470.418      124.303        0.070      348.233       27.774      862.628
06/26/2013  17:22:00     -258.166      -60.105        1.087      179.735      136.650       85.861    32304.655    18673.116     7372.176        6.430        2.917      265.071       94.741        0.128      348.441       28.136      862.652
06/26/2013  17:23:00     -433.629       36.351      -33.749      207.992      152.385       92.626    43260.647    23221.336     8579.587       13.276        3.753      435.150      112.009        0.066      348.367       28.007      862.648
06/26/2013  17:24:00     -387.613      -20.896      -28.826      160.433      145.046       75.039    25738.606    21038.234     5630.919       10.195        2.620      388.176       70.879        0.033      348.505       28.245      862.625
06/26/2013  17:25:00     -247.258      -87.525        4.953      115.014      108.439       59.791    13228.130    11758.909     3574.957        4.869        1.428      262.292       61.477        0.055      348.355       27.986      862.617
06/26/2013  17:26:00     -256.532     -134.850        6.243      118.387       87.985       56.127    14015.444     7741.347     3150.275        5.446        1.245      289.816       62.044        0.046      348.543       28.311      862.586
06/26/2013  17:27:00     -260.821     -133.336       -5.233      238.991      138.644       90.371    57116.567    19222.188     8166.989        8.515        4.225      292.927      114.975        0.154      348.638       28.478      862.571
06/26/2013  17:28:00     -412.709     -175.985      -11.074      221.352      182.009       88.838    48996.670    33127.232     7892.242       14.570        4.501      448.664       92.875        0.043      348.502       28.241      862.537
06/26/2013  17:29:00     -592.412     -127.373      -26.737      218.337      196.336       97.911    47670.927    38547.789     9586.481       23.183        4.790      605.951       99.630        0.027      348.360       27.995      862.550
06/26/2013  17:30:00     -454.016     -127.280       -9.062      239.948      210.759       84.477    57575.099    44419.264     7136.298       16.575        5.457      471.520       96.700        0.042      348.449       28.150      862.554
06/26/2013  17:31:00     -369.785     -149.903      -16.416      179.935      147.607       82.625    32376.521    21787.806     6826.952       11.022        3.050      399.013       91.003        0.052      348.487       28.214      862.568
06/26/2013  17:32:00     -489.966     -110.074       -6.799      254.398      189.008       94.059    64718.439    35724.112     8847.141       18.074        5.464      502.179      108.276        0.046      348.561       28.344      862.571
06/26/2013  17:33:00     -523.060     -103.931      -22.864      224.966      188.476      106.581    50609.679    35523.301    11359.512       19.119        4.875      533.286      115.490        0.047      348.384       28.035      862.596
06/26/2013  17:34:00     -630.700     -235.546      -10.681      256.295      188.290      110.460    65687.075    35453.250    12201.321       28.334        5.667      673.249      106.896        0.025      348.295       27.882      862.578
06/26/2013  17:35:00     -438.722       -8.529      -23.810      212.361      170.324       80.196    45096.998    29010.149     6431.405       13.681        4.027      438.804       89.181        0.041      348.231       27.770      862.624
06/26/2013  17:36:00     -551.810      -25.468      -48.714      255.891      165.571       94.909    65480.043    27413.697     9007.785       20.469        5.095      552.397      109.359        0.039      348.217       27.747      862.575
06/26/2013  17:37:00     -394.771     -108.004        0.734      177.785      146.991       79.106    31607.568    21606.310     6257.709       11.348        2.974      409.279       81.880        0.040      348.433       28.123      862.539
06/26/2013  17:38:00     -212.105      -81.524        0.249      188.412      133.849       82.625    35498.908    17915.624     6826.943        5.593        3.012      227.232       81.065        0.127      348.571       28.360      862.558
06/26/2013  17:39:00     -578.536      -98.678      -25.063      238.941      160.118       92.055    57092.992    25637.809     8474.092       21.812        4.560      586.891       97.747        0.028      348.540       28.306      862.563
06/26/2013  17:40:00     -650.122     -136.766      -13.766      235.087      158.297      100.390    55266.130    25057.905    10078.154       26.596        4.520      664.352      108.691        0.027      348.300       27.892      862.554
06/26/2013  17:41:00     -485.844     -100.859      -22.385      250.246      151.445       79.435    62623.201    22935.486     6309.904       16.928        4.593      496.203       83.984        0.029      348.448       28.148      862.567
06/26/2013  17:42:00     -414.574     -102.687      -19.092      285.194      148.698       82.641    81335.902    22111.008     6829.546       14.651        5.514      427.102       96.496        0.051      348.498       28.236      862.570
06/26/2013  17:43:00     -555.397     -166.314      -29.686      349.277      207.180      139.388   121994.279    42923.468    19429.133       26.064        9.217      579.764      180.438        0.097      348.393       28.052      862.556
06/26/2013  17:44:00     -505.574     -141.866      -13.858      219.463      221.236       95.489    48164.178    48945.524     9118.112       19.105        5.311      525.101       99.319        0.036      348.233       27.776      862.595
06/26/2013  17:45:00     -248.478      -61.064        7.251      191.441      142.820       86.573    36649.651    20397.672     7494.802        6.502        3.227      255.872       99.572        0.151      348.440       28.133      862.595
06/26/2013  17:46:00     -454.508     -172.258      -22.367      257.916      238.367      105.239    66520.679    56819.005    11075.230       18.556        6.721      486.056      129.814        0.071      348.297       27.885      862.587
06/26/2013  17:47:00     -206.793     -191.614       20.662      190.129      181.008      108.488    36149.219    32763.794    11769.555        8.028        4.034      281.921      103.831        0.136      348.369       28.012      862.551
06/26/2013  17:48:00     -299.455     -206.270       -7.583      171.519      108.043       82.183    29418.622    11673.383     6754.094        9.005        2.392      363.622       88.374        0.059      348.414       28.090      862.567
06/26/2013  17:49:00     -303.092     -153.259        5.945      170.947      125.401       82.404    29222.754    15725.341     6790.341        8.355        2.587      339.637       78.261        0.053      348.516       28.266      862.581
06/26/2013  17:50:00     -340.017     -237.815       -4.699      239.476      170.122       92.963    57348.756    28941.651     8642.060       13.354        4.747      414.931      120.310        0.084      348.494       28.227      862.561
06/26/2013  17:51:00     -299.387     -142.464       -0.190      201.925      139.424       97.258    40773.696    19439.145     9459.079        8.979        3.484      331.555      106.201        0.103      348.478       28.201      862.561
06/26/2013  17:52:00     -356.201     -244.913       -1.538      268.023      164.076       89.896    71836.490    26921.073     8081.240       14.683        5.342      432.275      102.281        0.056      348.382       28.033      862.550
06/26/2013  17:53:00     -373.906     -169.647      -18.473      213.143      162.817       82.090    45429.728    26509.529     6738.821       12.379        3.934      410.592       90.818        0.049      348.309       27.906      862.537
06/26/2013  17:54:00     -339.824     -148.866       -9.430      219.509      202.619       85.053    48184.082    41054.323     7234.052       11.708        4.824      371.001       90.015        0.059      348.299       27.889      862.537
06/26/2013  17:55:00     -396.406      -73.598      -23.928      219.025      195.733      103.162    47971.785    38311.467    10642.477       13.001        4.846      403.180      108.310        0.072      348.303       27.897      862.530
06/26/2013  17:56:00     -396.809      -41.871       -2.261      193.752      150.819       88.502    37540.030    22746.454     7832.523       11.365        3.406      399.012       91.051        0.052      348.360       27.996      862.505
06/26/2013  17:57:00     -362.751      -33.090      -13.809      164.612      142.741       69.866    27097.237    20374.958     4881.220        9.260        2.618      364.257       74.691        0.042      348.509       28.253      862.534
06/26/2013  17:58:00     -490.296     -126.559      -30.994      195.238      218.162      100.949    38117.929    47594.578    10190.636       17.662        4.795      506.367      104.812        0.043      348.364       28.002      862.533
06/26/2013  17:59:00     -536.405     -105.864      -34.495      213.990      215.068       96.783    45791.579    46254.123     9366.870       20.075        5.071      546.751       99.637        0.033      348.223       27.758      862.537
06/26/2013  18:00:00     -365.280     -119.432      -12.465      180.653      129.254       79.941    32635.622    16706.721     6390.627       10.178        2.787      384.309       85.525        0.050      348.360       27.994      862.554
06/26/2013  18:01:00     -262.597     -165.851       -6.928      191.012      153.160       76.157    36485.691    23458.086     5799.876        8.111        3.287      310.587       95.357        0.094      348.391       28.048      862.566
06/26/2013  18:02:00     -484.603      -86.925      -19.610      271.666      147.736       83.976    73802.376    21826.070     7051.886       17.271        5.134      492.337      108.160        0.048      348.313       27.915      862.566
06/26/2013  18:03:00     -444.530     -132.705      -11.880      242.306      131.697       90.367    58712.293    17344.099     8166.172       14.977        4.211      463.915      110.831        0.057      348.256       27.817      862.546
06/26/2013  18:04:00     -329.986      -73.037        2.343      224.380      131.450       84.230    50346.449    17279.116     7094.749        9.446        3.736      337.972       89.495        0.070      348.388       28.045      862.562
06/26/2013  18:05:00     -156.850      -89.661       23.882      187.549      148.736       96.262    35174.526    22122.259     9266.352        4.987        3.328      180.668      110.493        0.374      348.367       28.008      862.561
06/26/2013  18:06:00     -384.829     -112.830      -13.650      347.589      167.375      105.634   120818.063    28014.499    11158.637       16.047        8.000      401.028      131.080        0.107      348.399       28.063      862.576
06/26/2013  18:07:00     -395.393     -172.530      -10.854      193.273      198.814      103.094    37354.567    39527.126    10628.403       13.685        4.376      431.395      102.925        0.057      348.236       27.783      862.554
06/26/2013  18:08:00     -398.186      -19.888       -9.166      197.571      187.696       93.389    39034.187    35229.938     8721.455       12.099        4.149      398.683      103.020        0.067      348.298       27.887      862.597
06/26/2013  18:09:00     -555.868     -123.159      -13.690      267.441      161.025      102.964    71524.459    25929.116    10601.524       21.618        5.403      569.348      118.958        0.044      348.222       27.758      862.564
06/26/2013  18:10:00     -713.879     -166.579      -40.453      234.270      183.227      103.624    54882.358    33572.163    10737.935       31.908        4.960      733.057      114.606        0.024      348.157       27.645      862.588
06/26/2013  18:11:00     -421.799     -105.905      -21.255      219.065      146.693       82.479    47989.316    21518.927     6802.825       13.293        3.816      434.891       77.500        0.032      348.251       27.807      862.620
06/26/2013  18:12:00     -436.639     -174.802      -14.679      237.585      167.358       97.696    56446.436    28008.536     9544.605       15.769        4.700      470.329      112.396        0.057      348.088       27.526      862.667
06/26/2013  18:13:00     -411.759        4.023      -16.728      207.729      128.809       74.016    43151.240    16591.661     5478.413       11.752        3.261      411.779       86.688        0.044      348.076       27.504      862.691
06/26/2013  18:14:00     -406.770     -117.155      -30.826      153.297      135.410       75.781    23500.013    18335.945     5742.707       11.385        2.379      423.305       67.725        0.026      348.137       27.610      862.695
06/26/2013  18:15:00     -451.110      -90.962        3.626      263.467      191.791      103.116    69414.717    36783.840    10632.828       16.429        5.842      460.189      103.095        0.050      348.122       27.584      862.687
06/26/2013  18:16:00     -372.506      -97.340       -3.826      215.637      146.900       76.232    46499.293    21579.495     5811.353       11.106        3.695      385.014       89.577        0.054      348.190       27.702      862.704
06/26/2013  18:17:00     -287.320      -32.884       13.736      175.009      134.252       74.685    30628.115    18023.640     5577.864        6.902        2.711      289.196       83.903        0.084      348.162       27.654      862.703
06/26/2013  18:18:00     -281.939      -54.019       -2.846      174.190      140.967       79.128    30342.083    19871.718     6261.309        6.943        2.824      287.067       82.503        0.083      348.165       27.659      862.700
06/26/2013  18:19:00     -220.472     -129.608        2.981      188.888       99.807       73.956    35678.559     9961.405     5469.449        5.825        2.555      255.746       82.291        0.104      348.240       27.788      862.719
06/26/2013  18:20:00     -258.540     -226.305       -0.173      173.953      138.620       89.797    30259.645    19215.531     8063.526        8.779        2.877      343.594       98.163        0.082      348.191       27.706      862.741
06/26/2013  18:21:00     -461.850     -212.025      -11.718      304.624      185.633       97.699    92795.671    34459.427     9545.189       19.757        6.840      508.193      111.388        0.048      348.012       27.395      862.716
06/26/2013  18:22:00     -336.136     -151.094      -10.257      220.923      180.902       90.133    48806.931    32725.495     8123.901       11.277        4.483      368.533      101.511        0.076      348.034       27.432      862.769
06/26/2013  18:23:00     -300.042      -43.825      -22.083      202.903      154.004       75.167    41169.662    23717.313     5650.063        8.147        3.527      303.226       88.661        0.085      348.094       27.537      862.769
06/26/2013  18:24:00     -301.035      -91.321       -9.147      169.543      175.180       88.385    28744.872    30687.997     7811.854        8.313        3.362      314.581       75.766        0.058      348.113       27.568      862.763
06/26/2013  18:25:00     -467.366      -99.521      -23.377      308.296      166.927      102.176    95046.544    27864.555    10439.944       18.109        6.668      477.844      130.156        0.074      348.019       27.408      862.750
06/26/2013  18:26:00     -500.925      -60.209      -20.707      243.460      184.112      112.276    59272.656    33897.084    12605.977       18.036        5.289      504.531      125.530        0.062      347.974       27.330      862.757
06/26/2013  18:27:00     -481.792      -67.964        0.007      305.705      175.478      119.138    93455.448    30792.511    14193.815       18.756        6.922      486.562      134.172        0.076      347.959       27.303      862.741
06/26/2013  18:28:00     -582.304      -72.877      -22.293      242.070      210.406       97.179    58597.676    44270.810     9443.801       22.858        5.616      586.847      118.589        0.041      347.933       27.258      862.759
06/26/2013  18:29:00     -394.901     -112.148       -8.472      212.461      156.966       81.421    45139.740    24638.393     6629.455       12.249        3.820      410.517       84.456        0.042      347.998       27.371      862.768
06/26/2013  18:30:00     -364.913      -43.556      -16.270      204.358      138.511       70.552    41762.179    19185.175     4977.620       10.061        3.296      367.503       62.257        0.029      348.038       27.438      862.775
06/26/2013  18:31:00     -439.082      -75.719      -21.420      186.409      173.496       75.597    34748.344    30100.876     5714.858       13.476        3.528      445.563       77.551        0.030      347.963       27.309      862.772
06/26/2013  18:32:00     -269.381     -166.353       -5.432      155.914      163.614       79.632    24309.099    26769.413     6341.329        7.883        2.871      316.606       75.098        0.056      348.048       27.455      862.822
06/26/2013  18:33:00     -259.519     -129.488       -6.894      145.220      139.741       79.951    21088.953    19527.416     6392.216        6.558        2.350      290.030       72.008        0.062      348.051       27.460      862.810
06/26/2013  18:34:00     -266.698      -88.624      -13.704      136.837      113.246       57.515    18724.391    12824.656     3307.963        5.701        1.743      281.037       42.195        0.023      348.107       27.559      862.822
06/26/2013  18:35:00     -351.061       35.815       -7.512      194.310      177.166       84.274    37756.371    31387.868     7102.093       10.040        3.812      352.883       74.640        0.045      348.033       27.431      862.814
06/26/2013  18:36:00     -459.624      -84.006      -18.007      199.361      147.553       80.951    39744.910    21771.842     6553.010       14.334        3.403      467.238       85.352        0.033      347.966       27.316      862.819
06/26/2013  18:37:00     -240.175      -73.517       -7.808      146.144      150.095       79.350    21357.935    22528.481     6296.429        5.666        2.509      251.175       71.936        0.082      348.054       27.467      862.819
06/26/2013  18:38:00     -389.682     -228.018      -21.641      199.149      175.077       86.562    39660.211    30651.833     7493.043       14.104        3.890      451.491       91.007        0.041      348.015       27.400      862.823
06/26/2013  18:39:00     -406.981      -60.594       -8.511      179.873      138.062       59.083    32354.240    19061.208     3490.798       11.213        2.745      411.467       60.510        0.022      348.059       27.476      862.828
06/26/2013  18:40:00     -385.833       40.773      -29.325      176.464      139.431       64.333    31139.494    19440.913     4138.784       10.304        2.736      387.982       68.350        0.031      348.095       27.536      862.854
06/26/2013  18:41:00     -585.280     -109.904      -33.901      247.169      187.773       99.547    61092.744    35258.724     9909.674       23.100        5.313      595.509      100.949        0.029      348.038       27.438      862.835
06/26/2013  18:42:00     -544.044      -94.932      -19.098      239.477      170.115       98.114    57349.189    28939.146     9626.363       20.062        4.796      552.264      117.859        0.046      347.952       27.290      862.837
06/26/2013  18:43:00     -470.549      -83.036        2.118      224.357      164.399       95.313    50336.185    27027.167     9084.646       15.736        4.322      477.820      107.155        0.050      347.951       27.290      862.903
06/26/2013  18:44:00     -263.313      -76.347      -12.011      220.938      132.553       77.211    48813.624    17570.166     5961.548        7.381        3.617      274.158       83.692        0.093      347.952       27.290      862.886
06/26/2013  18:45:00     -201.360     -128.778        8.836      170.949      134.828       85.531    29223.639    18178.615     7315.482        5.595        2.736      239.018       85.697        0.129      348.002       27.379      862.905
06/26/2013  18:46:00     -250.051      -41.572        3.425      158.722      147.631       68.593    25192.649    21795.022     4705.014        5.797        2.585      253.483       79.002        0.097      348.037       27.436      862.948
06/26/2013  18:47:00     -127.589      -30.205        9.777      102.025       74.314       56.365    10409.041     5522.641     3176.971        1.819        0.955      131.116       53.674        0.168      348.083       27.518      862.961
06/26/2013  18:48:00     -416.977     -109.404      -38.731      250.817      233.885       91.068    62909.067    54701.997     8293.465       15.660        6.295      431.091       91.162        0.045      347.913       27.223      862.964
06/26/2013  18:49:00     -367.921      -28.488       15.129      267.874      174.722      100.491    71756.286    30527.952    10098.535       12.437        5.619      369.022      131.883        0.128      347.880       27.166      862.974
06/26/2013  18:50:00     -478.178     -162.177      -10.719      224.583      171.609      102.849    50437.480    29449.757    10577.972       17.275        4.523      504.931      103.739        0.042      347.831       27.082      862.987
06/26/2013  18:51:00     -318.635      -59.148        6.848      206.813      155.581       76.208    42771.731    24205.507     5807.612        8.891        3.639      324.078       99.213        0.094      347.909       27.216      863.031
06/26/2013  18:52:00     -519.789     -166.975      -32.767      166.881      172.898       80.487    27849.223    29893.561     6478.194       18.167        3.211      545.950       69.647        0.016      347.781       26.995      863.023
06/26/2013  18:53:00     -541.448      -85.214      -10.271      275.260      171.761       98.519    75768.175    29501.895     9706.068       20.773        5.749      548.113       98.793        0.032      347.723       26.895      863.021
06/26/2013  18:54:00     -456.322      -69.135       -1.040      300.409      195.783      102.020    90245.281    38330.979    10408.083       17.597        6.949      461.530      122.479        0.070      347.765       26.969      863.018
06/26/2013  18:55:00     -422.430     -125.577       -5.913      214.837      156.376       95.225    46155.060    24453.481     9067.713       13.695        3.984      440.700      107.826        0.060      347.806       27.038      863.048
06/26/2013  18:56:00     -284.108     -114.109        8.376      201.685      153.538       97.631    40676.744    23574.003     9531.810        8.378        3.689      306.167       94.730        0.096      347.825       27.072      863.063
06/26/2013  18:57:00     -370.481     -138.985       -8.767      192.403      159.059       88.630    37019.023    25299.718     7855.313       11.340        3.509      395.693       90.576        0.052      347.815       27.054      863.083
06/26/2013  18:58:00     -355.039      -81.348      -11.080      241.657      132.496       84.715    58398.233    17555.157     7176.665       10.794        4.157      364.239       95.623        0.069      347.823       27.068      863.078
06/26/2013  18:59:00     -317.443     -112.521      -25.020      183.293      125.543       65.061    33596.373    15761.093     4232.936        8.381        2.680      336.795       67.680        0.040      347.848       27.112      863.096
06/26/2013  19:00:00     -261.277      -59.209       -3.447      153.447      129.814       68.906    23545.896    16851.719     4748.087        5.846        2.257      267.902       68.495        0.065      347.912       27.222      863.093
06/26/2013  19:01:00     -246.896     -157.206        8.149      180.106      118.170       78.545    32438.103    13964.092     6169.366        6.914        2.629      292.697       91.600        0.098      347.843       27.102      863.100
06/26/2013  19:02:00     -518.795      -29.325      -24.876      242.805      132.654       77.736    58954.193    17597.159     6042.840       17.659        4.130      519.623      102.777        0.039      347.809       27.044      863.083
06/26/2013  19:03:00     -371.616      -87.131      -17.187      158.522      133.086       63.184    25129.071    17711.981     3992.195        9.640        2.342      381.694       68.640        0.032      347.906       27.210      863.082
06/26/2013  19:04:00     -389.584     -177.097      -21.564      181.313      142.729       81.705    32874.279    20371.584     6675.672       12.175        2.996      427.947       86.365        0.041      347.886       27.175      863.087
06/26/2013  19:05:00     -398.079      -56.700      -15.500      229.387      162.757       95.318    52618.397    26489.698     9085.559       12.504        4.410      402.097      120.492        0.090      347.843       27.103      863.088
06/26/2013  19:06:00     -559.176      -95.487      -39.992      265.566      163.813      103.184    70525.425    26834.734    10646.921       21.568        5.400      567.271      116.068        0.042      347.747       26.937      863.117
06/26/2013  19:07:00     -544.808     -142.012      -21.715      272.040      164.882       97.493    74005.970    27186.106     9504.935       21.405        5.535      563.012      121.516        0.047      347.603       26.689      863.109
06/26/2013  19:08:00     -493.056      -47.329      -24.050      209.598      168.017       81.169    43931.212    28229.679     6588.462       16.232        3.937      495.322       94.937        0.037      347.684       26.828      863.135
06/26/2013  19:09:00     -457.701      -75.998       13.078      277.764      229.162      120.965    77152.569    52515.048    14632.567       17.984        7.215      463.967      136.804        0.087      347.648       26.766      863.100
06/26/2013  19:10:00     -338.172     -131.404      -13.366      268.786      130.386       84.913    72245.863    17000.391     7210.277       11.411        4.823      362.805       93.322        0.066      347.700       26.856      863.099
06/26/2013  19:11:00     -353.552      -29.117        2.133      221.521      148.924       83.665    49071.429    22178.406     6999.845       10.203        3.912      354.749       91.758        0.067      347.687       26.833      863.126
06/26/2013  19:12:00     -335.245     -167.302       -9.918      240.952      145.878       92.564    58057.667    21280.457     8568.060       11.417        4.395      374.672      120.820        0.104      347.694       26.845      863.121
06/26/2013  19:13:00     -219.295     -127.583        8.964      148.078      130.135       64.291    21927.117    16935.247     4133.320        5.371        2.150      253.708       63.846        0.063      347.708       26.870      863.132
06/26/2013  19:14:00     -600.197     -104.207      -22.591      266.071      182.207      114.926    70793.752    33199.345    13207.917       24.438        5.860      609.176      133.211        0.048      347.573       26.636      863.090
06/26/2013  19:15:00     -548.060     -130.662       -8.551      205.245      170.225       91.979    42125.387    28976.396     8460.223       19.852        3.978      563.420       82.149        0.021      347.541       26.581      863.093
06/26/2013  19:16:00     -460.047     -161.388        6.087      252.021      144.608       80.425    63514.538    20911.546     6468.185       16.429        4.545      487.534       85.129        0.030      347.564       26.620      863.109
06/26/2013  19:17:00     -524.477     -172.625      -15.592      172.887      128.086       81.342    29889.964    16405.897     6616.534       17.900        2.646      552.155       71.838        0.017      347.548       26.593      863.129
06/26/2013  19:18:00     -464.727      -75.352      -16.988      194.689      178.874       85.805    37903.917    31996.078     7362.537       14.958        3.863      470.796       95.932        0.042      347.562       26.618      863.152
06/26/2013  19:19:00     -497.041     -144.674      -24.355      156.167      160.096       72.438    24388.074    25630.636     5247.281       16.191        2.763      517.668       70.846        0.019      347.537       26.574      863.165
06/26/2013  19:20:00     -396.039      -24.672      -10.936      241.204      143.715       85.942    58179.215    20653.954     7386.108       12.188        4.311      396.806      113.217        0.081      347.579       26.648      863.176
06/26/2013  19:21:00     -469.878      -94.614      -35.527      227.285      196.542      100.872    51658.608    38628.814    10175.080       16.571        5.023      479.309      104.459        0.047      347.560       26.615      863.150
06/26/2013  19:22:00     -523.297     -105.398      -27.482      218.148      150.826       92.412    47588.614    22748.465     8540.066       18.227        3.944      533.806      111.450        0.044      347.517       26.539      863.178
06/26/2013  19:23:00     -542.328      -50.629      -20.905      198.640      152.356       94.442    39457.876    23212.255     8919.339       18.434        3.579      544.686       97.885        0.032      347.476       26.468      863.190
06/26/2013  19:24:00     -552.720      -48.026      -26.043      178.922      132.432       84.159    32012.985    17538.329     7082.778       18.255        2.832      554.803       93.206        0.028      347.459       26.439      863.207
06/26/2013  19:25:00     -296.910     -107.470       -2.517      183.581      121.860       73.370    33701.911    14849.825     5383.178        7.681        2.697      315.761       95.353        0.091      347.519       26.543      863.219
06/26/2013  19:26:00     -370.836     -124.568      -29.922      215.320      169.291       85.998    46362.512    28659.284     7395.719       11.816        4.121      391.199       98.756        0.064      347.502       26.514      863.210
06/26/2013  19:27:00     -457.803     -102.103      -20.280      188.592      166.669       84.701    35566.987    27778.642     7174.178       14.546        3.526      469.051       93.802        0.040      347.474       26.465      863.214
06/26/2013  19:28:00     -422.704     -103.518       -7.927      197.358      138.043       72.969    38950.071    19056.002     5324.444       12.638        3.167      435.195       74.992        0.030      347.448       26.421      863.205
06/26/2013  19:29:00     -323.869      -54.579      -24.163      230.125      132.508       78.329    52957.450    17558.241     6135.495        9.254        3.833      328.436       85.545        0.068      347.433       26.395      863.229
06/26/2013  19:30:00     -389.119       18.778      -14.333      229.636      148.297       85.018    52732.810    21992.103     7228.050       11.695        4.098      389.572      112.730        0.084      347.445       26.415      863.244
06/26/2013  19:31:00     -483.053      -56.801      -32.803      197.464      155.600       83.208    38991.888    24211.422     6923.650       15.387        3.506      486.381      100.209        0.042      347.418       26.367      863.264
06/26/2013  19:32:00     -501.300      -83.142      -19.876      254.674      173.223       87.452    64858.891    30006.148     7647.802       18.054        5.126      508.148      112.465        0.049      347.413       26.360      863.245
06/26/2013  19:33:00     -529.226      -68.700      -29.591      251.758      174.504       83.783    63382.185    30451.640     7019.647       19.324        5.043      533.667      110.763        0.043      347.392       26.325      863.251
06/26/2013  19:34:00     -456.385        1.766      -35.508      253.666      158.074       98.408    64346.629    24987.310     9684.140       15.426        4.951      456.389      126.660        0.077      347.391       26.322      863.256
06/26/2013  19:35:00     -408.952      -56.690      -20.460      146.946      139.352       69.119    21593.144    19418.881     4777.499       10.832        2.289      412.863       59.487        0.021      347.404       26.345      863.245
06/26/2013  19:36:00     -545.441      -72.061      -24.802      240.242      126.010       89.947    57716.280    15878.399     8090.526       19.248        4.084      550.180      114.589        0.043      347.360       26.269      863.211
06/26/2013  19:37:00     -413.650     -133.485       -5.118      173.009      145.746       73.664    29932.177    21241.935     5426.317       12.276        2.830      434.654       79.222        0.033      347.350       26.253      863.182
06/26/2013  19:38:00     -476.662     -113.021      -22.874      240.137      161.065       88.089    57665.854    25941.954     7759.701       16.592        4.568      489.878      113.326        0.054      347.356       26.260      863.173
06/26/2013  19:39:00     -352.329      -62.236       -1.705      182.190      105.849       69.715    33193.194    11204.043     4860.131        8.862        2.463      357.784       85.443        0.057      347.344       26.242      863.184
06/26/2013  19:40:00     -489.698      -56.341      -30.422      250.528      177.129       85.999    62764.335    31374.842     7395.826       17.270        5.077      492.929       91.249        0.034      347.328       26.215      863.169
06/26/2013  19:41:00     -497.621      -91.730      -24.267      186.934      121.437       80.496    34944.312    14746.851     6479.676       15.639        2.809      506.005       74.196        0.022      347.304       26.172      863.164
06/26/2013  19:42:00     -380.839      -78.745      -10.967      224.428      169.793       94.503    50367.766    28829.547     8930.901       11.973        4.406      388.894      108.104        0.077      347.272       26.117      863.158
06/26/2013  19:43:00     -370.925      -83.165       12.358      207.928      185.580       97.166    43234.068    34439.778     9441.148       11.587        4.356      380.134      109.483        0.083      347.282       26.135      863.158
06/26/2013  19:44:00     -374.491     -103.395       -2.683      187.920      172.295       80.481    35313.919    29685.522     6477.229       11.119        3.574      388.502       91.561        0.056      347.259       26.095      863.191
06/26/2013  19:45:00     -494.008       -3.063      -16.089      189.005      165.917       89.372    35722.748    27528.412     7987.277       15.776        3.562      494.017       89.391        0.033      347.242       26.066      863.187
06/26/2013  19:46:00     -299.926      -86.115        7.826      293.033      179.036      108.323    85868.513    32053.717    11733.855       11.352        6.483      312.044      136.130        0.190      347.241       26.066      863.169
06/26/2013  19:47:00     -211.389      -58.295        1.853      170.752      137.600       86.242    29156.141    18933.743     7437.598        5.180        2.776      219.280       92.076        0.176      347.282       26.135      863.188
06/26/2013  19:48:00     -269.626     -113.057      -15.718      166.808      116.830       63.038    27824.919    13649.261     3973.774        6.558        2.272      292.370       56.946        0.038      347.247       26.074      863.206
06/26/2013  19:49:00     -339.390      -51.450      -17.170      146.538      123.882       65.006    21473.422    15346.810     4225.719        7.958        2.052      343.268       72.597        0.045      347.211       26.014      863.230
06/26/2013  19:50:00     -302.454      -75.363      -15.489      104.756       79.345       52.007    10973.912     6295.618     2704.719        5.868        0.999      311.702       55.237        0.031      347.212       26.015      863.234
06/26/2013  19:51:00     -301.952     -120.105      -32.209      103.354       92.019       44.811    10681.973     8467.495     2008.039        6.389        1.058      324.962       30.458        0.009      347.214       26.017      863.248
06/26/2013  19:52:00     -228.765      -60.262        1.147      109.533      117.612       57.964    11997.381    13832.472     3359.801        4.257        1.459      236.569       53.538        0.051      347.193       25.983      863.248
06/26/2013  19:53:00     -357.723      -87.511      -13.813      175.039      123.961       76.916    30638.622    15366.295     5916.099        9.386        2.596      368.271       93.603        0.065      347.127       25.870      863.245
06/26/2013  19:54:00     -424.033      -86.304      -10.326      169.658      109.514       81.654    28783.678    11993.211     6667.318       11.739        2.372      432.727       85.278        0.039      347.104       25.827      863.242
06/26/2013  19:55:00     -319.747       -6.436      -13.642      160.231       86.309       59.792    25674.086     7449.276     3575.101        6.957        1.835      319.812       68.069        0.045      347.106       25.830      863.247
06/26/2013  19:56:00     -315.466       -9.760        5.562      142.691      123.216       76.041    20360.735    15182.159     5782.160        7.048        2.066      315.617       76.570        0.059      347.079       25.785      863.260
06/26/2013  19:57:00     -244.573       26.367        3.228      208.904       81.354       62.068    43641.071     6618.430     3852.435        5.731        2.706      245.990       89.804        0.133      346.948       25.561      863.283
06/26/2013  19:58:00     -344.289     -106.791      -12.895      160.589      108.305       61.210    25788.860    11730.063     3746.693        8.568        2.063      360.471       63.721        0.031      347.045       25.727      863.256
06/26/2013  19:59:00     -364.048      -48.147      -17.164      185.265      144.801       84.893    34322.975    20967.197     7206.839        9.881        3.125      367.218       95.614        0.068      347.007       25.662      863.210
06/26/2013  20:00:00     -423.942      -64.746      -13.665      195.328      148.523       87.411    38153.137    22058.951     7640.713       12.597        3.393      428.858       90.926        0.045      346.973       25.603      863.193
06/26/2013  20:01:00     -252.707      -56.419       -6.089      153.257      111.572       73.089    23487.703    12448.265     5341.953        5.417        2.064      258.929       59.563        0.053      346.970       25.598      863.198
06/26/2013  20:02:00     -239.045     -116.887       18.324      122.139      124.430       68.862    14917.963    15482.800     4741.929        5.313        1.757      266.093       63.355        0.057      346.964       25.587      863.204
06/26/2013  20:03:00     -410.069      -89.296      -13.548      182.451      145.198       82.127    33288.463    21082.364     6744.910       11.870        3.056      419.679       68.805        0.027      346.948       25.560      863.207
06/26/2013  20:04:00     -487.550      -68.927      -24.738      198.272      155.894       88.202    39311.667    24302.902     7779.653       15.722        3.570      492.399       95.145        0.037      346.919       25.508      863.214
06/26/2013  20:05:00     -434.800     -136.389       -8.468      202.745      164.985       95.076    41105.707    27220.203     9039.410       14.253        3.868      455.690      104.194        0.052      346.901       25.478      863.224
06/26/2013  20:06:00     -371.484      -92.851      -11.468      166.466      165.524       79.942    27710.946    27398.310     6390.750       10.411        3.075      382.912       78.531        0.042      346.917       25.505      863.234
06/26/2013  20:07:00     -342.652      -95.268       -5.573      141.213      151.486       64.964    19941.089    22948.075     4220.268        8.680        2.355      355.649       69.417        0.038      346.884       25.447      863.266
06/26/2013  20:08:00     -410.907     -144.264      -14.100      256.282      192.847       93.643    65680.256    37189.900     8769.010       15.073        5.582      435.496      103.325        0.056      346.886       25.453      863.267
06/26/2013  20:09:00     -372.582     -123.154      -13.420      275.226      167.716       82.709    75749.553    28128.769     6840.711       13.242        5.536      392.409      101.622        0.067      346.842       25.377      863.282
06/26/2013  20:10:00     -389.133     -133.855      -18.172      218.238      125.580       73.162    47627.751    15770.235     5352.618       11.920        3.438      411.511       94.958        0.053      346.861       25.409      863.307
06/26/2013  20:11:00     -355.302      -99.359       18.332      221.393      164.385       91.399    49014.775    27022.562     8353.686       11.040        4.220      368.933      107.868        0.085      346.854       25.397      863.286
06/26/2013  20:12:00     -237.787     -105.592       -4.593      117.342      123.552       55.480    13769.069    15265.098     3078.000        4.991        1.606      260.177       59.415        0.052      346.820       25.340      863.283
06/26/2013  20:13:00     -415.749     -141.269      -12.222      174.022      182.711       76.965    30283.540    33383.236     5923.595       13.126        3.480      439.094       77.529        0.031      346.824       25.346      863.285
06/26/2013  20:14:00     -313.229      -55.439      -27.439      114.182      131.975       50.640    13037.436    17417.393     2564.407        6.747        1.651      318.097       43.682        0.019      346.796       25.299      863.298
06/26/2013  20:15:00     -310.558      -33.501      -11.025      131.633      121.252       65.158    17327.334    14701.964     4245.590        6.698        1.814      312.360       60.515        0.038      346.793       25.294      863.295
06/26/2013  20:16:00     -344.324      -14.785      -12.032      178.013      137.579       66.363    31688.647    18927.896     4404.073        8.696        2.751      344.641       78.936        0.052      346.766       25.246      863.286
06/26/2013  20:17:00     -358.756     -107.430       -7.603      158.816      163.487       76.427    25222.513    26728.015     5841.046        9.904        2.890      374.496       69.717        0.035      346.756       25.229      863.284
06/26/2013  20:18:00     -313.483      -75.708      -14.552      158.809      112.890       55.555    25220.400    12744.181     3086.321        7.262        2.053      322.495       44.062        0.019      346.737       25.196      863.294
06/26/2013  20:19:00     -370.531     -100.266      -20.748      119.941      116.291       59.373    14385.766    13523.695     3525.186        8.960        1.572      383.858       53.414        0.019      346.756       25.229      863.325
06/26/2013  20:20:00     -316.822      -21.926       -6.649      151.497      122.775       65.329    22951.221    15073.725     4267.892        7.159        2.115      317.580       74.311        0.055      346.726       25.176      863.329
06/26/2013  20:21:00     -280.855     -104.161        4.778      151.666      147.253       84.187    23002.498    21683.520     7087.411        7.075        2.589      299.548       82.192        0.075      346.723       25.171      863.349
06/26/2013  20:22:00     -293.973      -82.995       -1.587      176.388      133.128       76.978    31112.736    17722.974     5925.684        7.403        2.738      305.465       88.747        0.084      346.697       25.128      863.353
06/26/2013  20:23:00     -254.466      -13.480        6.966      165.482      105.671       71.794    27384.433    11166.447     5154.398        5.434        2.185      254.823       73.110        0.082      346.654       25.055      863.346
06/26/2013  20:24:00     -446.033      -74.122      -35.905      154.531      141.793       68.026    23879.826    20105.161     4627.594       12.716        2.431      452.150       66.066        0.021      346.682       25.100      863.351
06/26/2013  20:25:00     -391.500      -71.515       -4.583      209.438      115.553       79.812    43864.094    13352.381     6369.903       11.098        3.179      397.978      101.406        0.065      346.641       25.031      863.349
06/26/2013  20:26:00     -458.206     -100.541      -26.814      180.923      141.269       74.863    32733.012    19957.045     5604.502       13.953        2.915      469.107       83.148        0.031      346.634       25.021      863.341
06/26/2013  20:27:00     -435.185     -114.157      -15.992      149.513      152.585       80.501    22354.060    23282.105     6480.491       12.738        2.606      449.908       73.039        0.026      346.615       24.986      863.360
06/26/2013  20:28:00     -387.782      -22.141       -8.204      166.714       97.021       77.285    27793.639     9413.073     5973.045        9.705        2.159      388.414       87.288        0.051      346.611       24.979      863.352
06/26/2013  20:29:00     -411.597       16.031      -27.577      265.231      116.125       67.870    70347.489    13484.945     4606.393       12.942        4.422      411.909       97.190        0.056      346.589       24.943      863.339
06/26/2013  20:30:00     -208.625      -36.358      -12.217      123.538       97.695       54.873    15261.673     9544.248     3011.072        3.640        1.391      211.769       58.620        0.077      346.558       24.890      863.342
06/26/2013  20:31:00     -316.241      -53.192      -28.333      186.909      125.476       63.884    34934.811    15744.258     4081.208        7.919        2.738      320.683       63.217        0.039      346.548       24.873      863.347
06/26/2013  20:32:00     -321.298       -9.089      -23.356      144.347       88.312       52.444    20836.015     7798.959     2750.400        6.762        1.569      321.427       59.543        0.034      346.546       24.868      863.353
06/26/2013  20:33:00     -266.674       -8.361       -7.256      148.977      106.956       63.441    22194.262    11439.615     4024.810        5.444        1.883      266.805       71.164        0.071      346.498       24.786      863.359
06/26/2013  20:34:00     -445.109       -6.585      -25.568      172.790      165.563       77.367    29856.497    27410.953     5985.599       13.102        3.163      445.158       77.188        0.030      346.542       24.862      863.359
06/26/2013  20:35:00     -367.489      -18.869      -16.073      169.615      128.989       79.675    28769.352    16638.290     6348.144        9.370        2.588      367.973       88.877        0.058      346.516       24.815      863.371
06/26/2013  20:36:00     -269.969      -48.893       -8.917      172.977      105.097       74.170    29920.966    11045.309     5501.187        6.090        2.323      274.361       85.086        0.096      346.517       24.819      863.364
06/26/2013  20:37:00     -221.885      -62.739        2.359      162.406      109.646       64.270    26375.829    12022.171     4130.643        4.784        2.126      230.584       69.486        0.091      346.503       24.794      863.339
06/26/2013  20:38:00     -458.575       29.596      -36.870      155.326      124.277       69.032    24126.277    15444.688     4765.358       12.842        2.217      459.529       70.122        0.023      346.516       24.817      863.320
06/26/2013  20:39:00     -275.728      -59.090      -24.652      132.537      100.845       57.284    17565.987    10169.727     3281.418        5.556        1.551      281.988       62.482        0.049      346.470       24.738      863.286
06/26/2013  20:40:00     -270.516     -130.582       -3.424      195.833      116.081       66.856    38350.616    13474.806     4469.777        7.326        2.815      300.384       77.764        0.067      346.448       24.700      863.240
06/26/2013  20:41:00     -226.430      -13.198       12.773      137.252      113.334       62.980    18838.069    12844.542     3966.456        4.362        1.782      226.815       68.295        0.091      346.429       24.668      863.227
06/26/2013  20:42:00     -378.578      -58.480      -19.804      168.959      140.465       79.121    28547.164    19730.331     6260.058       10.082        2.727      383.068       84.679        0.049      346.429       24.666      863.234
06/26/2013  20:43:00     -586.327      -70.010      -23.367      239.825      160.314      110.316    57516.091    25700.637    12169.628       22.229        4.769      590.492      121.671        0.042      346.475       24.747      863.223
06/26/2013  20:44:00     -356.422      -98.909       -1.827      222.080      151.537       89.159    49319.316    22963.337     7949.310       10.851        4.012      369.891      105.494        0.081      346.435       24.678      863.222
06/26/2013  20:45:00     -236.905      -76.454       -4.180      157.715      101.851       64.212    24873.911    10373.699     4123.171        5.067        1.969      248.936       75.392        0.092      346.423       24.659      863.240
06/26/2013  20:46:00     -339.661      -41.652      -14.894      149.447      108.524       63.631    22334.268    11777.410     4048.910        7.774        1.908      342.206       63.342        0.034      346.399       24.614      863.266
06/26/2013  20:47:00     -193.727      -80.547        1.328      135.601      117.817       69.743    18387.622    13880.728     4864.130        4.057        1.857      209.804       55.084        0.069      346.367       24.561      863.299
06/26/2013  20:48:00     -238.355      -59.751      -15.835      120.678       74.653       51.443    14563.061     5573.036     2646.346        4.170        1.139      245.730       46.716        0.036      346.390       24.599      863.319
06/26/2013  20:49:00     -294.476      -32.877      -12.368      208.671      141.577       77.851    43543.690    20044.176     6060.847        7.879        3.482      296.305       86.218        0.085      346.373       24.569      863.336
06/26/2013  20:50:00     -452.775      -97.953      -26.822      153.160      138.201       76.712    23458.114    19099.411     5884.760       13.187        2.422      463.249       71.537        0.024      346.425       24.658      863.346
06/26/2013  20:51:00     -209.696      -86.733       10.276      194.819      161.599       72.136    37954.328    26114.190     5203.548        6.042        3.464      226.925       77.490        0.117      346.364       24.556      863.358
06/26/2013  20:52:00     -337.029     -139.779        0.432      220.229      149.320       68.193    48500.855    22296.389     4650.263       10.427        3.772      364.866       84.544        0.054      346.347       24.527      863.364
06/26/2013  20:53:00     -473.386     -130.703      -31.319      158.313      120.669       78.443    25062.865    14560.918     6153.262       14.396        2.289      491.098       61.303        0.016      346.374       24.571      863.373
06/26/2013  20:54:00     -431.759     -136.267      -29.062      218.113      151.000       96.349    47573.438    22801.091     9283.215       14.273        3.983      452.752      103.407        0.052      346.370       24.564      863.354
06/26/2013  20:55:00     -397.203      -90.814        2.666      189.725      120.987       97.713    35995.435    14637.908     9547.891       11.309        3.009      407.452      102.983        0.064      346.364       24.554      863.372
06/26/2013  20:56:00     -443.951     -168.810      -16.255      220.199      202.068       91.808    48487.423    40831.276     8428.646       16.178        4.887      474.962      106.696        0.050      346.361       24.549      863.400
06/26/2013  20:57:00     -249.805      -82.377       -6.136      222.433      143.505       80.826    49476.300    20593.763     6532.865        7.290        3.830      263.037      100.265        0.145      346.345       24.523      863.400
06/26/2013  20:58:00     -390.576     -184.238       -8.595      155.154      181.184       80.824    24072.810    32827.738     6532.486       12.499        3.172      431.849       66.624        0.024      346.390       24.598      863.438
06/26/2013  20:59:00     -374.912      -83.402      -19.111      211.588      142.677       76.376    44769.597    20356.666     5833.226       10.941        3.548      384.077       84.955        0.049      346.377       24.577      863.437
06/26/2013  21:00:00     -415.993      -55.617      -15.589      164.688      135.973       74.423    27122.166    18488.579     5538.773       11.376        2.557      419.694       85.116        0.041      346.309       24.460      863.440
06/26/2013  21:01:00     -247.974      -44.640       16.864      181.104      155.297       84.439    32798.793    24117.103     7129.911        6.389        3.202      251.960       97.497        0.150      346.265       24.385      863.440
06/26/2013  21:02:00     -422.926      -84.411       -4.827      208.193      135.638       84.547    43344.304    18397.551     7148.130       12.744        3.444      431.268       82.205        0.036      346.313       24.467      863.463
06/26/2013  21:03:00     -391.803      -61.709      -21.631      191.101      135.409       81.499    36519.745    18335.730     6642.168       10.963        3.075      396.633       97.958        0.061      346.292       24.434      863.480
06/26/2013  21:04:00     -370.267      -84.879      -10.576      178.179      153.799       73.321    31747.720    23654.008     5375.915       10.258        3.039      379.871       84.533        0.050      346.291       24.428      863.501
06/26/2013  21:05:00     -312.782      -30.344        2.347      250.193      179.459       82.381    62596.703    32205.552     6786.578       10.015        5.079      314.250      103.770        0.109      346.283       24.416      863.514
06/26/2013  21:06:00     -380.732      -24.933      -19.019      138.604      122.370       66.273    19211.150    14974.384     4392.163        9.225        1.929      381.547       67.662        0.031      346.272       24.395      863.535
06/26/2013  21:07:00     -153.305      -49.340        5.380      132.598      131.656       77.325    17582.342    17333.370     5979.213        3.342        2.045      161.049       77.863        0.234      346.236       24.335      863.533
06/26/2013  21:08:00     -283.683      -74.544       11.928      285.918      185.856       90.714    81748.845    34542.468     8229.020       10.532        6.226      293.314      111.503        0.145      346.261       24.380      863.529
06/26/2013  21:09:00     -356.483     -149.329      -16.761      223.955      222.748      100.779    50155.879    49616.506    10156.363       12.977        5.496      386.496      105.871        0.075      346.266       24.387      863.552
06/26/2013  21:10:00     -378.202      -70.915      -13.093      225.957      177.246       86.744    51056.658    31416.320     7524.608       11.910        4.500      384.793       95.298        0.061      346.268       24.388      863.590
06/26/2013  21:11:00     -163.068     -101.355        1.426      149.399      125.400       74.695    22320.162    15725.243     5579.352        4.024        2.181      192.000       69.992        0.133      346.246       24.352      863.599
06/26/2013  21:12:00     -218.339     -102.756      -12.584      156.984      102.356       68.598    24644.038    10476.788     4705.751        4.910        1.991      241.310       61.976        0.066      346.239       24.340      863.596
06/26/2013  21:13:00     -418.071      -96.151      -10.880      174.762      148.473       87.142    30541.592    22044.358     7593.646       12.215        3.009      428.985       89.307        0.043      346.200       24.273      863.615
06/26/2013  21:14:00     -441.773      -90.762      -13.374      213.524      186.459       98.877    45592.311    34767.001     9776.586       14.684        4.507      451.000      109.125        0.059      346.224       24.314      863.636
06/26/2013  21:15:00     -267.974     -138.010       -8.035      177.234      126.454       69.941    31411.737    15990.517     4891.686        7.160        2.615      301.425       69.639        0.053      346.208       24.287      863.652
06/26/2013  21:16:00     -284.023      -82.327       -2.341      211.783      152.031       99.488    44852.145    23113.554     9897.877        8.264        3.893      295.714      111.098        0.141      346.205       24.283      863.673
06/26/2013  21:17:00     -346.177      -13.824        8.351      142.008      118.755       73.704    20166.364    14102.769     5432.264        7.989        1.985      346.453       76.372        0.049      346.202       24.275      863.676
06/26/2013  21:18:00     -274.231      -38.350        0.529      130.204      102.587       53.882    16953.160    10524.112     2903.299        5.352        1.519      276.900       53.459        0.037      346.159       24.202      863.708
06/26/2013  21:19:00     -217.574      -85.443       -6.159      165.101      134.678       69.031    27258.370    18138.083     4765.264        5.241        2.508      233.750       76.477        0.107      346.189       24.254      863.726
06/26/2013  21:20:00     -214.820      -27.341      -12.654      163.976      108.985       64.262    26888.081    11877.641     4129.657        4.497        2.145      216.553       57.986        0.072      346.135       24.162      863.741
06/26/2013  21:21:00     -274.035      -38.043      -22.398      157.146       81.666       58.696    24694.989     6669.310     3445.186        5.592        1.740      276.663       66.931        0.059      346.140       24.169      863.757
06/26/2013  21:22:00     -337.796     -137.821      -19.956      176.048      120.407       72.979    30992.943    14497.915     5325.938        9.215        2.541      364.830       81.198        0.050      346.168       24.217      863.774
06/26/2013  21:23:00     -438.496      -43.615      -16.907      219.886      131.923       82.636    48349.735    17403.607     6828.662       13.351        3.629      440.660       90.667        0.042      346.131       24.154      863.787
06/26/2013  21:24:00     -479.529     -104.601      -34.499      225.349      156.816       85.219    50782.169    24591.260     7262.234       16.234        4.132      490.805      103.602        0.045      346.158       24.201      863.791
06/26/2013  21:25:00     -489.557      -74.978       -0.814      240.085      170.026       94.104    57640.932    28908.825     8855.486       17.033        4.770      495.265      108.633        0.048      346.159       24.202      863.827
06/26/2013  21:26:00     -305.071     -207.583       -1.688      182.597      138.853       92.400    33341.786    19280.123     8537.796        9.865        3.058      368.998      102.845        0.078      346.153       24.194      863.853
06/26/2013  21:27:00     -297.667     -139.215        1.197      207.220      153.632       94.806    42940.313    23602.944     8988.215        9.174        3.777      328.613       97.274        0.088      346.146       24.181      863.900
06/26/2013  21:28:00     -318.734      -56.636       -6.039      178.511      142.080       72.229    31866.326    20186.792     5217.056        8.104        2.864      323.727       80.374        0.062      346.134       24.159      863.934
06/26/2013  21:29:00     -245.337      -34.329       -3.736      148.239      113.997       58.000    21974.891    12995.330     3364.010        4.985        1.917      247.727       57.467        0.054      346.131       24.155      863.946
06/26/2013  21:30:00     -230.555       -5.873        9.324      156.466      108.781       63.183    24481.755    11833.204     3992.080        4.678        2.015      230.630       67.814        0.086      346.119       24.133      863.952
06/26/2013  21:31:00     -449.630      -40.560      -11.938      188.974      121.796       86.571    35711.093    14834.318     7494.582       13.099        2.902      451.456       97.437        0.047      346.117       24.131      863.967
06/26/2013  21:32:00     -307.408      -89.211      -13.722      160.692      143.669       68.276    25821.942    20640.885     4661.657        7.688        2.556      320.091       65.533        0.042      346.097       24.097      863.976
06/26/2013  21:33:00     -552.311     -115.731      -27.257      209.249      151.339       79.795    43785.278    22903.604     6367.304       19.611        3.653      564.306       90.291        0.026      346.161       24.206      863.979
06/26/2013  21:34:00     -269.717     -124.101        0.335      136.649      122.472       67.719    18673.069    14999.387     4585.890        6.320        1.913      296.898       65.211        0.048      346.099       24.100      864.006
06/26/2013  21:35:00     -253.742     -181.704      -12.552      112.574       93.509       60.000    12672.825     8743.886     3599.997        6.128        1.251      312.092       58.317        0.035      346.113       24.123      864.007
06/26/2013  21:36:00     -329.899     -146.631      -14.348      219.400      148.316       80.045    48136.261    21997.750     6407.159       10.353        3.827      361.018       86.712        0.058      346.135       24.162      864.022
06/26/2013  21:37:00     -421.021     -110.300      -29.512      171.552      153.364       76.645    29430.035    23520.540     5874.524       12.455        2.941      435.230       69.091        0.025      346.148       24.183      864.037
06/26/2013  21:38:00     -354.904     -102.170      -11.176      218.434      168.329       80.414    47713.566    28334.653     6466.340       10.950        4.126      369.318       97.867        0.070      346.157       24.200      864.053
06/26/2013  21:39:00     -189.794        4.998        3.337      120.033       90.498       50.818    14407.915     8189.899     2582.477        3.061        1.259      189.860       55.182        0.084      346.102       24.107      864.073
06/26/2013  21:40:00     -146.456     -114.475        5.796       90.581       74.038       40.845     8204.915     5481.578     1668.275        2.497        0.768      185.886       42.064        0.051      346.104       24.108      864.084
06/26/2013  21:41:00     -147.180      -53.957       13.327      135.533       98.974       60.600    18369.120     9795.790     3672.313        2.829        1.592      156.758       44.473        0.080      346.083       24.074      864.082
06/26/2013  21:42:00     -207.497      -39.643        5.289      114.082      124.732       66.066    13014.722    15558.079     4364.701        3.879        1.647      211.250       62.197        0.087      346.058       24.030      864.079
06/26/2013  21:43:00     -203.129     -117.737       -3.173      144.196       99.049       54.005    20792.528     9810.651     2916.578        4.432        1.676      234.784       68.007        0.084      346.092       24.087      864.081
06/26/2013  21:44:00     -298.866     -137.909        2.452      260.041      208.075       94.783    67621.387    43295.114     8983.757       11.410        5.995      329.150      124.023        0.142      346.088       24.081      864.082
06/26/2013  21:45:00     -427.174     -152.010      -39.444      202.283      135.191       83.740    40918.558    18276.622     7012.344       13.666        3.310      453.414       98.716        0.047      346.146       24.180      864.097
06/26/2013  21:46:00     -217.388      -91.695      -12.753      114.892      123.682       59.952    13200.086    15297.244     3594.201        4.395        1.605      235.935       57.834        0.060      346.107       24.114      864.116
06/26/2013  21:47:00     -288.037      -88.937       -5.252      210.591      150.150       83.357    44348.581    22545.170     6948.390        8.236        3.692      301.455      103.640        0.118      346.090       24.085      864.132
06/26/2013  21:48:00     -363.527     -128.236      -15.521      158.133      154.014       70.849    25005.995    23720.307     5019.535       10.128        2.687      385.482       69.587        0.033      346.112       24.122      864.132
06/26/2013  21:49:00     -307.118      -96.123      -11.526      156.716      117.614       63.349    24559.783    13832.987     4013.062        7.304        2.120      321.809       59.862        0.035      346.100       24.101      864.131
06/26/2013  21:50:00     -257.610      -46.753        1.498      135.092      112.481       56.665    18249.782    12652.031     3210.925        5.133        1.706      261.818       53.248        0.041      346.081       24.069      864.137
06/26/2013  21:51:00     -336.754      -10.523      -14.769      144.928      133.179       63.667    21004.188    17736.703     4053.486        7.825        2.140      336.918       61.530        0.033      346.071       24.051      864.127
06/26/2013  21:52:00     -356.411     -102.233      -26.788      190.938      157.293       68.151    36457.499    24741.141     4644.567       10.201        3.292      370.784       73.892        0.040      346.105       24.111      864.125
06/26/2013  21:53:00     -296.548      -32.255       -7.691      154.200      119.472       68.695    23777.763    14273.653     4719.044        6.590        2.139      298.297       73.534        0.061      346.073       24.055      864.124
06/26/2013  21:54:00     -392.900     -115.613      -10.658      211.817      143.926       83.860    44866.560    20714.686     7032.467       12.022        3.631      409.557       86.635        0.045      346.140       24.169      864.124
06/26/2013  21:55:00     -246.753      -50.150       -7.804      188.859      114.063       67.227    35667.620    13010.386     4519.464        5.832        2.660      251.798       68.169        0.073      346.089       24.084      864.139
06/26/2013  21:56:00     -345.189      -40.250      -18.966      145.942       89.126       61.550    21299.130     7943.385     3788.394        7.708        1.652      347.527       66.248        0.036      346.124       24.144      864.161
06/26/2013  21:57:00     -227.301      -10.513       -2.348      123.649      106.370       59.836    15288.967    11314.530     3580.331        4.098        1.509      227.544       68.426        0.090      346.098       24.097      864.146
06/26/2013  21:58:00     -217.047      -63.871       -6.191      102.721       86.959       59.670    10551.644     7561.926     3560.512        3.645        1.084      226.250       56.179        0.062      346.068       24.046      864.142
06/26/2013  21:59:00     -478.679      -76.626       -7.859      234.045      118.519       84.258    54776.904    14046.652     7099.338       15.548        3.796      484.773      105.315        0.047      346.131       24.155      864.176
06/26/2013  22:00:00     -254.022     -104.999       -1.386      184.640      107.294       74.868    34092.030    11512.017     5605.181        6.337        2.560      274.867       93.300        0.115      346.111       24.119      864.176
06/26/2013  22:01:00     -254.347      -50.960      -13.833      171.793      135.445       57.480    29512.888    18345.395     3303.960        5.931        2.558      259.402       59.743        0.053      346.124       24.143      864.160
06/26/2013  22:02:00     -305.380      -97.074      -12.975      165.496       82.151       61.367    27389.063     6748.745     3765.851        7.037        1.895      320.437       72.460        0.051      346.114       24.124      864.176
06/26/2013  22:03:00     -226.405      -94.452       -6.254      146.100      144.321       69.004    21345.123    20828.597     4761.610        5.357        2.347      245.317       71.773        0.086      346.092       24.088      864.181
06/26/2013  22:04:00     -173.120     -135.493       -9.063      106.126       97.127       55.911    11262.737     9433.718     3126.069        3.611        1.191      219.838       57.633        0.069      346.108       24.116      864.201
06/26/2013  22:05:00     -220.589     -109.029       11.035      171.775      121.475       79.206    29506.652    14756.160     6273.605        5.559        2.527      246.062       96.680        0.154      346.092       24.088      864.194
06/26/2013  22:06:00     -340.615      -76.805       -0.869      170.827      124.809       73.365    29181.815    15577.338     5382.389        8.602        2.507      349.167       85.420        0.060      346.102       24.104      864.203
06/26/2013  22:07:00     -310.892      -34.136      -16.014      144.250      113.149       64.117    20808.135    12802.668     4110.934        6.789        1.886      312.760       71.918        0.053      346.094       24.090      864.216
06/26/2013  22:08:00     -375.687      -55.074      -21.580      185.996       98.624       70.943    34594.387     9726.690     5032.858        9.699        2.468      379.703       87.411        0.053      346.092       24.086      864.232
06/26/2013  22:09:00     -293.892      -19.891        2.140      160.872      143.667       67.003    25879.891    20640.189     4489.383        6.888        2.550      294.564       68.029        0.053      346.079       24.064      864.240
06/26/2013  22:10:00     -425.657     -142.440      -32.699      181.781      138.666       77.264    33044.181    19228.393     5969.741       13.038        2.912      448.858       80.035        0.032      346.136       24.164      864.257
06/26/2013  22:11:00     -276.615      -77.617      -19.610      210.464      133.640       69.797    44295.202    17859.653     4871.573        7.496        3.351      287.299       84.170        0.086      346.116       24.129      864.257
06/26/2013  22:12:00     -228.195      -50.511      -14.000      139.993       98.205       72.533    19597.901     9644.158     5261.092        4.465        1.725      233.718       64.182        0.075      346.063       24.038      864.264
06/26/2013  22:13:00     -296.872      -55.461      -16.362      139.523      100.120       62.958    19466.801    10024.000     3963.678        6.246        1.673      302.008       75.495        0.062      346.077       24.062      864.293
06/26/2013  22:14:00     -251.422      -82.870      -12.507      126.236      134.302       61.735    15935.636    18036.933     3811.191        5.400        1.889      264.727       62.433        0.056      346.058       24.028      864.305
06/26/2013  22:15:00     -285.180     -123.702      -20.535      164.353       93.227       50.516    27011.747     8691.300     2551.856        6.765        1.913      310.853       58.010        0.035      346.082       24.071      864.313
06/26/2013  22:16:00     -170.568      -75.442        4.104      119.462       78.605       54.500    14271.208     6178.818     2970.304        2.911        1.171      186.507       62.599        0.113      346.015       23.957      864.330
06/26/2013  22:17:00     -221.945      -32.164       -5.527      152.877       94.285       63.017    23371.515     8889.586     3971.152        4.327        1.812      224.263       69.842        0.097      346.090       24.085      864.362
06/26/2013  22:18:00     -326.397     -129.448      -19.917      168.583      118.954       66.241    28420.231    14149.941     4387.845        8.531        2.348      351.129       67.332        0.037      346.136       24.164      864.378
06/26/2013  22:19:00     -135.951     -110.134        9.118      153.324      134.029       78.858    23508.311    17963.667     6218.596        3.918        2.385      174.963       96.490        0.304      346.024       23.971      864.402
06/26/2013  22:20:00     -228.060     -108.986        2.259      153.660      108.313       78.896    23611.332    11731.652     6224.529        5.272        2.078      252.763       79.076        0.098      345.988       23.910      864.433
06/26/2013  22:21:00     -281.022     -129.544       -6.512      170.497      141.739       73.219    29069.286    20090.019     5361.017        7.515        2.726      309.443       88.811        0.082      346.003       23.935      864.451
06/26/2013  22:22:00     -193.428      -38.348       -7.058       81.502       68.064       41.475     6642.554     4632.698     1720.159        2.596        0.650      197.192       40.383        0.042      345.917       23.789      864.469
06/26/2013  22:23:00     -137.586      -91.196       11.233      114.476       79.623       56.755    13104.784     6339.841     3221.163        2.501        1.133      165.066       45.520        0.076      345.918       23.791      864.465
06/26/2013  22:24:00     -190.055      -81.892       -3.037      156.887      122.700       61.394    24613.568    15055.237     3769.276        4.313        2.172      206.947       73.274        0.125      345.936       23.819      864.486
06/26/2013  22:25:00     -268.722     -146.897      -18.858      115.412      102.756       68.930    13320.006    10558.752     4751.360        6.138        1.432      306.252       65.878        0.046      345.927       23.802      864.504
06/26/2013  22:26:00     -170.384     -137.655        8.290      119.845       83.021       59.643    14362.878     6892.430     3557.334        3.643        1.241      219.043       68.847        0.099      345.908       23.772      864.511
06/26/2013  22:27:00     -254.037     -196.361      -11.603      106.836      103.309       54.029    11413.859    10672.700     2919.131        6.411        1.250      321.080       50.231        0.024      345.951       23.844      864.521
06/26/2013  22:28:00     -266.514     -103.871       -3.853      114.956       90.374       50.921    13214.857     8167.530     2592.918        5.290        1.199      286.040       51.683        0.033      345.950       23.843      864.510
06/26/2013  22:29:00     -166.591     -113.197       20.698      143.118       94.374       63.320    20482.667     8906.413     4009.419        3.719        1.670      201.410       63.489        0.099      345.890       23.741      864.517
06/26/2013  22:30:00     -120.801      -85.493        4.423       52.561       67.510       38.767     2762.660     4557.621     1502.881        1.537        0.441      147.993       18.820        0.016      345.858       23.689      864.518
06/26/2013  22:31:00     -180.907     -173.622        5.693      122.775      107.533       62.129    15073.782    11563.241     3860.063        4.669        1.525      250.743       66.749        0.071      345.897       23.752      864.508
06/26/2013  22:32:00     -126.746     -137.021        5.055      106.541       81.812       64.747    11350.948     6693.181     4192.113        2.855        1.112      186.653       71.199        0.146      345.887       23.736      864.490
06/26/2013  22:33:00     -186.069     -119.954       -1.760      101.424       85.855       50.091    10286.885     7371.112     2509.118        3.459        1.008      221.384       49.587        0.050      345.915       23.784      864.489
06/26/2013  22:34:00     -122.065      -83.800        2.778      110.836       74.710       47.581    12284.581     5581.619     2263.949        2.103        1.007      148.062       57.907        0.153      345.875       23.717      864.484
06/26/2013  22:35:00     -200.790      -98.703        3.792      140.148       95.893       56.011    19641.515     9195.396     3137.222        4.102        1.599      223.738       63.184        0.080      345.887       23.736      864.490
06/26/2013  22:36:00     -132.437     -108.313        8.888       94.195       81.198       51.623     8872.718     6593.073     2664.928        2.374        0.907      171.088       48.113        0.079      345.875       23.717      864.492
06/26/2013  22:37:00     -153.190      -87.425       11.513      129.348      115.460       58.057    16730.992    13331.120     3370.611        3.233        1.672      176.381       65.092        0.136      345.830       23.640      864.494
06/26/2013  22:38:00     -217.700     -132.274       -8.496      153.811      127.589       69.258    23657.717    16279.008     4796.683        5.484        2.237      254.735       84.907        0.111      345.942       23.831      864.518
06/26/2013  22:39:00     -160.561     -116.594       -4.135       80.353       98.711       44.094     6456.677     9743.916     1944.242        2.876        0.907      198.429       43.143        0.047      345.846       23.665      864.518
06/26/2013  22:40:00     -181.423     -207.972        2.981      132.450       99.433       58.846    17543.054     9887.015     3462.853        5.353        1.545      275.983       67.047        0.059      345.883       23.729      864.511
06/26/2013  22:41:00     -199.675     -114.208        1.176      121.725       94.679       52.738    14817.066     8964.043     2781.297        3.973        1.328      230.029       50.499        0.048      345.836       23.649      864.508
06/26/2013  22:42:00      -77.238     -119.482        7.398       67.412       58.286       33.332     4544.383     3397.223     1110.997        1.467        0.453      142.273       28.357        0.040      345.754       23.512      864.518
06/26/2013  22:43:00      -79.408     -108.482       -5.651       80.198       56.917       36.615     6431.793     3239.547     1340.674        1.456        0.551      134.440       26.899        0.040      345.732       23.472      864.511
06/26/2013  22:44:00     -168.000     -155.792       -3.130      128.382       77.741       43.730    16481.991     6043.679     1912.285        3.847        1.222      229.118       42.836        0.035      345.760       23.518      864.543
06/26/2013  22:45:00      -70.194     -109.342        2.370       75.893       45.237       38.546     5759.702     2046.357     1485.814        1.309        0.465      129.934       30.675        0.056      345.674       23.371      864.568
06/26/2013  22:46:00      -46.453     -107.926       -4.415       49.689       41.829       33.641     2469.026     1749.636     1131.727        0.959        0.268      117.499       26.370        0.050      345.589       23.229      864.567
06/26/2013  22:47:00       27.697      -80.244      -25.595       40.657       64.865       23.118     1652.975     4207.498      534.440        0.713        0.320       84.889       25.602        0.091      345.495       23.065      864.573
06/26/2013  22:48:00       14.486      -17.526        5.833       31.078       33.134       28.086      965.873     1097.873      788.844        0.170        0.143       22.738       18.016        0.628      345.348       22.813      864.579
06/26/2013  22:49:00      -24.226      -80.450      -17.527       54.669       47.474       32.102     2988.726     2253.750     1030.528        0.682        0.314       84.018       26.007        0.096      345.347       22.812      864.599
06/26/2013  22:50:00      -29.278      -73.479       -2.978       42.719       37.915       28.594     1824.883     1437.554      817.636        0.517        0.204       79.097       21.450        0.074      345.339       22.799      864.604
06/26/2013  22:51:00       -9.804      -69.094        9.391       35.220       46.356       29.378     1240.450     2148.835      863.050        0.460        0.213       69.786       10.221        0.021      345.261       22.665      864.594
06/26/2013  22:52:00      -44.900     -129.865       -2.239       31.812       34.800       19.927     1011.982     1211.017      397.066        1.075        0.131      137.408       16.044        0.014      345.343       22.803      864.602
06/26/2013  22:53:00      -20.282     -106.966        5.382       44.059       32.383       21.660     1941.203     1048.639      469.149        0.767        0.173      108.872       11.747        0.012      345.254       22.653      864.597
06/26/2013  22:54:00       -8.228      -23.972       -5.840       20.629       43.362       19.762      425.573     1880.267      390.536        0.169        0.135       25.345       17.496        0.477      345.205       22.569      864.608
06/26/2013  22:55:00      -81.209      -28.369      -15.872       43.677       30.205       21.892     1907.702      912.351      479.246        0.547        0.165       86.021       15.402        0.032      345.213       22.584      864.608
06/26/2013  22:56:00       -3.202      -13.374       10.408       27.217       35.705       18.568      740.759     1274.815      344.785        0.133        0.118       13.752       19.760        2.065      345.105       22.399      864.611
06/26/2013  22:57:00      -56.747       -2.312       -9.154       26.686       31.061       23.494      712.159      964.796      551.973        0.277        0.111       56.794       19.319        0.116      345.197       22.556      864.590
06/26/2013  22:58:00      -41.560      -65.558      -11.838       32.452       43.173       19.343     1053.138     1863.942      374.170        0.473        0.165       77.621       10.098        0.017      345.223       22.600      864.608
06/26/2013  22:59:00      -39.271       -7.318        1.486       37.299       21.217       17.157     1391.224      450.177      294.365        0.187        0.107       39.947       11.556        0.084      345.186       22.535      864.632
06/26/2013  23:00:00       -6.707       -2.093       -1.687       27.088       25.059       19.769      733.748      627.938      390.817        0.090        0.088        7.026       21.204        9.107      345.153       22.481      864.639
06/26/2013  23:01:00      -56.112     -110.576       -7.095       49.971       52.315       29.171     2497.139     2736.821      850.944        1.075        0.304      123.998       25.148        0.041      345.332       22.785      864.651
06/26/2013  23:02:00       -8.166      -46.012        6.047       24.711       30.372       22.523      610.625      922.462      507.281        0.213        0.102       46.731       17.305        0.137      345.273       22.685      864.661
06/26/2013  23:03:00       -2.735        8.064       34.871       18.993       35.001       18.628      360.738     1225.042      347.018        0.161        0.097        8.516       18.789        4.868      345.099       22.389      864.672
06/26/2013  23:04:00      -11.937       21.637       27.702       13.802       19.175       21.950      190.493      367.662      481.781        0.121        0.052       24.711       10.914        0.195      344.975       22.177      864.686
06/26/2013  23:05:00       -4.436        5.574       32.626       17.462       32.114       21.191      304.914     1031.308      449.061        0.145        0.089        7.124       20.985        8.677      345.027       22.263      864.690
06/26/2013  23:06:00       20.650      -77.135       -9.422       57.424       42.374       23.560     3297.526     1795.542      555.054        0.606        0.282       79.851       19.081        0.057      345.203       22.565      864.703
06/26/2013  23:07:00        1.959       -3.990       19.969       29.250       16.852       14.264      855.547      284.004      203.457        0.088        0.067        4.444       14.089       10.049      345.110       22.405      864.714
06/26/2013  23:08:00      -13.207      -21.165       14.060       21.076       49.257       24.246      444.211     2426.260      587.852        0.214        0.173       24.947       31.475        1.592      345.041       22.289      864.714
06/26/2013  23:09:00       -9.480      -47.254       18.168       43.718       49.012       20.164     1911.240     2402.155      406.590        0.369        0.236       48.196       21.179        0.193      345.126       22.435      864.729
06/26/2013  23:10:00      -46.351      -13.328       13.336       42.161       52.371       29.683     1777.586     2742.675      881.073        0.395        0.270       48.229       29.811        0.382      345.088       22.369      864.743
06/26/2013  23:11:00       24.974      -22.682        6.610       29.459       30.511       22.132      867.850      930.921      489.807        0.173        0.114       33.737       20.296        0.362      345.027       22.265      864.742
06/26/2013  23:12:00       16.323      -58.084        3.456       71.160       49.726       33.024     5063.680     2472.640     1090.612        0.614        0.431       60.334       28.707        0.226      345.004       22.224      864.730
06/26/2013  23:13:00      -12.414      -60.319        7.963       44.644       52.541       29.752     1993.091     2760.587      885.191        0.475        0.282       61.583       29.755        0.233      345.031       22.273      864.741
06/26/2013  23:14:00        8.160      -74.270       15.481       47.430       51.647       26.572     2249.635     2667.403      706.052        0.572        0.281       74.717       24.021        0.103      345.055       22.313      864.738
06/26/2013  23:15:00       -3.063      -56.512       -6.895       38.126       34.563       30.363     1453.619     1194.586      921.928        0.341        0.179       56.595       24.453        0.187      345.033       22.275      864.756
06/26/2013  23:16:00       -3.238      -88.525       -0.426       29.719       30.298       24.014      883.246      917.982      576.673        0.511        0.119       88.584       17.849        0.041      345.044       22.295      864.752
06/26/2013  23:17:00      -15.243      -70.608        3.549       51.220       37.463       24.221     2623.446     1403.487      586.670        0.492        0.231       72.235       20.502        0.081      345.028       22.266      864.752
06/26/2013  23:18:00      -35.210      -64.483       -3.902       35.772       32.267       22.290     1279.627     1041.132      496.865        0.411        0.141       73.469       21.944        0.089      345.042       22.291      864.752
06/26/2013  23:19:00      -34.134      -91.359        6.958       26.065       40.429       18.860      679.401     1634.493      355.717        0.611        0.133       97.527       15.178        0.024      345.128       22.439      864.739
06/26/2013  23:20:00       -9.089      -56.551        9.177       21.649       19.042       19.919      468.677      362.615      396.780        0.230        0.061       57.276       14.647        0.065      345.027       22.265      864.731
06/26/2013  23:21:00      -19.108      -95.806       -1.830       18.980       48.833       17.596      360.236     2384.691      309.604        0.630        0.153       97.693       17.760        0.033      345.095       22.381      864.729
06/26/2013  23:22:00      -39.977      -70.027        1.266       40.170       20.271       17.582     1613.640      410.925      309.114        0.442        0.117       80.635        8.532        0.011      345.045       22.295      864.751
06/26/2013  23:23:00       -6.111      -54.928       -4.262       63.156       27.746       28.807     3988.688      769.846      829.824        0.433        0.279       55.267       28.422        0.264      345.120       22.423      864.760
06/26/2013  23:24:00      -49.222      -32.901        0.712       28.811       30.543       20.073      830.055      932.873      402.906        0.284        0.108       59.206       17.681        0.089      345.020       22.251      864.767
06/26/2013  23:25:00       -3.962      -61.292        8.168       34.673       36.296       18.461     1202.235     1317.372      340.797        0.335        0.143       61.420        7.371        0.014      345.108       22.402      864.757
06/26/2013  23:26:00       16.013      -28.752       13.199       23.530       38.920       15.747      553.650     1514.746      247.969        0.179        0.116       32.911       15.408        0.219      345.058       22.319      864.760
06/26/2013  23:27:00       27.460       48.091       -1.487       23.037       16.836       21.751      530.711      283.454      473.100        0.218        0.064       55.378       12.616        0.052      344.833       21.931      864.758
06/26/2013  23:28:00        6.205       -8.401       -3.185       23.712       25.106        8.919      562.254      630.317       79.544        0.070        0.064       10.444        7.160        0.470      344.835       21.934      864.756
06/26/2013  23:29:00       58.273       44.157       11.228       23.659       20.938       19.436      559.741      438.384      377.748        0.342        0.069       73.114        8.333        0.013      344.652       21.623      864.779
06/26/2013  23:30:00       59.451       38.854        7.583       24.819       19.710       19.170      615.968      388.481      367.486        0.324        0.069       71.022       13.140        0.034      344.328       21.067      864.778
06/26/2013  23:31:00       51.407       33.487       -1.280       20.075       14.784       19.116      403.012      218.578      365.436        0.238        0.049       61.352       12.375        0.041      344.394       21.181      864.805
06/26/2013  23:32:00      112.258       78.192       18.303       48.278       34.116       32.539     2330.722     1163.930     1058.809        1.180        0.228      136.806       27.085        0.039      344.525       21.406      864.796
06/26/2013  23:33:00       30.252       88.129       79.870       39.184       31.159       21.944     1535.419      970.860      481.524        0.902        0.149       93.177       18.614        0.040      344.600       21.535      864.807
06/26/2013  23:34:00       55.515       97.568       78.967       38.466       25.273       24.488     1479.606      638.711      599.685        1.078        0.136      112.256       16.401        0.021      344.642       21.605      864.809
06/26/2013  23:35:00       46.521       43.691       55.358       33.749       29.557       22.826     1138.988      873.622      521.024        0.484        0.127       63.820       16.263        0.065      344.718       21.735      864.820
06/26/2013  23:36:00       66.212       29.602       17.293       48.654       38.789       33.599     2367.165     1504.603     1128.907        0.528        0.250       72.528       28.942        0.159      344.639       21.600      864.825
06/26/2013  23:37:00       47.323       15.544        3.755       27.526       21.704       17.346      757.675      471.065      300.866        0.201        0.076       49.810       13.274        0.071      344.386       21.167      864.831
06/26/2013  23:38:00       67.995       37.839        4.729       31.985       25.020       18.154     1023.061      626.008      329.551        0.403        0.099       77.815       13.478        0.030      344.319       21.055      864.837
06/26/2013  23:39:00       72.999       35.928       18.486       33.185       25.170       18.945     1101.242      633.539      358.907        0.453        0.105       81.361       17.323        0.045      344.315       21.046      864.852
06/26/2013  23:40:00      106.806       45.621        9.768       41.762       33.145       30.808     1744.089     1098.573      949.124        0.869        0.190      116.142       25.347        0.048      344.346       21.099      864.846
06/26/2013  23:41:00       90.958       45.535       33.505       46.313       38.494       32.533     2144.922     1481.788     1058.368        0.808        0.234      101.719       22.075        0.047      344.383       21.162      864.840
06/26/2013  23:42:00       25.522       16.844       29.718       32.635       24.755       20.416     1065.049      612.788      416.833        0.196        0.105       30.579       20.041        0.430      344.373       21.145      864.863
06/26/2013  23:43:00       66.271       46.603       15.661       21.286       20.643       18.872      453.081      426.129      356.134        0.402        0.062       81.017        7.516        0.009      344.392       21.178      864.881
06/26/2013  23:44:00       97.569       66.282       19.810       39.081       29.173       18.717     1527.332      851.058      350.342        0.852        0.136      117.953       18.308        0.024      344.409       21.207      864.868
06/26/2013  23:45:00      101.484       74.009       20.488       41.478       27.949       31.374     1720.416      781.153      984.346        0.984        0.174      125.604       20.937        0.028      344.509       21.380      864.878
06/26/2013  23:46:00      132.164       78.076       34.173       19.756       15.681       18.609      390.286      245.883      346.301        1.286        0.049      153.503       10.146        0.004      344.548       21.445      864.875
06/26/2013  23:47:00      101.041       50.371       17.162       34.436       26.504       25.673     1185.872      702.450      659.119        0.779        0.127      112.900       20.656        0.033      344.363       21.129      864.858
06/26/2013  23:48:00       74.614       35.013       22.829       54.484       33.705       25.706     2968.508     1136.059      660.783        0.604        0.238       82.420       21.230        0.066      344.444       21.268      864.845
06/26/2013  23:49:00       -6.797       52.138       -8.540       22.897       39.960       23.936      524.250     1596.809      572.938        0.277        0.135       52.579       25.161        0.229      344.241       20.922      864.844
06/26/2013  23:50:00       28.305      -43.364       -0.804       39.010       71.364       30.105     1521.807     5092.759      906.337        0.510        0.376       51.785       27.026        0.272      344.332       21.076      864.833
06/26/2013  23:51:00       -3.326     -119.972      -15.472       33.664       29.822       18.863     1133.256      889.344      355.806        0.851        0.119      120.018        7.585        0.004      344.674       21.661      864.856
06/26/2013  23:52:00       21.739        2.737       23.858       21.969       41.458       26.402      482.630     1718.751      697.069        0.197        0.145       21.910       27.841        1.615      344.603       21.540      864.854
06/26/2013  23:53:00       59.328       67.857       57.902       47.403       29.438       27.974     2247.036      866.621      782.571        0.769        0.195       90.136       21.665        0.058      344.328       21.068      864.843
06/26/2013  23:54:00       78.549       34.762       39.567       45.761       35.509       29.686     2094.026     1260.859      881.257        0.659        0.212       85.897       23.175        0.073      344.405       21.201      864.862
06/26/2013  23:55:00       71.542       24.718       19.265       31.785       24.942       23.771     1010.307      622.094      565.072        0.415        0.110       75.691       17.687        0.055      344.401       21.192      864.877
06/26/2013  23:56:00       22.075        6.723        6.029       21.610       22.664       13.633      466.994      513.638      185.867        0.087        0.058       23.076       10.635        0.212      344.406       21.203      864.897
06/26/2013  23:57:00       35.420       29.516        7.732       15.600       18.732       11.940      243.374      350.887      142.568        0.146        0.037       46.106        7.969        0.030      344.392       21.178      864.915
06/26/2013  23:58:00       82.676       55.845       11.993       31.714       14.458       14.549     1005.801      209.048      211.684        0.576        0.071       99.769       14.800        0.022      344.374       21.146      864.893
06/26/2013  23:59:00      106.739       63.846       13.278       22.703       27.678       17.331      515.433      766.078      300.359        0.861        0.079      124.376        8.408        0.005      344.353       21.111      864.887
